<?xml version="1.0" encoding="UTF-8" standalone="no" ?>
<gpx xmlns="http://www.topografix.com/GPX/1/1" xmlns:xsi="http://www.w3.org/2001/XMLSchema-instance" xsi:schemaLocation="http://www.topografix.com/GPX/1/1 http://www.topografix.com/GPX/1/1/gpx.xsd" version="1.1" creator="VisuGPX - https://www.visugpx.com">
  <metadata>
    <name>Combes de Vaumale et de Lioux</name>
    <desc><![CDATA[Boucle de 18.7 km, dénivelé cumulé 560 m]]></desc>
  </metadata>
  <trk>
    <name><![CDATA[la combe de Vaumale]]></name>
    <trkseg>
      <trkpt lat="43.94562" lon="5.29463">
        <ele>303</ele>
        <time>2019-10-02T07:10:11Z</time>
      </trkpt>
      <trkpt lat="43.94562" lon="5.29463">
        <ele>303</ele>
        <time>2019-10-02T07:10:12Z</time>
      </trkpt>
      <trkpt lat="43.94558" lon="5.2947">
        <ele>292</ele>
        <time>2019-10-02T07:10:15Z</time>
      </trkpt>
      <trkpt lat="43.94553" lon="5.29477">
        <ele>280</ele>
        <time>2019-10-02T07:10:21Z</time>
      </trkpt>
      <trkpt lat="43.94553" lon="5.29477">
        <ele>280</ele>
        <time>2019-10-02T07:10:25Z</time>
      </trkpt>
      <trkpt lat="43.94549" lon="5.29464">
        <ele>280</ele>
        <time>2019-10-02T07:11:55Z</time>
      </trkpt>
      <trkpt lat="43.94547" lon="5.29452">
        <ele>279</ele>
        <time>2019-10-02T07:12:05Z</time>
      </trkpt>
      <trkpt lat="43.94545" lon="5.29439">
        <ele>279</ele>
        <time>2019-10-02T07:12:15Z</time>
      </trkpt>
      <trkpt lat="43.94544" lon="5.29426">
        <ele>279</ele>
        <time>2019-10-02T07:12:26Z</time>
      </trkpt>
      <trkpt lat="43.94531" lon="5.29409">
        <ele>278</ele>
        <time>2019-10-02T07:12:47Z</time>
      </trkpt>
      <trkpt lat="43.94529" lon="5.29394">
        <ele>278</ele>
        <time>2019-10-02T07:12:59Z</time>
      </trkpt>
      <trkpt lat="43.94529" lon="5.29382">
        <ele>278</ele>
        <time>2019-10-02T07:13:05Z</time>
      </trkpt>
      <trkpt lat="43.94532" lon="5.29369">
        <ele>280</ele>
        <time>2019-10-02T07:13:14Z</time>
      </trkpt>
      <trkpt lat="43.94536" lon="5.29358">
        <ele>281</ele>
        <time>2019-10-02T07:13:23Z</time>
      </trkpt>
      <trkpt lat="43.94539" lon="5.29345">
        <ele>281</ele>
        <time>2019-10-02T07:13:31Z</time>
      </trkpt>
      <trkpt lat="43.94544" lon="5.29333">
        <ele>282</ele>
        <time>2019-10-02T07:13:40Z</time>
      </trkpt>
      <trkpt lat="43.94542" lon="5.29319">
        <ele>282</ele>
        <time>2019-10-02T07:13:49Z</time>
      </trkpt>
      <trkpt lat="43.94534" lon="5.29295">
        <ele>281</ele>
        <time>2019-10-02T07:14:03Z</time>
      </trkpt>
      <trkpt lat="43.94531" lon="5.29283">
        <ele>280</ele>
        <time>2019-10-02T07:14:11Z</time>
      </trkpt>
      <trkpt lat="43.94528" lon="5.29271">
        <ele>281</ele>
        <time>2019-10-02T07:14:18Z</time>
      </trkpt>
      <trkpt lat="43.94523" lon="5.2926">
        <ele>281</ele>
        <time>2019-10-02T07:14:25Z</time>
      </trkpt>
      <trkpt lat="43.94518" lon="5.29246">
        <ele>282</ele>
        <time>2019-10-02T07:14:32Z</time>
      </trkpt>
      <trkpt lat="43.94515" lon="5.29234">
        <ele>282</ele>
        <time>2019-10-02T07:14:39Z</time>
      </trkpt>
      <trkpt lat="43.9451" lon="5.29222">
        <ele>281</ele>
        <time>2019-10-02T07:14:46Z</time>
      </trkpt>
      <trkpt lat="43.94509" lon="5.29209">
        <ele>281</ele>
        <time>2019-10-02T07:14:53Z</time>
      </trkpt>
      <trkpt lat="43.94504" lon="5.29198">
        <ele>281</ele>
        <time>2019-10-02T07:15:01Z</time>
      </trkpt>
      <trkpt lat="43.94501" lon="5.29185">
        <ele>280</ele>
        <time>2019-10-02T07:15:09Z</time>
      </trkpt>
      <trkpt lat="43.945" lon="5.29171">
        <ele>280</ele>
        <time>2019-10-02T07:15:18Z</time>
      </trkpt>
      <trkpt lat="43.94498" lon="5.29145">
        <ele>282</ele>
        <time>2019-10-02T07:15:34Z</time>
      </trkpt>
      <trkpt lat="43.94499" lon="5.29132">
        <ele>283</ele>
        <time>2019-10-02T07:15:43Z</time>
      </trkpt>
      <trkpt lat="43.94501" lon="5.29119">
        <ele>283</ele>
        <time>2019-10-02T07:15:50Z</time>
      </trkpt>
      <trkpt lat="43.94497" lon="5.29095">
        <ele>282</ele>
        <time>2019-10-02T07:16:06Z</time>
      </trkpt>
      <trkpt lat="43.94494" lon="5.29082">
        <ele>282</ele>
        <time>2019-10-02T07:16:12Z</time>
      </trkpt>
      <trkpt lat="43.94492" lon="5.2907">
        <ele>282</ele>
        <time>2019-10-02T07:16:19Z</time>
      </trkpt>
      <trkpt lat="43.94491" lon="5.29056">
        <ele>282</ele>
        <time>2019-10-02T07:16:25Z</time>
      </trkpt>
      <trkpt lat="43.94488" lon="5.29043">
        <ele>282</ele>
        <time>2019-10-02T07:16:32Z</time>
      </trkpt>
      <trkpt lat="43.94484" lon="5.2903">
        <ele>282</ele>
        <time>2019-10-02T07:16:40Z</time>
      </trkpt>
      <trkpt lat="43.94482" lon="5.29016">
        <ele>283</ele>
        <time>2019-10-02T07:16:50Z</time>
      </trkpt>
      <trkpt lat="43.9448" lon="5.29002">
        <ele>283</ele>
        <time>2019-10-02T07:16:58Z</time>
      </trkpt>
      <trkpt lat="43.94478" lon="5.2899">
        <ele>283</ele>
        <time>2019-10-02T07:17:07Z</time>
      </trkpt>
      <trkpt lat="43.94475" lon="5.28977">
        <ele>283</ele>
        <time>2019-10-02T07:17:15Z</time>
      </trkpt>
      <trkpt lat="43.94467" lon="5.28952">
        <ele>282</ele>
        <time>2019-10-02T07:17:29Z</time>
      </trkpt>
      <trkpt lat="43.94464" lon="5.2894">
        <ele>282</ele>
        <time>2019-10-02T07:17:37Z</time>
      </trkpt>
      <trkpt lat="43.94461" lon="5.28927">
        <ele>282</ele>
        <time>2019-10-02T07:17:45Z</time>
      </trkpt>
      <trkpt lat="43.9446" lon="5.28912">
        <ele>282</ele>
        <time>2019-10-02T07:17:54Z</time>
      </trkpt>
      <trkpt lat="43.94456" lon="5.28899">
        <ele>283</ele>
        <time>2019-10-02T07:18:01Z</time>
      </trkpt>
      <trkpt lat="43.94452" lon="5.28887">
        <ele>283</ele>
        <time>2019-10-02T07:18:09Z</time>
      </trkpt>
      <trkpt lat="43.94448" lon="5.28862">
        <ele>283</ele>
        <time>2019-10-02T07:18:22Z</time>
      </trkpt>
      <trkpt lat="43.94446" lon="5.28848">
        <ele>284</ele>
        <time>2019-10-02T07:18:30Z</time>
      </trkpt>
      <trkpt lat="43.94442" lon="5.28835">
        <ele>285</ele>
        <time>2019-10-02T07:18:38Z</time>
      </trkpt>
      <trkpt lat="43.9444" lon="5.28822">
        <ele>284</ele>
        <time>2019-10-02T07:18:45Z</time>
      </trkpt>
      <trkpt lat="43.94436" lon="5.28808">
        <ele>284</ele>
        <time>2019-10-02T07:18:53Z</time>
      </trkpt>
      <trkpt lat="43.94433" lon="5.28797">
        <ele>285</ele>
        <time>2019-10-02T07:19:02Z</time>
      </trkpt>
      <trkpt lat="43.94432" lon="5.28783">
        <ele>286</ele>
        <time>2019-10-02T07:19:11Z</time>
      </trkpt>
      <trkpt lat="43.94429" lon="5.28771">
        <ele>286</ele>
        <time>2019-10-02T07:19:19Z</time>
      </trkpt>
      <trkpt lat="43.94426" lon="5.28756">
        <ele>287</ele>
        <time>2019-10-02T07:19:26Z</time>
      </trkpt>
      <trkpt lat="43.94422" lon="5.28745">
        <ele>286</ele>
        <time>2019-10-02T07:19:32Z</time>
      </trkpt>
      <trkpt lat="43.94419" lon="5.28733">
        <ele>287</ele>
        <time>2019-10-02T07:19:39Z</time>
      </trkpt>
      <trkpt lat="43.94415" lon="5.28719">
        <ele>288</ele>
        <time>2019-10-02T07:19:48Z</time>
      </trkpt>
      <trkpt lat="43.94414" lon="5.28706">
        <ele>289</ele>
        <time>2019-10-02T07:19:55Z</time>
      </trkpt>
      <trkpt lat="43.94414" lon="5.28693">
        <ele>290</ele>
        <time>2019-10-02T07:20:04Z</time>
      </trkpt>
      <trkpt lat="43.94415" lon="5.28681">
        <ele>290</ele>
        <time>2019-10-02T07:20:12Z</time>
      </trkpt>
      <trkpt lat="43.94415" lon="5.28654">
        <ele>290</ele>
        <time>2019-10-02T07:20:28Z</time>
      </trkpt>
      <trkpt lat="43.94415" lon="5.2864">
        <ele>290</ele>
        <time>2019-10-02T07:20:35Z</time>
      </trkpt>
      <trkpt lat="43.94417" lon="5.28612">
        <ele>290</ele>
        <time>2019-10-02T07:20:51Z</time>
      </trkpt>
      <trkpt lat="43.9442" lon="5.28599">
        <ele>291</ele>
        <time>2019-10-02T07:21:03Z</time>
      </trkpt>
      <trkpt lat="43.94421" lon="5.28586">
        <ele>291</ele>
        <time>2019-10-02T07:21:13Z</time>
      </trkpt>
      <trkpt lat="43.94423" lon="5.28572">
        <ele>291</ele>
        <time>2019-10-02T07:21:20Z</time>
      </trkpt>
      <trkpt lat="43.94427" lon="5.2856">
        <ele>292</ele>
        <time>2019-10-02T07:21:26Z</time>
      </trkpt>
      <trkpt lat="43.94429" lon="5.28547">
        <ele>293</ele>
        <time>2019-10-02T07:21:34Z</time>
      </trkpt>
      <trkpt lat="43.94437" lon="5.28539">
        <ele>294</ele>
        <time>2019-10-02T07:21:43Z</time>
      </trkpt>
      <trkpt lat="43.94442" lon="5.28528">
        <ele>295</ele>
        <time>2019-10-02T07:21:58Z</time>
      </trkpt>
      <trkpt lat="43.94448" lon="5.28518">
        <ele>295</ele>
        <time>2019-10-02T07:22:05Z</time>
      </trkpt>
      <trkpt lat="43.94456" lon="5.2851">
        <ele>296</ele>
        <time>2019-10-02T07:22:12Z</time>
      </trkpt>
      <trkpt lat="43.94463" lon="5.28501">
        <ele>297</ele>
        <time>2019-10-02T07:22:20Z</time>
      </trkpt>
      <trkpt lat="43.94467" lon="5.28489">
        <ele>297</ele>
        <time>2019-10-02T07:22:26Z</time>
      </trkpt>
      <trkpt lat="43.94471" lon="5.28477">
        <ele>298</ele>
        <time>2019-10-02T07:22:35Z</time>
      </trkpt>
      <trkpt lat="43.94473" lon="5.28464">
        <ele>298</ele>
        <time>2019-10-02T07:22:41Z</time>
      </trkpt>
      <trkpt lat="43.94478" lon="5.28453">
        <ele>300</ele>
        <time>2019-10-02T07:22:50Z</time>
      </trkpt>
      <trkpt lat="43.94487" lon="5.28446">
        <ele>300</ele>
        <time>2019-10-02T07:23:00Z</time>
      </trkpt>
      <trkpt lat="43.94496" lon="5.28443">
        <ele>300</ele>
        <time>2019-10-02T07:23:08Z</time>
      </trkpt>
      <trkpt lat="43.94505" lon="5.28438">
        <ele>301</ele>
        <time>2019-10-02T07:23:18Z</time>
      </trkpt>
      <trkpt lat="43.94521" lon="5.28425">
        <ele>302</ele>
        <time>2019-10-02T07:23:37Z</time>
      </trkpt>
      <trkpt lat="43.9453" lon="5.2842">
        <ele>303</ele>
        <time>2019-10-02T07:23:47Z</time>
      </trkpt>
      <trkpt lat="43.94549" lon="5.28413">
        <ele>305</ele>
        <time>2019-10-02T07:24:02Z</time>
      </trkpt>
      <trkpt lat="43.94559" lon="5.28415">
        <ele>306</ele>
        <time>2019-10-02T07:24:11Z</time>
      </trkpt>
      <trkpt lat="43.94568" lon="5.28415">
        <ele>306</ele>
        <time>2019-10-02T07:24:19Z</time>
      </trkpt>
      <trkpt lat="43.94577" lon="5.28421">
        <ele>307</ele>
        <time>2019-10-02T07:24:27Z</time>
      </trkpt>
      <trkpt lat="43.94583" lon="5.2843">
        <ele>308</ele>
        <time>2019-10-02T07:24:35Z</time>
      </trkpt>
      <trkpt lat="43.94591" lon="5.28439">
        <ele>308</ele>
        <time>2019-10-02T07:24:42Z</time>
      </trkpt>
      <trkpt lat="43.94598" lon="5.28446">
        <ele>309</ele>
        <time>2019-10-02T07:24:50Z</time>
      </trkpt>
      <trkpt lat="43.94606" lon="5.28453">
        <ele>310</ele>
        <time>2019-10-02T07:24:57Z</time>
      </trkpt>
      <trkpt lat="43.94615" lon="5.28458">
        <ele>311</ele>
        <time>2019-10-02T07:25:06Z</time>
      </trkpt>
      <trkpt lat="43.94623" lon="5.28466">
        <ele>311</ele>
        <time>2019-10-02T07:25:14Z</time>
      </trkpt>
      <trkpt lat="43.94631" lon="5.28476">
        <ele>312</ele>
        <time>2019-10-02T07:25:22Z</time>
      </trkpt>
      <trkpt lat="43.94637" lon="5.28486">
        <ele>313</ele>
        <time>2019-10-02T07:25:30Z</time>
      </trkpt>
      <trkpt lat="43.94645" lon="5.28494">
        <ele>313</ele>
        <time>2019-10-02T07:25:40Z</time>
      </trkpt>
      <trkpt lat="43.94652" lon="5.28502">
        <ele>314</ele>
        <time>2019-10-02T07:25:49Z</time>
      </trkpt>
      <trkpt lat="43.94645" lon="5.28494">
        <ele>314</ele>
        <time>2019-10-02T07:26:06Z</time>
      </trkpt>
      <trkpt lat="43.94638" lon="5.28486">
        <ele>313</ele>
        <time>2019-10-02T07:26:13Z</time>
      </trkpt>
      <trkpt lat="43.94632" lon="5.28476">
        <ele>312</ele>
        <time>2019-10-02T07:26:21Z</time>
      </trkpt>
      <trkpt lat="43.94624" lon="5.2847">
        <ele>312</ele>
        <time>2019-10-02T07:26:29Z</time>
      </trkpt>
      <trkpt lat="43.94609" lon="5.28455">
        <ele>310</ele>
        <time>2019-10-02T07:26:44Z</time>
      </trkpt>
      <trkpt lat="43.94601" lon="5.28448">
        <ele>310</ele>
        <time>2019-10-02T07:26:52Z</time>
      </trkpt>
      <trkpt lat="43.94593" lon="5.2844">
        <ele>309</ele>
        <time>2019-10-02T07:27:01Z</time>
      </trkpt>
      <trkpt lat="43.94579" lon="5.2842">
        <ele>308</ele>
        <time>2019-10-02T07:27:17Z</time>
      </trkpt>
      <trkpt lat="43.9456" lon="5.28413">
        <ele>306</ele>
        <time>2019-10-02T07:27:33Z</time>
      </trkpt>
      <trkpt lat="43.94551" lon="5.28412">
        <ele>305</ele>
        <time>2019-10-02T07:27:41Z</time>
      </trkpt>
      <trkpt lat="43.94541" lon="5.28416">
        <ele>304</ele>
        <time>2019-10-02T07:27:49Z</time>
      </trkpt>
      <trkpt lat="43.94531" lon="5.28416">
        <ele>303</ele>
        <time>2019-10-02T07:27:59Z</time>
      </trkpt>
      <trkpt lat="43.94523" lon="5.2842">
        <ele>302</ele>
        <time>2019-10-02T07:28:06Z</time>
      </trkpt>
      <trkpt lat="43.94515" lon="5.28429">
        <ele>302</ele>
        <time>2019-10-02T07:28:16Z</time>
      </trkpt>
      <trkpt lat="43.94506" lon="5.28435">
        <ele>301</ele>
        <time>2019-10-02T07:28:23Z</time>
      </trkpt>
      <trkpt lat="43.94497" lon="5.28442">
        <ele>300</ele>
        <time>2019-10-02T07:28:32Z</time>
      </trkpt>
      <trkpt lat="43.94488" lon="5.28445">
        <ele>300</ele>
        <time>2019-10-02T07:28:40Z</time>
      </trkpt>
      <trkpt lat="43.94477" lon="5.28442">
        <ele>300</ele>
        <time>2019-10-02T07:28:48Z</time>
      </trkpt>
      <trkpt lat="43.9447" lon="5.28433">
        <ele>300</ele>
        <time>2019-10-02T07:28:58Z</time>
      </trkpt>
      <trkpt lat="43.94466" lon="5.28422">
        <ele>300</ele>
        <time>2019-10-02T07:29:04Z</time>
      </trkpt>
      <trkpt lat="43.94463" lon="5.28409">
        <ele>299</ele>
        <time>2019-10-02T07:29:12Z</time>
      </trkpt>
      <trkpt lat="43.94462" lon="5.28397">
        <ele>298</ele>
        <time>2019-10-02T07:29:21Z</time>
      </trkpt>
      <trkpt lat="43.94463" lon="5.28383">
        <ele>298</ele>
        <time>2019-10-02T07:29:28Z</time>
      </trkpt>
      <trkpt lat="43.94461" lon="5.28368">
        <ele>297</ele>
        <time>2019-10-02T07:29:36Z</time>
      </trkpt>
      <trkpt lat="43.94461" lon="5.28355">
        <ele>297</ele>
        <time>2019-10-02T07:29:42Z</time>
      </trkpt>
      <trkpt lat="43.94461" lon="5.28342">
        <ele>297</ele>
        <time>2019-10-02T07:29:50Z</time>
      </trkpt>
      <trkpt lat="43.94459" lon="5.28329">
        <ele>297</ele>
        <time>2019-10-02T07:29:57Z</time>
      </trkpt>
      <trkpt lat="43.94456" lon="5.28317">
        <ele>296</ele>
        <time>2019-10-02T07:30:05Z</time>
      </trkpt>
      <trkpt lat="43.94453" lon="5.28305">
        <ele>296</ele>
        <time>2019-10-02T07:30:11Z</time>
      </trkpt>
      <trkpt lat="43.9445" lon="5.28292">
        <ele>296</ele>
        <time>2019-10-02T07:30:20Z</time>
      </trkpt>
      <trkpt lat="43.94445" lon="5.28266">
        <ele>296</ele>
        <time>2019-10-02T07:30:36Z</time>
      </trkpt>
      <trkpt lat="43.94442" lon="5.28254">
        <ele>297</ele>
        <time>2019-10-02T07:30:44Z</time>
      </trkpt>
      <trkpt lat="43.94439" lon="5.28241">
        <ele>297</ele>
        <time>2019-10-02T07:30:52Z</time>
      </trkpt>
      <trkpt lat="43.94434" lon="5.28215">
        <ele>297</ele>
        <time>2019-10-02T07:31:06Z</time>
      </trkpt>
      <trkpt lat="43.94431" lon="5.28203">
        <ele>297</ele>
        <time>2019-10-02T07:31:12Z</time>
      </trkpt>
      <trkpt lat="43.94427" lon="5.28189">
        <ele>298</ele>
        <time>2019-10-02T07:31:21Z</time>
      </trkpt>
      <trkpt lat="43.94423" lon="5.28177">
        <ele>298</ele>
        <time>2019-10-02T07:31:27Z</time>
      </trkpt>
      <trkpt lat="43.94419" lon="5.28165">
        <ele>298</ele>
        <time>2019-10-02T07:31:35Z</time>
      </trkpt>
      <trkpt lat="43.94416" lon="5.28151">
        <ele>298</ele>
        <time>2019-10-02T07:31:41Z</time>
      </trkpt>
      <trkpt lat="43.94416" lon="5.28137">
        <ele>298</ele>
        <time>2019-10-02T07:31:48Z</time>
      </trkpt>
      <trkpt lat="43.94417" lon="5.28123">
        <ele>298</ele>
        <time>2019-10-02T07:31:57Z</time>
      </trkpt>
      <trkpt lat="43.94421" lon="5.2811">
        <ele>298</ele>
        <time>2019-10-02T07:32:06Z</time>
      </trkpt>
      <trkpt lat="43.94428" lon="5.28099">
        <ele>299</ele>
        <time>2019-10-02T07:32:15Z</time>
      </trkpt>
      <trkpt lat="43.94435" lon="5.28091">
        <ele>299</ele>
        <time>2019-10-02T07:32:23Z</time>
      </trkpt>
      <trkpt lat="43.94444" lon="5.28088">
        <ele>300</ele>
        <time>2019-10-02T07:32:31Z</time>
      </trkpt>
      <trkpt lat="43.94453" lon="5.28085">
        <ele>301</ele>
        <time>2019-10-02T07:32:38Z</time>
      </trkpt>
      <trkpt lat="43.94461" lon="5.28079">
        <ele>302</ele>
        <time>2019-10-02T07:32:46Z</time>
      </trkpt>
      <trkpt lat="43.94469" lon="5.28071">
        <ele>302</ele>
        <time>2019-10-02T07:32:53Z</time>
      </trkpt>
      <trkpt lat="43.94476" lon="5.28062">
        <ele>303</ele>
        <time>2019-10-02T07:33:01Z</time>
      </trkpt>
      <trkpt lat="43.94481" lon="5.28051">
        <ele>303</ele>
        <time>2019-10-02T07:33:10Z</time>
      </trkpt>
      <trkpt lat="43.94486" lon="5.28041">
        <ele>304</ele>
        <time>2019-10-02T07:33:18Z</time>
      </trkpt>
      <trkpt lat="43.94491" lon="5.2803">
        <ele>304</ele>
        <time>2019-10-02T07:33:27Z</time>
      </trkpt>
      <trkpt lat="43.94496" lon="5.28019">
        <ele>306</ele>
        <time>2019-10-02T07:33:35Z</time>
      </trkpt>
      <trkpt lat="43.945" lon="5.28007">
        <ele>307</ele>
        <time>2019-10-02T07:33:44Z</time>
      </trkpt>
      <trkpt lat="43.94504" lon="5.27993">
        <ele>308</ele>
        <time>2019-10-02T07:33:52Z</time>
      </trkpt>
      <trkpt lat="43.94507" lon="5.27981">
        <ele>309</ele>
        <time>2019-10-02T07:34:02Z</time>
      </trkpt>
      <trkpt lat="43.9451" lon="5.27969">
        <ele>310</ele>
        <time>2019-10-02T07:34:10Z</time>
      </trkpt>
      <trkpt lat="43.94513" lon="5.27957">
        <ele>311</ele>
        <time>2019-10-02T07:34:19Z</time>
      </trkpt>
      <trkpt lat="43.94515" lon="5.27944">
        <ele>312</ele>
        <time>2019-10-02T07:34:27Z</time>
      </trkpt>
      <trkpt lat="43.94518" lon="5.27932">
        <ele>312</ele>
        <time>2019-10-02T07:34:35Z</time>
      </trkpt>
      <trkpt lat="43.9452" lon="5.2792">
        <ele>312</ele>
        <time>2019-10-02T07:34:44Z</time>
      </trkpt>
      <trkpt lat="43.94525" lon="5.27909">
        <ele>313</ele>
        <time>2019-10-02T07:34:54Z</time>
      </trkpt>
      <trkpt lat="43.94532" lon="5.279">
        <ele>313</ele>
        <time>2019-10-02T07:35:03Z</time>
      </trkpt>
      <trkpt lat="43.94541" lon="5.27895">
        <ele>314</ele>
        <time>2019-10-02T07:35:12Z</time>
      </trkpt>
      <trkpt lat="43.9455" lon="5.27897">
        <ele>315</ele>
        <time>2019-10-02T07:35:19Z</time>
      </trkpt>
      <trkpt lat="43.9456" lon="5.27896">
        <ele>316</ele>
        <time>2019-10-02T07:35:28Z</time>
      </trkpt>
      <trkpt lat="43.94569" lon="5.27891">
        <ele>317</ele>
        <time>2019-10-02T07:35:37Z</time>
      </trkpt>
      <trkpt lat="43.94577" lon="5.2788">
        <ele>317</ele>
        <time>2019-10-02T07:35:47Z</time>
      </trkpt>
      <trkpt lat="43.94581" lon="5.27868">
        <ele>318</ele>
        <time>2019-10-02T07:35:54Z</time>
      </trkpt>
      <trkpt lat="43.94581" lon="5.27854">
        <ele>318</ele>
        <time>2019-10-02T07:36:10Z</time>
      </trkpt>
      <trkpt lat="43.94584" lon="5.27841">
        <ele>320</ele>
        <time>2019-10-02T07:36:36Z</time>
      </trkpt>
      <trkpt lat="43.94587" lon="5.27829">
        <ele>321</ele>
        <time>2019-10-02T07:36:56Z</time>
      </trkpt>
      <trkpt lat="43.9459" lon="5.27817">
        <ele>321</ele>
        <time>2019-10-02T07:37:04Z</time>
      </trkpt>
      <trkpt lat="43.94589" lon="5.27804">
        <ele>321</ele>
        <time>2019-10-02T07:38:54Z</time>
      </trkpt>
      <trkpt lat="43.94591" lon="5.27791">
        <ele>321</ele>
        <time>2019-10-02T07:38:59Z</time>
      </trkpt>
      <trkpt lat="43.94594" lon="5.27778">
        <ele>322</ele>
        <time>2019-10-02T07:39:08Z</time>
      </trkpt>
      <trkpt lat="43.94598" lon="5.27766">
        <ele>323</ele>
        <time>2019-10-02T07:39:16Z</time>
      </trkpt>
      <trkpt lat="43.94601" lon="5.27753">
        <ele>324</ele>
        <time>2019-10-02T07:39:24Z</time>
      </trkpt>
      <trkpt lat="43.94606" lon="5.27742">
        <ele>325</ele>
        <time>2019-10-02T07:39:31Z</time>
      </trkpt>
      <trkpt lat="43.94611" lon="5.2773">
        <ele>325</ele>
        <time>2019-10-02T07:39:38Z</time>
      </trkpt>
      <trkpt lat="43.94615" lon="5.27717">
        <ele>326</ele>
        <time>2019-10-02T07:39:44Z</time>
      </trkpt>
      <trkpt lat="43.94619" lon="5.27691">
        <ele>327</ele>
        <time>2019-10-02T07:39:59Z</time>
      </trkpt>
      <trkpt lat="43.94624" lon="5.27679">
        <ele>328</ele>
        <time>2019-10-02T07:40:06Z</time>
      </trkpt>
      <trkpt lat="43.94626" lon="5.27665">
        <ele>328</ele>
        <time>2019-10-02T07:40:14Z</time>
      </trkpt>
      <trkpt lat="43.9463" lon="5.27652">
        <ele>329</ele>
        <time>2019-10-02T07:40:21Z</time>
      </trkpt>
      <trkpt lat="43.94634" lon="5.2764">
        <ele>330</ele>
        <time>2019-10-02T07:40:28Z</time>
      </trkpt>
      <trkpt lat="43.94638" lon="5.27615">
        <ele>330</ele>
        <time>2019-10-02T07:40:43Z</time>
      </trkpt>
      <trkpt lat="43.94642" lon="5.27603">
        <ele>331</ele>
        <time>2019-10-02T07:40:51Z</time>
      </trkpt>
      <trkpt lat="43.94646" lon="5.2759">
        <ele>331</ele>
        <time>2019-10-02T07:40:58Z</time>
      </trkpt>
      <trkpt lat="43.94648" lon="5.27577">
        <ele>331</ele>
        <time>2019-10-02T07:41:05Z</time>
      </trkpt>
      <trkpt lat="43.94652" lon="5.27565">
        <ele>332</ele>
        <time>2019-10-02T07:41:12Z</time>
      </trkpt>
      <trkpt lat="43.94654" lon="5.27553">
        <ele>332</ele>
        <time>2019-10-02T07:41:18Z</time>
      </trkpt>
      <trkpt lat="43.94657" lon="5.2754">
        <ele>333</ele>
        <time>2019-10-02T07:41:26Z</time>
      </trkpt>
      <trkpt lat="43.94662" lon="5.27514">
        <ele>335</ele>
        <time>2019-10-02T07:41:42Z</time>
      </trkpt>
      <trkpt lat="43.94665" lon="5.275">
        <ele>335</ele>
        <time>2019-10-02T07:41:49Z</time>
      </trkpt>
      <trkpt lat="43.94669" lon="5.27488">
        <ele>336</ele>
        <time>2019-10-02T07:41:57Z</time>
      </trkpt>
      <trkpt lat="43.94672" lon="5.27476">
        <ele>336</ele>
        <time>2019-10-02T07:42:04Z</time>
      </trkpt>
      <trkpt lat="43.94676" lon="5.27465">
        <ele>336</ele>
        <time>2019-10-02T07:42:11Z</time>
      </trkpt>
      <trkpt lat="43.94681" lon="5.27453">
        <ele>337</ele>
        <time>2019-10-02T07:42:19Z</time>
      </trkpt>
      <trkpt lat="43.94685" lon="5.27441">
        <ele>337</ele>
        <time>2019-10-02T07:42:26Z</time>
      </trkpt>
      <trkpt lat="43.94692" lon="5.27431">
        <ele>338</ele>
        <time>2019-10-02T07:42:32Z</time>
      </trkpt>
      <trkpt lat="43.94696" lon="5.2742">
        <ele>338</ele>
        <time>2019-10-02T07:42:39Z</time>
      </trkpt>
      <trkpt lat="43.94699" lon="5.27408">
        <ele>338</ele>
        <time>2019-10-02T07:42:47Z</time>
      </trkpt>
      <trkpt lat="43.94702" lon="5.27396">
        <ele>339</ele>
        <time>2019-10-02T07:42:54Z</time>
      </trkpt>
      <trkpt lat="43.94705" lon="5.27382">
        <ele>338</ele>
        <time>2019-10-02T07:43:02Z</time>
      </trkpt>
      <trkpt lat="43.94708" lon="5.2737">
        <ele>338</ele>
        <time>2019-10-02T07:43:09Z</time>
      </trkpt>
      <trkpt lat="43.94711" lon="5.27357">
        <ele>337</ele>
        <time>2019-10-02T07:43:16Z</time>
      </trkpt>
      <trkpt lat="43.94716" lon="5.27346">
        <ele>337</ele>
        <time>2019-10-02T07:43:22Z</time>
      </trkpt>
      <trkpt lat="43.9472" lon="5.27333">
        <ele>338</ele>
        <time>2019-10-02T07:43:30Z</time>
      </trkpt>
      <trkpt lat="43.94726" lon="5.27321">
        <ele>338</ele>
        <time>2019-10-02T07:43:36Z</time>
      </trkpt>
      <trkpt lat="43.94729" lon="5.27309">
        <ele>339</ele>
        <time>2019-10-02T07:43:42Z</time>
      </trkpt>
      <trkpt lat="43.94731" lon="5.27295">
        <ele>339</ele>
        <time>2019-10-02T07:43:50Z</time>
      </trkpt>
      <trkpt lat="43.9473" lon="5.27282">
        <ele>339</ele>
        <time>2019-10-02T07:43:57Z</time>
      </trkpt>
      <trkpt lat="43.9473" lon="5.27268">
        <ele>339</ele>
        <time>2019-10-02T07:44:05Z</time>
      </trkpt>
      <trkpt lat="43.94726" lon="5.27256">
        <ele>340</ele>
        <time>2019-10-02T07:44:16Z</time>
      </trkpt>
      <trkpt lat="43.94719" lon="5.27248">
        <ele>340</ele>
        <time>2019-10-02T07:44:25Z</time>
      </trkpt>
      <trkpt lat="43.94712" lon="5.27238">
        <ele>340</ele>
        <time>2019-10-02T07:44:33Z</time>
      </trkpt>
      <trkpt lat="43.9471" lon="5.27223">
        <ele>340</ele>
        <time>2019-10-02T07:44:44Z</time>
      </trkpt>
      <trkpt lat="43.94705" lon="5.27211">
        <ele>341</ele>
        <time>2019-10-02T07:44:55Z</time>
      </trkpt>
      <trkpt lat="43.94696" lon="5.27207">
        <ele>341</ele>
        <time>2019-10-02T07:45:07Z</time>
      </trkpt>
      <trkpt lat="43.94687" lon="5.27202">
        <ele>340</ele>
        <time>2019-10-02T07:45:25Z</time>
      </trkpt>
      <trkpt lat="43.94691" lon="5.2719">
        <ele>341</ele>
        <time>2019-10-02T07:46:24Z</time>
      </trkpt>
      <trkpt lat="43.94688" lon="5.27177">
        <ele>342</ele>
        <time>2019-10-02T07:48:48Z</time>
      </trkpt>
      <trkpt lat="43.9468" lon="5.27171">
        <ele>342</ele>
        <time>2019-10-02T07:49:01Z</time>
      </trkpt>
      <trkpt lat="43.9467" lon="5.27173">
        <ele>341</ele>
        <time>2019-10-02T07:49:08Z</time>
      </trkpt>
      <trkpt lat="43.94661" lon="5.27168">
        <ele>340</ele>
        <time>2019-10-02T07:49:15Z</time>
      </trkpt>
      <trkpt lat="43.94653" lon="5.27162">
        <ele>339</ele>
        <time>2019-10-02T07:49:24Z</time>
      </trkpt>
      <trkpt lat="43.94644" lon="5.27155">
        <ele>339</ele>
        <time>2019-10-02T07:49:31Z</time>
      </trkpt>
      <trkpt lat="43.94638" lon="5.27143">
        <ele>338</ele>
        <time>2019-10-02T07:49:41Z</time>
      </trkpt>
      <trkpt lat="43.94634" lon="5.27131">
        <ele>338</ele>
        <time>2019-10-02T07:49:50Z</time>
      </trkpt>
      <trkpt lat="43.94626" lon="5.27127">
        <ele>337</ele>
        <time>2019-10-02T07:49:58Z</time>
      </trkpt>
      <trkpt lat="43.94617" lon="5.27124">
        <ele>336</ele>
        <time>2019-10-02T07:50:05Z</time>
      </trkpt>
      <trkpt lat="43.94609" lon="5.27118">
        <ele>335</ele>
        <time>2019-10-02T07:50:36Z</time>
      </trkpt>
      <trkpt lat="43.94608" lon="5.27103">
        <ele>335</ele>
        <time>2019-10-02T07:50:47Z</time>
      </trkpt>
      <trkpt lat="43.94605" lon="5.2709">
        <ele>335</ele>
        <time>2019-10-02T07:50:56Z</time>
      </trkpt>
      <trkpt lat="43.94603" lon="5.27064">
        <ele>335</ele>
        <time>2019-10-02T07:51:13Z</time>
      </trkpt>
      <trkpt lat="43.94604" lon="5.27051">
        <ele>335</ele>
        <time>2019-10-02T07:51:22Z</time>
      </trkpt>
      <trkpt lat="43.94596" lon="5.27044">
        <ele>333</ele>
        <time>2019-10-02T07:52:16Z</time>
      </trkpt>
      <trkpt lat="43.94586" lon="5.2704">
        <ele>332</ele>
        <time>2019-10-02T07:52:26Z</time>
      </trkpt>
      <trkpt lat="43.94581" lon="5.2703">
        <ele>331</ele>
        <time>2019-10-02T07:52:43Z</time>
      </trkpt>
      <trkpt lat="43.94588" lon="5.27039">
        <ele>332</ele>
        <time>2019-10-02T07:53:27Z</time>
      </trkpt>
      <trkpt lat="43.94597" lon="5.27045">
        <ele>332</ele>
        <time>2019-10-02T07:53:39Z</time>
      </trkpt>
      <trkpt lat="43.94603" lon="5.27054">
        <ele>334</ele>
        <time>2019-10-02T07:53:48Z</time>
      </trkpt>
      <trkpt lat="43.94604" lon="5.27068">
        <ele>335</ele>
        <time>2019-10-02T07:53:58Z</time>
      </trkpt>
      <trkpt lat="43.94606" lon="5.2708">
        <ele>335</ele>
        <time>2019-10-02T07:54:06Z</time>
      </trkpt>
      <trkpt lat="43.94608" lon="5.27093">
        <ele>335</ele>
        <time>2019-10-02T07:54:17Z</time>
      </trkpt>
      <trkpt lat="43.94611" lon="5.27106">
        <ele>335</ele>
        <time>2019-10-02T07:54:27Z</time>
      </trkpt>
      <trkpt lat="43.9461" lon="5.27119">
        <ele>335</ele>
        <time>2019-10-02T07:54:37Z</time>
      </trkpt>
      <trkpt lat="43.94601" lon="5.27122">
        <ele>335</ele>
        <time>2019-10-02T07:54:48Z</time>
      </trkpt>
      <trkpt lat="43.94591" lon="5.27124">
        <ele>334</ele>
        <time>2019-10-02T07:54:57Z</time>
      </trkpt>
      <trkpt lat="43.94582" lon="5.27129">
        <ele>333</ele>
        <time>2019-10-02T07:55:08Z</time>
      </trkpt>
      <trkpt lat="43.94573" lon="5.27131">
        <ele>332</ele>
        <time>2019-10-02T07:55:19Z</time>
      </trkpt>
      <trkpt lat="43.94564" lon="5.2713">
        <ele>331</ele>
        <time>2019-10-02T07:55:29Z</time>
      </trkpt>
      <trkpt lat="43.94554" lon="5.2713">
        <ele>330</ele>
        <time>2019-10-02T07:55:41Z</time>
      </trkpt>
      <trkpt lat="43.94535" lon="5.27136">
        <ele>329</ele>
        <time>2019-10-02T07:56:04Z</time>
      </trkpt>
      <trkpt lat="43.94525" lon="5.27142">
        <ele>328</ele>
        <time>2019-10-02T07:56:12Z</time>
      </trkpt>
      <trkpt lat="43.94516" lon="5.27142">
        <ele>327</ele>
        <time>2019-10-02T07:56:25Z</time>
      </trkpt>
      <trkpt lat="43.94506" lon="5.27142">
        <ele>326</ele>
        <time>2019-10-02T07:57:09Z</time>
      </trkpt>
      <trkpt lat="43.94516" lon="5.2714">
        <ele>327</ele>
        <time>2019-10-02T07:58:52Z</time>
      </trkpt>
      <trkpt lat="43.94525" lon="5.27137">
        <ele>328</ele>
        <time>2019-10-02T07:59:00Z</time>
      </trkpt>
      <trkpt lat="43.94544" lon="5.2713">
        <ele>329</ele>
        <time>2019-10-02T07:59:21Z</time>
      </trkpt>
      <trkpt lat="43.94563" lon="5.27128">
        <ele>331</ele>
        <time>2019-10-02T07:59:39Z</time>
      </trkpt>
      <trkpt lat="43.94572" lon="5.27128">
        <ele>332</ele>
        <time>2019-10-02T07:59:48Z</time>
      </trkpt>
      <trkpt lat="43.94581" lon="5.27126">
        <ele>333</ele>
        <time>2019-10-02T07:59:56Z</time>
      </trkpt>
      <trkpt lat="43.94589" lon="5.27121">
        <ele>333</ele>
        <time>2019-10-02T08:00:04Z</time>
      </trkpt>
      <trkpt lat="43.94599" lon="5.27117">
        <ele>334</ele>
        <time>2019-10-02T08:00:14Z</time>
      </trkpt>
      <trkpt lat="43.94609" lon="5.27117">
        <ele>335</ele>
        <time>2019-10-02T08:00:24Z</time>
      </trkpt>
      <trkpt lat="43.94616" lon="5.27118">
        <ele>336</ele>
        <time>2019-10-02T08:01:02Z</time>
      </trkpt>
      <trkpt lat="43.94616" lon="5.27118">
        <ele>336</ele>
        <time>2019-10-02T08:01:08Z</time>
      </trkpt>
      <trkpt lat="43.94617" lon="5.27119">
        <ele>336</ele>
        <time>2019-10-02T08:01:12Z</time>
      </trkpt>
      <trkpt lat="43.94618" lon="5.2712">
        <ele>336</ele>
        <time>2019-10-02T08:01:30Z</time>
      </trkpt>
      <trkpt lat="43.94618" lon="5.27119">
        <ele>336</ele>
        <time>2019-10-02T08:01:34Z</time>
      </trkpt>
      <trkpt lat="43.9462" lon="5.27124">
        <ele>336</ele>
        <time>2019-10-02T08:01:38Z</time>
      </trkpt>
      <trkpt lat="43.9462" lon="5.27125">
        <ele>336</ele>
        <time>2019-10-02T08:01:44Z</time>
      </trkpt>
      <trkpt lat="43.9462" lon="5.27125">
        <ele>336</ele>
        <time>2019-10-02T08:01:48Z</time>
      </trkpt>
      <trkpt lat="43.94621" lon="5.27125">
        <ele>336</ele>
        <time>2019-10-02T08:01:50Z</time>
      </trkpt>
      <trkpt lat="43.94621" lon="5.27123">
        <ele>336</ele>
        <time>2019-10-02T08:01:52Z</time>
      </trkpt>
      <trkpt lat="43.94621" lon="5.27124">
        <ele>336</ele>
        <time>2019-10-02T08:01:54Z</time>
      </trkpt>
      <trkpt lat="43.94622" lon="5.27123">
        <ele>336</ele>
        <time>2019-10-02T08:01:56Z</time>
      </trkpt>
      <trkpt lat="43.94622" lon="5.27122">
        <ele>336</ele>
        <time>2019-10-02T08:01:58Z</time>
      </trkpt>
      <trkpt lat="43.94622" lon="5.27123">
        <ele>336</ele>
        <time>2019-10-02T08:02:02Z</time>
      </trkpt>
      <trkpt lat="43.94622" lon="5.27122">
        <ele>336</ele>
        <time>2019-10-02T08:02:18Z</time>
      </trkpt>
      <trkpt lat="43.94631" lon="5.27126">
        <ele>337</ele>
        <time>2019-10-02T08:02:20Z</time>
      </trkpt>
      <trkpt lat="43.94633" lon="5.2713">
        <ele>337</ele>
        <time>2019-10-02T08:02:24Z</time>
      </trkpt>
      <trkpt lat="43.94635" lon="5.2713">
        <ele>338</ele>
        <time>2019-10-02T08:02:26Z</time>
      </trkpt>
      <trkpt lat="43.94636" lon="5.27128">
        <ele>338</ele>
        <time>2019-10-02T08:02:28Z</time>
      </trkpt>
      <trkpt lat="43.94644" lon="5.27128">
        <ele>338</ele>
        <time>2019-10-02T08:02:34Z</time>
      </trkpt>
      <trkpt lat="43.94649" lon="5.27125">
        <ele>339</ele>
        <time>2019-10-02T08:02:38Z</time>
      </trkpt>
      <trkpt lat="43.94653" lon="5.27126">
        <ele>339</ele>
        <time>2019-10-02T08:02:42Z</time>
      </trkpt>
      <trkpt lat="43.94654" lon="5.27125">
        <ele>339</ele>
        <time>2019-10-02T08:02:44Z</time>
      </trkpt>
      <trkpt lat="43.94658" lon="5.27123">
        <ele>340</ele>
        <time>2019-10-02T08:02:48Z</time>
      </trkpt>
      <trkpt lat="43.94664" lon="5.27122">
        <ele>340</ele>
        <time>2019-10-02T08:02:52Z</time>
      </trkpt>
      <trkpt lat="43.94667" lon="5.2712">
        <ele>340</ele>
        <time>2019-10-02T08:02:56Z</time>
      </trkpt>
      <trkpt lat="43.94668" lon="5.2712">
        <ele>341</ele>
        <time>2019-10-02T08:03:00Z</time>
      </trkpt>
      <trkpt lat="43.94668" lon="5.2712">
        <ele>341</ele>
        <time>2019-10-02T08:03:08Z</time>
      </trkpt>
      <trkpt lat="43.94668" lon="5.27119">
        <ele>341</ele>
        <time>2019-10-02T08:03:14Z</time>
      </trkpt>
      <trkpt lat="43.94674" lon="5.27108">
        <ele>341</ele>
        <time>2019-10-02T08:03:34Z</time>
      </trkpt>
      <trkpt lat="43.94671" lon="5.27095">
        <ele>341</ele>
        <time>2019-10-02T08:03:44Z</time>
      </trkpt>
      <trkpt lat="43.94669" lon="5.27082">
        <ele>341</ele>
        <time>2019-10-02T08:03:48Z</time>
      </trkpt>
      <trkpt lat="43.94666" lon="5.2707">
        <ele>339</ele>
        <time>2019-10-02T08:03:57Z</time>
      </trkpt>
      <trkpt lat="43.94663" lon="5.27059">
        <ele>338</ele>
        <time>2019-10-02T08:04:05Z</time>
      </trkpt>
      <trkpt lat="43.94661" lon="5.27046">
        <ele>336</ele>
        <time>2019-10-02T08:04:16Z</time>
      </trkpt>
      <trkpt lat="43.94662" lon="5.27033">
        <ele>333</ele>
        <time>2019-10-02T08:04:31Z</time>
      </trkpt>
      <trkpt lat="43.94659" lon="5.2702">
        <ele>331</ele>
        <time>2019-10-02T08:04:48Z</time>
      </trkpt>
      <trkpt lat="43.94651" lon="5.27013">
        <ele>328</ele>
        <time>2019-10-02T08:05:19Z</time>
      </trkpt>
      <trkpt lat="43.94643" lon="5.27008">
        <ele>326</ele>
        <time>2019-10-02T08:05:32Z</time>
      </trkpt>
      <trkpt lat="43.94638" lon="5.26997">
        <ele>323</ele>
        <time>2019-10-02T08:05:55Z</time>
      </trkpt>
      <trkpt lat="43.94639" lon="5.26984">
        <ele>323</ele>
        <time>2019-10-02T08:07:10Z</time>
      </trkpt>
      <trkpt lat="43.94651" lon="5.26998">
        <ele>323</ele>
        <time>2019-10-02T08:08:56Z</time>
      </trkpt>
      <trkpt lat="43.94642" lon="5.26991">
        <ele>324</ele>
        <time>2019-10-02T08:09:23Z</time>
      </trkpt>
      <trkpt lat="43.94641" lon="5.26978">
        <ele>323</ele>
        <time>2019-10-02T08:09:45Z</time>
      </trkpt>
      <trkpt lat="43.94647" lon="5.26967">
        <ele>325</ele>
        <time>2019-10-02T08:09:54Z</time>
      </trkpt>
      <trkpt lat="43.94648" lon="5.26954">
        <ele>327</ele>
        <time>2019-10-02T08:10:10Z</time>
      </trkpt>
      <trkpt lat="43.94651" lon="5.26942">
        <ele>328</ele>
        <time>2019-10-02T08:10:20Z</time>
      </trkpt>
      <trkpt lat="43.94657" lon="5.2693">
        <ele>330</ele>
        <time>2019-10-02T08:10:34Z</time>
      </trkpt>
      <trkpt lat="43.94664" lon="5.2692">
        <ele>331</ele>
        <time>2019-10-02T08:10:52Z</time>
      </trkpt>
      <trkpt lat="43.94673" lon="5.26913">
        <ele>331</ele>
        <time>2019-10-02T08:11:07Z</time>
      </trkpt>
      <trkpt lat="43.94682" lon="5.26914">
        <ele>332</ele>
        <time>2019-10-02T08:11:24Z</time>
      </trkpt>
      <trkpt lat="43.9469" lon="5.2691">
        <ele>333</ele>
        <time>2019-10-02T08:11:32Z</time>
      </trkpt>
      <trkpt lat="43.94699" lon="5.26904">
        <ele>333</ele>
        <time>2019-10-02T08:11:43Z</time>
      </trkpt>
      <trkpt lat="43.94708" lon="5.26899">
        <ele>335</ele>
        <time>2019-10-02T08:11:58Z</time>
      </trkpt>
      <trkpt lat="43.94712" lon="5.26888">
        <ele>334</ele>
        <time>2019-10-02T08:12:12Z</time>
      </trkpt>
      <trkpt lat="43.94718" lon="5.26877">
        <ele>335</ele>
        <time>2019-10-02T08:12:25Z</time>
      </trkpt>
      <trkpt lat="43.94724" lon="5.26867">
        <ele>334</ele>
        <time>2019-10-02T08:12:43Z</time>
      </trkpt>
      <trkpt lat="43.94727" lon="5.26854">
        <ele>334</ele>
        <time>2019-10-02T08:13:03Z</time>
      </trkpt>
      <trkpt lat="43.94731" lon="5.26843">
        <ele>335</ele>
        <time>2019-10-02T08:13:16Z</time>
      </trkpt>
      <trkpt lat="43.94738" lon="5.26833">
        <ele>336</ele>
        <time>2019-10-02T08:13:23Z</time>
      </trkpt>
      <trkpt lat="43.94742" lon="5.26822">
        <ele>336</ele>
        <time>2019-10-02T08:13:35Z</time>
      </trkpt>
      <trkpt lat="43.94747" lon="5.26809">
        <ele>336</ele>
        <time>2019-10-02T08:14:31Z</time>
      </trkpt>
      <trkpt lat="43.94754" lon="5.268">
        <ele>337</ele>
        <time>2019-10-02T08:14:40Z</time>
      </trkpt>
      <trkpt lat="43.94761" lon="5.26791">
        <ele>339</ele>
        <time>2019-10-02T08:14:50Z</time>
      </trkpt>
      <trkpt lat="43.94763" lon="5.26778">
        <ele>340</ele>
        <time>2019-10-02T08:15:09Z</time>
      </trkpt>
      <trkpt lat="43.94765" lon="5.26766">
        <ele>341</ele>
        <time>2019-10-02T08:16:38Z</time>
      </trkpt>
      <trkpt lat="43.94768" lon="5.26761">
        <ele>341</ele>
        <time>2019-10-02T08:17:18Z</time>
      </trkpt>
      <trkpt lat="43.9477" lon="5.26749">
        <ele>341</ele>
        <time>2019-10-02T08:17:35Z</time>
      </trkpt>
      <trkpt lat="43.94777" lon="5.26739">
        <ele>341</ele>
        <time>2019-10-02T08:17:48Z</time>
      </trkpt>
      <trkpt lat="43.9478" lon="5.26727">
        <ele>341</ele>
        <time>2019-10-02T08:18:00Z</time>
      </trkpt>
      <trkpt lat="43.94781" lon="5.26714">
        <ele>342</ele>
        <time>2019-10-02T08:18:15Z</time>
      </trkpt>
      <trkpt lat="43.94784" lon="5.26702">
        <ele>343</ele>
        <time>2019-10-02T08:18:27Z</time>
      </trkpt>
      <trkpt lat="43.94788" lon="5.2669">
        <ele>344</ele>
        <time>2019-10-02T08:18:47Z</time>
      </trkpt>
      <trkpt lat="43.94787" lon="5.26677">
        <ele>344</ele>
        <time>2019-10-02T08:18:57Z</time>
      </trkpt>
      <trkpt lat="43.94788" lon="5.26664">
        <ele>345</ele>
        <time>2019-10-02T08:19:09Z</time>
      </trkpt>
      <trkpt lat="43.9479" lon="5.26651">
        <ele>346</ele>
        <time>2019-10-02T08:19:21Z</time>
      </trkpt>
      <trkpt lat="43.94797" lon="5.26641">
        <ele>347</ele>
        <time>2019-10-02T08:19:35Z</time>
      </trkpt>
      <trkpt lat="43.94803" lon="5.26632">
        <ele>347</ele>
        <time>2019-10-02T08:19:50Z</time>
      </trkpt>
      <trkpt lat="43.94806" lon="5.2662">
        <ele>347</ele>
        <time>2019-10-02T08:20:04Z</time>
      </trkpt>
      <trkpt lat="43.9481" lon="5.26608">
        <ele>348</ele>
        <time>2019-10-02T08:20:22Z</time>
      </trkpt>
      <trkpt lat="43.94826" lon="5.26594">
        <ele>349</ele>
        <time>2019-10-02T08:20:45Z</time>
      </trkpt>
      <trkpt lat="43.94835" lon="5.26586">
        <ele>350</ele>
        <time>2019-10-02T08:21:02Z</time>
      </trkpt>
      <trkpt lat="43.94844" lon="5.26585">
        <ele>349</ele>
        <time>2019-10-02T08:21:10Z</time>
      </trkpt>
      <trkpt lat="43.94854" lon="5.26583">
        <ele>347</ele>
        <time>2019-10-02T08:21:18Z</time>
      </trkpt>
      <trkpt lat="43.94863" lon="5.26578">
        <ele>347</ele>
        <time>2019-10-02T08:21:30Z</time>
      </trkpt>
      <trkpt lat="43.94872" lon="5.26576">
        <ele>348</ele>
        <time>2019-10-02T08:21:47Z</time>
      </trkpt>
      <trkpt lat="43.94881" lon="5.26574">
        <ele>349</ele>
        <time>2019-10-02T08:21:55Z</time>
      </trkpt>
      <trkpt lat="43.9489" lon="5.2657">
        <ele>350</ele>
        <time>2019-10-02T08:22:08Z</time>
      </trkpt>
      <trkpt lat="43.949" lon="5.26565">
        <ele>352</ele>
        <time>2019-10-02T08:22:23Z</time>
      </trkpt>
      <trkpt lat="43.94909" lon="5.26562">
        <ele>352</ele>
        <time>2019-10-02T08:23:08Z</time>
      </trkpt>
      <trkpt lat="43.94915" lon="5.26571">
        <ele>352</ele>
        <time>2019-10-02T08:23:38Z</time>
      </trkpt>
      <trkpt lat="43.94921" lon="5.26562">
        <ele>353</ele>
        <time>2019-10-02T08:24:08Z</time>
      </trkpt>
      <trkpt lat="43.9493" lon="5.26564">
        <ele>353</ele>
        <time>2019-10-02T08:24:26Z</time>
      </trkpt>
      <trkpt lat="43.9494" lon="5.26565">
        <ele>354</ele>
        <time>2019-10-02T08:24:45Z</time>
      </trkpt>
      <trkpt lat="43.94949" lon="5.26565">
        <ele>354</ele>
        <time>2019-10-02T08:24:58Z</time>
      </trkpt>
      <trkpt lat="43.94958" lon="5.26562">
        <ele>355</ele>
        <time>2019-10-02T08:25:13Z</time>
      </trkpt>
      <trkpt lat="43.94968" lon="5.26562">
        <ele>356</ele>
        <time>2019-10-02T08:25:31Z</time>
      </trkpt>
      <trkpt lat="43.94976" lon="5.26559">
        <ele>356</ele>
        <time>2019-10-02T08:25:46Z</time>
      </trkpt>
      <trkpt lat="43.94985" lon="5.26556">
        <ele>356</ele>
        <time>2019-10-02T08:26:12Z</time>
      </trkpt>
      <trkpt lat="43.94994" lon="5.26555">
        <ele>356</ele>
        <time>2019-10-02T08:26:24Z</time>
      </trkpt>
      <trkpt lat="43.95004" lon="5.26558">
        <ele>356</ele>
        <time>2019-10-02T08:26:34Z</time>
      </trkpt>
      <trkpt lat="43.95013" lon="5.26562">
        <ele>358</ele>
        <time>2019-10-02T08:26:51Z</time>
      </trkpt>
      <trkpt lat="43.95019" lon="5.26571">
        <ele>359</ele>
        <time>2019-10-02T08:27:06Z</time>
      </trkpt>
      <trkpt lat="43.95023" lon="5.26584">
        <ele>359</ele>
        <time>2019-10-02T08:27:23Z</time>
      </trkpt>
      <trkpt lat="43.9503" lon="5.26592">
        <ele>361</ele>
        <time>2019-10-02T08:27:48Z</time>
      </trkpt>
      <trkpt lat="43.9504" lon="5.26594">
        <ele>363</ele>
        <time>2019-10-02T08:27:56Z</time>
      </trkpt>
      <trkpt lat="43.95049" lon="5.26591">
        <ele>362</ele>
        <time>2019-10-02T08:28:06Z</time>
      </trkpt>
      <trkpt lat="43.95057" lon="5.26581">
        <ele>358</ele>
        <time>2019-10-02T08:28:48Z</time>
      </trkpt>
      <trkpt lat="43.95061" lon="5.26578">
        <ele>360</ele>
        <time>2019-10-02T08:29:00Z</time>
      </trkpt>
      <trkpt lat="43.95071" lon="5.26575">
        <ele>361</ele>
        <time>2019-10-02T08:29:18Z</time>
      </trkpt>
      <trkpt lat="43.95081" lon="5.26578">
        <ele>362</ele>
        <time>2019-10-02T08:29:34Z</time>
      </trkpt>
      <trkpt lat="43.9509" lon="5.26577">
        <ele>363</ele>
        <time>2019-10-02T08:29:46Z</time>
      </trkpt>
      <trkpt lat="43.95099" lon="5.26573">
        <ele>365</ele>
        <time>2019-10-02T08:29:56Z</time>
      </trkpt>
      <trkpt lat="43.95108" lon="5.26571">
        <ele>367</ele>
        <time>2019-10-02T08:30:11Z</time>
      </trkpt>
      <trkpt lat="43.95117" lon="5.26575">
        <ele>368</ele>
        <time>2019-10-02T08:30:30Z</time>
      </trkpt>
      <trkpt lat="43.95126" lon="5.26574">
        <ele>368</ele>
        <time>2019-10-02T08:30:46Z</time>
      </trkpt>
      <trkpt lat="43.95134" lon="5.26568">
        <ele>368</ele>
        <time>2019-10-02T08:30:55Z</time>
      </trkpt>
      <trkpt lat="43.95141" lon="5.26561">
        <ele>367</ele>
        <time>2019-10-02T08:31:13Z</time>
      </trkpt>
      <trkpt lat="43.95151" lon="5.26557">
        <ele>366</ele>
        <time>2019-10-02T08:31:26Z</time>
      </trkpt>
      <trkpt lat="43.9516" lon="5.26554">
        <ele>366</ele>
        <time>2019-10-02T08:31:41Z</time>
      </trkpt>
      <trkpt lat="43.95168" lon="5.26547">
        <ele>370</ele>
        <time>2019-10-02T08:31:53Z</time>
      </trkpt>
      <trkpt lat="43.95174" lon="5.26537">
        <ele>370</ele>
        <time>2019-10-02T08:32:12Z</time>
      </trkpt>
      <trkpt lat="43.95183" lon="5.26538">
        <ele>373</ele>
        <time>2019-10-02T08:32:39Z</time>
      </trkpt>
      <trkpt lat="43.95192" lon="5.26535">
        <ele>373</ele>
        <time>2019-10-02T08:32:59Z</time>
      </trkpt>
      <trkpt lat="43.95202" lon="5.26534">
        <ele>375</ele>
        <time>2019-10-02T08:33:14Z</time>
      </trkpt>
      <trkpt lat="43.95211" lon="5.26532">
        <ele>376</ele>
        <time>2019-10-02T08:33:27Z</time>
      </trkpt>
      <trkpt lat="43.95221" lon="5.26533">
        <ele>376</ele>
        <time>2019-10-02T08:33:39Z</time>
      </trkpt>
      <trkpt lat="43.9523" lon="5.26537">
        <ele>377</ele>
        <time>2019-10-02T08:33:53Z</time>
      </trkpt>
      <trkpt lat="43.95238" lon="5.26542">
        <ele>376</ele>
        <time>2019-10-02T08:34:01Z</time>
      </trkpt>
      <trkpt lat="43.95247" lon="5.26547">
        <ele>375</ele>
        <time>2019-10-02T08:34:16Z</time>
      </trkpt>
      <trkpt lat="43.95257" lon="5.2655">
        <ele>374</ele>
        <time>2019-10-02T08:34:28Z</time>
      </trkpt>
      <trkpt lat="43.95266" lon="5.26555">
        <ele>372</ele>
        <time>2019-10-02T08:34:50Z</time>
      </trkpt>
      <trkpt lat="43.95274" lon="5.26562">
        <ele>375</ele>
        <time>2019-10-02T08:35:11Z</time>
      </trkpt>
      <trkpt lat="43.95282" lon="5.26567">
        <ele>378</ele>
        <time>2019-10-02T08:35:35Z</time>
      </trkpt>
      <trkpt lat="43.95291" lon="5.26567">
        <ele>378</ele>
        <time>2019-10-02T08:36:01Z</time>
      </trkpt>
      <trkpt lat="43.95302" lon="5.26568">
        <ele>378</ele>
        <time>2019-10-02T08:36:12Z</time>
      </trkpt>
      <trkpt lat="43.95309" lon="5.26562">
        <ele>378</ele>
        <time>2019-10-02T08:36:18Z</time>
      </trkpt>
      <trkpt lat="43.95319" lon="5.26558">
        <ele>376</ele>
        <time>2019-10-02T08:36:45Z</time>
      </trkpt>
      <trkpt lat="43.95328" lon="5.26556">
        <ele>376</ele>
        <time>2019-10-02T08:37:02Z</time>
      </trkpt>
      <trkpt lat="43.95337" lon="5.26549">
        <ele>378</ele>
        <time>2019-10-02T08:37:34Z</time>
      </trkpt>
      <trkpt lat="43.95346" lon="5.26544">
        <ele>382</ele>
        <time>2019-10-02T08:37:49Z</time>
      </trkpt>
      <trkpt lat="43.95356" lon="5.26546">
        <ele>382</ele>
        <time>2019-10-02T08:38:06Z</time>
      </trkpt>
      <trkpt lat="43.95364" lon="5.26542">
        <ele>384</ele>
        <time>2019-10-02T08:38:19Z</time>
      </trkpt>
      <trkpt lat="43.95374" lon="5.26546">
        <ele>383</ele>
        <time>2019-10-02T08:38:28Z</time>
      </trkpt>
      <trkpt lat="43.95383" lon="5.26548">
        <ele>383</ele>
        <time>2019-10-02T08:38:48Z</time>
      </trkpt>
      <trkpt lat="43.95391" lon="5.26556">
        <ele>381</ele>
        <time>2019-10-02T08:38:57Z</time>
      </trkpt>
      <trkpt lat="43.95399" lon="5.26562">
        <ele>382</ele>
        <time>2019-10-02T08:39:34Z</time>
      </trkpt>
      <trkpt lat="43.95404" lon="5.26565">
        <ele>383</ele>
        <time>2019-10-02T08:39:44Z</time>
      </trkpt>
      <trkpt lat="43.95412" lon="5.26574">
        <ele>383</ele>
        <time>2019-10-02T08:39:56Z</time>
      </trkpt>
      <trkpt lat="43.9542" lon="5.26581">
        <ele>383</ele>
        <time>2019-10-02T08:40:27Z</time>
      </trkpt>
      <trkpt lat="43.95425" lon="5.26597">
        <ele>388</ele>
        <time>2019-10-02T08:40:47Z</time>
      </trkpt>
      <trkpt lat="43.95431" lon="5.26607">
        <ele>389</ele>
        <time>2019-10-02T08:40:55Z</time>
      </trkpt>
      <trkpt lat="43.95438" lon="5.26615">
        <ele>389</ele>
        <time>2019-10-02T08:41:11Z</time>
      </trkpt>
      <trkpt lat="43.9544" lon="5.26619">
        <ele>389</ele>
        <time>2019-10-02T08:41:18Z</time>
      </trkpt>
      <trkpt lat="43.95449" lon="5.26623">
        <ele>388</ele>
        <time>2019-10-02T08:41:34Z</time>
      </trkpt>
      <trkpt lat="43.95458" lon="5.26625">
        <ele>387</ele>
        <time>2019-10-02T08:41:47Z</time>
      </trkpt>
      <trkpt lat="43.9546" lon="5.26627">
        <ele>387</ele>
        <time>2019-10-02T08:41:50Z</time>
      </trkpt>
      <trkpt lat="43.9547" lon="5.26629">
        <ele>385</ele>
        <time>2019-10-02T08:42:01Z</time>
      </trkpt>
      <trkpt lat="43.95479" lon="5.26632">
        <ele>386</ele>
        <time>2019-10-02T08:42:09Z</time>
      </trkpt>
      <trkpt lat="43.95489" lon="5.26641">
        <ele>386</ele>
        <time>2019-10-02T08:42:22Z</time>
      </trkpt>
      <trkpt lat="43.95497" lon="5.26647">
        <ele>387</ele>
        <time>2019-10-02T08:42:47Z</time>
      </trkpt>
      <trkpt lat="43.95504" lon="5.26656">
        <ele>387</ele>
        <time>2019-10-02T08:42:57Z</time>
      </trkpt>
      <trkpt lat="43.95513" lon="5.26657">
        <ele>388</ele>
        <time>2019-10-02T08:43:06Z</time>
      </trkpt>
      <trkpt lat="43.95522" lon="5.26662">
        <ele>389</ele>
        <time>2019-10-02T08:43:24Z</time>
      </trkpt>
      <trkpt lat="43.95532" lon="5.2666">
        <ele>389</ele>
        <time>2019-10-02T08:43:50Z</time>
      </trkpt>
      <trkpt lat="43.95541" lon="5.26665">
        <ele>390</ele>
        <time>2019-10-02T08:44:14Z</time>
      </trkpt>
      <trkpt lat="43.9555" lon="5.26666">
        <ele>390</ele>
        <time>2019-10-02T08:44:25Z</time>
      </trkpt>
      <trkpt lat="43.95559" lon="5.26668">
        <ele>391</ele>
        <time>2019-10-02T08:44:34Z</time>
      </trkpt>
      <trkpt lat="43.95568" lon="5.26673">
        <ele>392</ele>
        <time>2019-10-02T08:44:47Z</time>
      </trkpt>
      <trkpt lat="43.95575" lon="5.26681">
        <ele>394</ele>
        <time>2019-10-02T08:44:59Z</time>
      </trkpt>
      <trkpt lat="43.95576" lon="5.26682">
        <ele>394</ele>
        <time>2019-10-02T08:45:04Z</time>
      </trkpt>
      <trkpt lat="43.95585" lon="5.26683">
        <ele>395</ele>
        <time>2019-10-02T08:45:35Z</time>
      </trkpt>
      <trkpt lat="43.95593" lon="5.26675">
        <ele>394</ele>
        <time>2019-10-02T08:45:49Z</time>
      </trkpt>
      <trkpt lat="43.95603" lon="5.26675">
        <ele>395</ele>
        <time>2019-10-02T08:46:03Z</time>
      </trkpt>
      <trkpt lat="43.95613" lon="5.26673">
        <ele>395</ele>
        <time>2019-10-02T08:46:14Z</time>
      </trkpt>
      <trkpt lat="43.95623" lon="5.26669">
        <ele>395</ele>
        <time>2019-10-02T08:46:20Z</time>
      </trkpt>
      <trkpt lat="43.95633" lon="5.26667">
        <ele>395</ele>
        <time>2019-10-02T08:46:32Z</time>
      </trkpt>
      <trkpt lat="43.95642" lon="5.26666">
        <ele>396</ele>
        <time>2019-10-02T08:46:48Z</time>
      </trkpt>
      <trkpt lat="43.95649" lon="5.26658">
        <ele>397</ele>
        <time>2019-10-02T08:47:00Z</time>
      </trkpt>
      <trkpt lat="43.95657" lon="5.26653">
        <ele>397</ele>
        <time>2019-10-02T08:47:22Z</time>
      </trkpt>
      <trkpt lat="43.95667" lon="5.26652">
        <ele>398</ele>
        <time>2019-10-02T08:47:46Z</time>
      </trkpt>
      <trkpt lat="43.95676" lon="5.26659">
        <ele>399</ele>
        <time>2019-10-02T08:47:57Z</time>
      </trkpt>
      <trkpt lat="43.95685" lon="5.26658">
        <ele>399</ele>
        <time>2019-10-02T08:48:13Z</time>
      </trkpt>
      <trkpt lat="43.95692" lon="5.26649">
        <ele>399</ele>
        <time>2019-10-02T08:48:28Z</time>
      </trkpt>
      <trkpt lat="43.95699" lon="5.26642">
        <ele>399</ele>
        <time>2019-10-02T08:48:56Z</time>
      </trkpt>
      <trkpt lat="43.9571" lon="5.26642">
        <ele>401</ele>
        <time>2019-10-02T08:50:14Z</time>
      </trkpt>
      <trkpt lat="43.95717" lon="5.26651">
        <ele>402</ele>
        <time>2019-10-02T08:51:23Z</time>
      </trkpt>
      <trkpt lat="43.95722" lon="5.26641">
        <ele>403</ele>
        <time>2019-10-02T08:52:06Z</time>
      </trkpt>
      <trkpt lat="43.95722" lon="5.26648">
        <ele>403</ele>
        <time>2019-10-02T08:52:29Z</time>
      </trkpt>
      <trkpt lat="43.95729" lon="5.26656">
        <ele>405</ele>
        <time>2019-10-02T08:55:04Z</time>
      </trkpt>
      <trkpt lat="43.9573" lon="5.26669">
        <ele>405</ele>
        <time>2019-10-02T08:58:02Z</time>
      </trkpt>
      <trkpt lat="43.95734" lon="5.2668">
        <ele>407</ele>
        <time>2019-10-02T08:58:28Z</time>
      </trkpt>
      <trkpt lat="43.95732" lon="5.26686">
        <ele>407</ele>
        <time>2019-10-02T08:59:06Z</time>
      </trkpt>
      <trkpt lat="43.95731" lon="5.26692">
        <ele>403</ele>
        <time>2019-10-02T08:59:08Z</time>
      </trkpt>
      <trkpt lat="43.95736" lon="5.26698">
        <ele>397</ele>
        <time>2019-10-02T08:59:29Z</time>
      </trkpt>
      <trkpt lat="43.95738" lon="5.26699">
        <ele>396</ele>
        <time>2019-10-02T08:59:31Z</time>
      </trkpt>
      <trkpt lat="43.95737" lon="5.267">
        <ele>396</ele>
        <time>2019-10-02T08:59:33Z</time>
      </trkpt>
      <trkpt lat="43.95734" lon="5.26669">
        <ele>402</ele>
        <time>2019-10-02T09:01:45Z</time>
      </trkpt>
      <trkpt lat="43.95732" lon="5.26668">
        <ele>393</ele>
        <time>2019-10-02T09:02:06Z</time>
      </trkpt>
      <trkpt lat="43.9574" lon="5.26679">
        <ele>400</ele>
        <time>2019-10-02T09:02:12Z</time>
      </trkpt>
      <trkpt lat="43.95749" lon="5.26691">
        <ele>410</ele>
        <time>2019-10-02T09:02:15Z</time>
      </trkpt>
      <trkpt lat="43.95757" lon="5.267">
        <ele>412</ele>
        <time>2019-10-02T09:02:18Z</time>
      </trkpt>
      <trkpt lat="43.95765" lon="5.26709">
        <ele>409</ele>
        <time>2019-10-02T09:02:23Z</time>
      </trkpt>
      <trkpt lat="43.95756" lon="5.26695">
        <ele>416</ele>
        <time>2019-10-02T09:02:27Z</time>
      </trkpt>
      <trkpt lat="43.95749" lon="5.26685">
        <ele>400</ele>
        <time>2019-10-02T09:02:33Z</time>
      </trkpt>
      <trkpt lat="43.95739" lon="5.26678">
        <ele>407</ele>
        <time>2019-10-02T09:04:07Z</time>
      </trkpt>
      <trkpt lat="43.95736" lon="5.2669">
        <ele>409</ele>
        <time>2019-10-02T09:04:23Z</time>
      </trkpt>
      <trkpt lat="43.95741" lon="5.26703">
        <ele>415</ele>
        <time>2019-10-02T09:05:13Z</time>
      </trkpt>
      <trkpt lat="43.9575" lon="5.26707">
        <ele>419</ele>
        <time>2019-10-02T09:05:26Z</time>
      </trkpt>
      <trkpt lat="43.9576" lon="5.2669">
        <ele>411</ele>
        <time>2019-10-02T09:06:21Z</time>
      </trkpt>
      <trkpt lat="43.9576" lon="5.26675">
        <ele>410</ele>
        <time>2019-10-02T09:06:32Z</time>
      </trkpt>
      <trkpt lat="43.9576" lon="5.26688">
        <ele>410</ele>
        <time>2019-10-02T09:06:56Z</time>
      </trkpt>
      <trkpt lat="43.95766" lon="5.26697">
        <ele>412</ele>
        <time>2019-10-02T09:07:16Z</time>
      </trkpt>
      <trkpt lat="43.95776" lon="5.26695">
        <ele>411</ele>
        <time>2019-10-02T09:08:20Z</time>
      </trkpt>
      <trkpt lat="43.95785" lon="5.26692">
        <ele>411</ele>
        <time>2019-10-02T09:08:33Z</time>
      </trkpt>
      <trkpt lat="43.95795" lon="5.26692">
        <ele>412</ele>
        <time>2019-10-02T09:09:48Z</time>
      </trkpt>
      <trkpt lat="43.95804" lon="5.26695">
        <ele>414</ele>
        <time>2019-10-02T09:10:15Z</time>
      </trkpt>
      <trkpt lat="43.95804" lon="5.26708">
        <ele>433</ele>
        <time>2019-10-02T09:10:30Z</time>
      </trkpt>
      <trkpt lat="43.95812" lon="5.26705">
        <ele>420</ele>
        <time>2019-10-02T09:10:57Z</time>
      </trkpt>
      <trkpt lat="43.95816" lon="5.26693">
        <ele>414</ele>
        <time>2019-10-02T09:11:20Z</time>
      </trkpt>
      <trkpt lat="43.95822" lon="5.2668">
        <ele>414</ele>
        <time>2019-10-02T09:11:54Z</time>
      </trkpt>
      <trkpt lat="43.9582" lon="5.26677">
        <ele>413</ele>
        <time>2019-10-02T09:12:02Z</time>
      </trkpt>
      <trkpt lat="43.95827" lon="5.26669">
        <ele>413</ele>
        <time>2019-10-02T09:12:37Z</time>
      </trkpt>
      <trkpt lat="43.95835" lon="5.26675">
        <ele>414</ele>
        <time>2019-10-02T09:13:37Z</time>
      </trkpt>
      <trkpt lat="43.95845" lon="5.26676">
        <ele>416</ele>
        <time>2019-10-02T09:13:56Z</time>
      </trkpt>
      <trkpt lat="43.95853" lon="5.26671">
        <ele>416</ele>
        <time>2019-10-02T09:14:05Z</time>
      </trkpt>
      <trkpt lat="43.95862" lon="5.26667">
        <ele>416</ele>
        <time>2019-10-02T09:14:30Z</time>
      </trkpt>
      <trkpt lat="43.9587" lon="5.26674">
        <ele>418</ele>
        <time>2019-10-02T09:14:45Z</time>
      </trkpt>
      <trkpt lat="43.95878" lon="5.26682">
        <ele>420</ele>
        <time>2019-10-02T09:14:55Z</time>
      </trkpt>
      <trkpt lat="43.95886" lon="5.26692">
        <ele>427</ele>
        <time>2019-10-02T09:15:09Z</time>
      </trkpt>
      <trkpt lat="43.95888" lon="5.26694">
        <ele>426</ele>
        <time>2019-10-02T09:15:26Z</time>
      </trkpt>
      <trkpt lat="43.95897" lon="5.26697">
        <ele>429</ele>
        <time>2019-10-02T09:15:52Z</time>
      </trkpt>
      <trkpt lat="43.95905" lon="5.26691">
        <ele>431</ele>
        <time>2019-10-02T09:16:17Z</time>
      </trkpt>
      <trkpt lat="43.95906" lon="5.26678">
        <ele>427</ele>
        <time>2019-10-02T09:17:12Z</time>
      </trkpt>
      <trkpt lat="43.95915" lon="5.26674">
        <ele>429</ele>
        <time>2019-10-02T09:18:26Z</time>
      </trkpt>
      <trkpt lat="43.95917" lon="5.26672">
        <ele>428</ele>
        <time>2019-10-02T09:18:29Z</time>
      </trkpt>
      <trkpt lat="43.95926" lon="5.26674">
        <ele>431</ele>
        <time>2019-10-02T09:18:46Z</time>
      </trkpt>
      <trkpt lat="43.95932" lon="5.26663">
        <ele>428</ele>
        <time>2019-10-02T09:19:03Z</time>
      </trkpt>
      <trkpt lat="43.95941" lon="5.26661">
        <ele>429</ele>
        <time>2019-10-02T09:19:15Z</time>
      </trkpt>
      <trkpt lat="43.9595" lon="5.26663">
        <ele>431</ele>
        <time>2019-10-02T09:19:37Z</time>
      </trkpt>
      <trkpt lat="43.95959" lon="5.26658">
        <ele>431</ele>
        <time>2019-10-02T09:20:11Z</time>
      </trkpt>
      <trkpt lat="43.95967" lon="5.26652">
        <ele>430</ele>
        <time>2019-10-02T09:20:21Z</time>
      </trkpt>
      <trkpt lat="43.95967" lon="5.26639">
        <ele>426</ele>
        <time>2019-10-02T09:20:37Z</time>
      </trkpt>
      <trkpt lat="43.95976" lon="5.26643">
        <ele>428</ele>
        <time>2019-10-02T09:21:30Z</time>
      </trkpt>
      <trkpt lat="43.95986" lon="5.26641">
        <ele>429</ele>
        <time>2019-10-02T09:21:41Z</time>
      </trkpt>
      <trkpt lat="43.95993" lon="5.26633">
        <ele>430</ele>
        <time>2019-10-02T09:22:00Z</time>
      </trkpt>
      <trkpt lat="43.96002" lon="5.26628">
        <ele>430</ele>
        <time>2019-10-02T09:22:15Z</time>
      </trkpt>
      <trkpt lat="43.96007" lon="5.26616">
        <ele>429</ele>
        <time>2019-10-02T09:22:36Z</time>
      </trkpt>
      <trkpt lat="43.96013" lon="5.26606">
        <ele>430</ele>
        <time>2019-10-02T09:22:49Z</time>
      </trkpt>
      <trkpt lat="43.9602" lon="5.26598">
        <ele>432</ele>
        <time>2019-10-02T09:23:02Z</time>
      </trkpt>
      <trkpt lat="43.96023" lon="5.266">
        <ele>431</ele>
        <time>2019-10-02T09:23:08Z</time>
      </trkpt>
      <trkpt lat="43.96032" lon="5.26596">
        <ele>431</ele>
        <time>2019-10-02T09:23:18Z</time>
      </trkpt>
      <trkpt lat="43.96041" lon="5.26598">
        <ele>430</ele>
        <time>2019-10-02T09:23:29Z</time>
      </trkpt>
      <trkpt lat="43.9605" lon="5.26599">
        <ele>430</ele>
        <time>2019-10-02T09:23:42Z</time>
      </trkpt>
      <trkpt lat="43.9606" lon="5.26603">
        <ele>431</ele>
        <time>2019-10-02T09:23:57Z</time>
      </trkpt>
      <trkpt lat="43.9607" lon="5.26602">
        <ele>432</ele>
        <time>2019-10-02T09:24:03Z</time>
      </trkpt>
      <trkpt lat="43.96079" lon="5.26605">
        <ele>435</ele>
        <time>2019-10-02T09:24:09Z</time>
      </trkpt>
      <trkpt lat="43.96088" lon="5.26607">
        <ele>437</ele>
        <time>2019-10-02T09:24:16Z</time>
      </trkpt>
      <trkpt lat="43.96096" lon="5.26601">
        <ele>441</ele>
        <time>2019-10-02T09:24:31Z</time>
      </trkpt>
      <trkpt lat="43.96103" lon="5.2659">
        <ele>440</ele>
        <time>2019-10-02T09:24:47Z</time>
      </trkpt>
      <trkpt lat="43.96104" lon="5.26578">
        <ele>437</ele>
        <time>2019-10-02T09:24:57Z</time>
      </trkpt>
      <trkpt lat="43.96104" lon="5.26562">
        <ele>434</ele>
        <time>2019-10-02T09:25:22Z</time>
      </trkpt>
      <trkpt lat="43.96103" lon="5.26549">
        <ele>432</ele>
        <time>2019-10-02T09:25:35Z</time>
      </trkpt>
      <trkpt lat="43.96106" lon="5.26537">
        <ele>431</ele>
        <time>2019-10-02T09:25:58Z</time>
      </trkpt>
      <trkpt lat="43.96112" lon="5.26528">
        <ele>429</ele>
        <time>2019-10-02T09:26:46Z</time>
      </trkpt>
      <trkpt lat="43.96121" lon="5.26521">
        <ele>431</ele>
        <time>2019-10-02T09:26:55Z</time>
      </trkpt>
      <trkpt lat="43.9613" lon="5.26521">
        <ele>432</ele>
        <time>2019-10-02T09:27:08Z</time>
      </trkpt>
      <trkpt lat="43.96139" lon="5.26528">
        <ele>433</ele>
        <time>2019-10-02T09:27:26Z</time>
      </trkpt>
      <trkpt lat="43.96148" lon="5.26534">
        <ele>437</ele>
        <time>2019-10-02T09:27:40Z</time>
      </trkpt>
      <trkpt lat="43.96149" lon="5.26509">
        <ele>433</ele>
        <time>2019-10-02T09:29:08Z</time>
      </trkpt>
      <trkpt lat="43.96135" lon="5.26483">
        <ele>437</ele>
        <time>2019-10-02T09:29:46Z</time>
      </trkpt>
      <trkpt lat="43.96142" lon="5.26492">
        <ele>434</ele>
        <time>2019-10-02T09:30:31Z</time>
      </trkpt>
      <trkpt lat="43.9615" lon="5.26501">
        <ele>432</ele>
        <time>2019-10-02T09:30:55Z</time>
      </trkpt>
      <trkpt lat="43.96157" lon="5.26509">
        <ele>433</ele>
        <time>2019-10-02T09:30:59Z</time>
      </trkpt>
      <trkpt lat="43.96162" lon="5.2652">
        <ele>438</ele>
        <time>2019-10-02T09:31:10Z</time>
      </trkpt>
      <trkpt lat="43.96161" lon="5.26507">
        <ele>435</ele>
        <time>2019-10-02T09:33:31Z</time>
      </trkpt>
      <trkpt lat="43.96163" lon="5.26495">
        <ele>433</ele>
        <time>2019-10-02T09:33:51Z</time>
      </trkpt>
      <trkpt lat="43.96166" lon="5.26491">
        <ele>434</ele>
        <time>2019-10-02T09:33:56Z</time>
      </trkpt>
      <trkpt lat="43.96166" lon="5.26491">
        <ele>434</ele>
        <time>2019-10-02T09:33:59Z</time>
      </trkpt>
      <trkpt lat="43.96175" lon="5.26487">
        <ele>435</ele>
        <time>2019-10-02T09:37:42Z</time>
      </trkpt>
      <trkpt lat="43.96179" lon="5.26499">
        <ele>434</ele>
        <time>2019-10-02T09:41:42Z</time>
      </trkpt>
      <trkpt lat="43.96179" lon="5.26499">
        <ele>434</ele>
        <time>2019-10-02T09:41:42Z</time>
      </trkpt>
      <trkpt lat="43.96193" lon="5.26483">
        <ele>437</ele>
        <time>2019-10-02T09:42:32Z</time>
      </trkpt>
      <trkpt lat="43.96202" lon="5.26487">
        <ele>440</ele>
        <time>2019-10-02T09:43:09Z</time>
      </trkpt>
      <trkpt lat="43.96212" lon="5.26488">
        <ele>443</ele>
        <time>2019-10-02T09:43:42Z</time>
      </trkpt>
      <trkpt lat="43.9622" lon="5.26493">
        <ele>447</ele>
        <time>2019-10-02T09:44:04Z</time>
      </trkpt>
      <trkpt lat="43.96226" lon="5.26482">
        <ele>448</ele>
        <time>2019-10-02T09:44:22Z</time>
      </trkpt>
      <trkpt lat="43.96229" lon="5.26469">
        <ele>448</ele>
        <time>2019-10-02T09:44:37Z</time>
      </trkpt>
      <trkpt lat="43.96234" lon="5.26456">
        <ele>447</ele>
        <time>2019-10-02T09:44:57Z</time>
      </trkpt>
      <trkpt lat="43.96237" lon="5.26444">
        <ele>445</ele>
        <time>2019-10-02T09:45:06Z</time>
      </trkpt>
      <trkpt lat="43.96243" lon="5.26432">
        <ele>445</ele>
        <time>2019-10-02T09:45:15Z</time>
      </trkpt>
      <trkpt lat="43.96258" lon="5.26415">
        <ele>445</ele>
        <time>2019-10-02T09:45:34Z</time>
      </trkpt>
      <trkpt lat="43.96273" lon="5.26399">
        <ele>446</ele>
        <time>2019-10-02T09:45:53Z</time>
      </trkpt>
      <trkpt lat="43.96278" lon="5.26387">
        <ele>444</ele>
        <time>2019-10-02T09:46:01Z</time>
      </trkpt>
      <trkpt lat="43.96286" lon="5.2638">
        <ele>444</ele>
        <time>2019-10-02T09:46:11Z</time>
      </trkpt>
      <trkpt lat="43.96294" lon="5.26374">
        <ele>445</ele>
        <time>2019-10-02T09:46:19Z</time>
      </trkpt>
      <trkpt lat="43.96304" lon="5.2637">
        <ele>445</ele>
        <time>2019-10-02T09:46:29Z</time>
      </trkpt>
      <trkpt lat="43.96311" lon="5.26362">
        <ele>444</ele>
        <time>2019-10-02T09:46:39Z</time>
      </trkpt>
      <trkpt lat="43.9632" lon="5.26363">
        <ele>445</ele>
        <time>2019-10-02T09:46:48Z</time>
      </trkpt>
      <trkpt lat="43.9633" lon="5.2636">
        <ele>446</ele>
        <time>2019-10-02T09:46:56Z</time>
      </trkpt>
      <trkpt lat="43.96339" lon="5.26354">
        <ele>447</ele>
        <time>2019-10-02T09:47:07Z</time>
      </trkpt>
      <trkpt lat="43.96347" lon="5.26347">
        <ele>448</ele>
        <time>2019-10-02T09:47:17Z</time>
      </trkpt>
      <trkpt lat="43.96354" lon="5.26338">
        <ele>449</ele>
        <time>2019-10-02T09:47:26Z</time>
      </trkpt>
      <trkpt lat="43.96363" lon="5.26333">
        <ele>449</ele>
        <time>2019-10-02T09:47:38Z</time>
      </trkpt>
      <trkpt lat="43.96372" lon="5.26333">
        <ele>449</ele>
        <time>2019-10-02T09:47:47Z</time>
      </trkpt>
      <trkpt lat="43.96389" lon="5.26323">
        <ele>452</ele>
        <time>2019-10-02T09:48:07Z</time>
      </trkpt>
      <trkpt lat="43.96397" lon="5.26316">
        <ele>453</ele>
        <time>2019-10-02T09:48:21Z</time>
      </trkpt>
      <trkpt lat="43.96405" lon="5.26308">
        <ele>453</ele>
        <time>2019-10-02T09:48:31Z</time>
      </trkpt>
      <trkpt lat="43.96413" lon="5.26302">
        <ele>453</ele>
        <time>2019-10-02T09:48:40Z</time>
      </trkpt>
      <trkpt lat="43.96423" lon="5.26299">
        <ele>454</ele>
        <time>2019-10-02T09:48:49Z</time>
      </trkpt>
      <trkpt lat="43.96432" lon="5.26297">
        <ele>455</ele>
        <time>2019-10-02T09:48:56Z</time>
      </trkpt>
      <trkpt lat="43.96448" lon="5.26284">
        <ele>456</ele>
        <time>2019-10-02T09:49:15Z</time>
      </trkpt>
      <trkpt lat="43.96458" lon="5.26282">
        <ele>456</ele>
        <time>2019-10-02T09:49:23Z</time>
      </trkpt>
      <trkpt lat="43.96467" lon="5.26277">
        <ele>454</ele>
        <time>2019-10-02T09:49:34Z</time>
      </trkpt>
      <trkpt lat="43.96476" lon="5.26279">
        <ele>454</ele>
        <time>2019-10-02T09:49:43Z</time>
      </trkpt>
      <trkpt lat="43.96486" lon="5.26281">
        <ele>455</ele>
        <time>2019-10-02T09:49:51Z</time>
      </trkpt>
      <trkpt lat="43.96505" lon="5.26279">
        <ele>457</ele>
        <time>2019-10-02T09:50:07Z</time>
      </trkpt>
      <trkpt lat="43.96514" lon="5.26279">
        <ele>457</ele>
        <time>2019-10-02T09:50:17Z</time>
      </trkpt>
      <trkpt lat="43.96524" lon="5.26278">
        <ele>458</ele>
        <time>2019-10-02T09:50:27Z</time>
      </trkpt>
      <trkpt lat="43.96533" lon="5.26282">
        <ele>459</ele>
        <time>2019-10-02T09:50:37Z</time>
      </trkpt>
      <trkpt lat="43.96542" lon="5.26281">
        <ele>459</ele>
        <time>2019-10-02T09:50:45Z</time>
      </trkpt>
      <trkpt lat="43.96551" lon="5.26275">
        <ele>459</ele>
        <time>2019-10-02T09:50:54Z</time>
      </trkpt>
      <trkpt lat="43.9656" lon="5.26274">
        <ele>461</ele>
        <time>2019-10-02T09:51:02Z</time>
      </trkpt>
      <trkpt lat="43.96571" lon="5.26277">
        <ele>461</ele>
        <time>2019-10-02T09:51:11Z</time>
      </trkpt>
      <trkpt lat="43.96579" lon="5.26271">
        <ele>463</ele>
        <time>2019-10-02T09:52:02Z</time>
      </trkpt>
      <trkpt lat="43.96588" lon="5.26275">
        <ele>462</ele>
        <time>2019-10-02T09:52:11Z</time>
      </trkpt>
      <trkpt lat="43.96598" lon="5.26278">
        <ele>463</ele>
        <time>2019-10-02T09:52:17Z</time>
      </trkpt>
      <trkpt lat="43.96607" lon="5.26283">
        <ele>463</ele>
        <time>2019-10-02T09:52:23Z</time>
      </trkpt>
      <trkpt lat="43.96617" lon="5.26282">
        <ele>464</ele>
        <time>2019-10-02T09:52:34Z</time>
      </trkpt>
      <trkpt lat="43.96626" lon="5.26285">
        <ele>465</ele>
        <time>2019-10-02T09:52:42Z</time>
      </trkpt>
      <trkpt lat="43.96634" lon="5.26289">
        <ele>466</ele>
        <time>2019-10-02T09:52:52Z</time>
      </trkpt>
      <trkpt lat="43.96642" lon="5.26296">
        <ele>466</ele>
        <time>2019-10-02T09:53:01Z</time>
      </trkpt>
      <trkpt lat="43.96651" lon="5.26297">
        <ele>467</ele>
        <time>2019-10-02T09:53:10Z</time>
      </trkpt>
      <trkpt lat="43.96661" lon="5.26298">
        <ele>468</ele>
        <time>2019-10-02T09:53:23Z</time>
      </trkpt>
      <trkpt lat="43.96671" lon="5.26297">
        <ele>469</ele>
        <time>2019-10-02T09:53:32Z</time>
      </trkpt>
      <trkpt lat="43.9668" lon="5.26293">
        <ele>469</ele>
        <time>2019-10-02T09:53:41Z</time>
      </trkpt>
      <trkpt lat="43.96689" lon="5.26292">
        <ele>470</ele>
        <time>2019-10-02T09:53:51Z</time>
      </trkpt>
      <trkpt lat="43.96698" lon="5.26296">
        <ele>470</ele>
        <time>2019-10-02T09:54:00Z</time>
      </trkpt>
      <trkpt lat="43.96707" lon="5.26299">
        <ele>471</ele>
        <time>2019-10-02T09:54:08Z</time>
      </trkpt>
      <trkpt lat="43.96716" lon="5.26303">
        <ele>471</ele>
        <time>2019-10-02T09:54:19Z</time>
      </trkpt>
      <trkpt lat="43.96725" lon="5.26304">
        <ele>471</ele>
        <time>2019-10-02T09:54:29Z</time>
      </trkpt>
      <trkpt lat="43.96734" lon="5.26301">
        <ele>471</ele>
        <time>2019-10-02T09:54:37Z</time>
      </trkpt>
      <trkpt lat="43.96744" lon="5.26302">
        <ele>471</ele>
        <time>2019-10-02T09:54:46Z</time>
      </trkpt>
      <trkpt lat="43.9675" lon="5.26311">
        <ele>472</ele>
        <time>2019-10-02T09:54:53Z</time>
      </trkpt>
      <trkpt lat="43.96759" lon="5.26317">
        <ele>474</ele>
        <time>2019-10-02T09:55:01Z</time>
      </trkpt>
      <trkpt lat="43.96767" lon="5.26325">
        <ele>475</ele>
        <time>2019-10-02T09:55:10Z</time>
      </trkpt>
      <trkpt lat="43.96774" lon="5.26333">
        <ele>476</ele>
        <time>2019-10-02T09:55:22Z</time>
      </trkpt>
      <trkpt lat="43.96782" lon="5.26344">
        <ele>476</ele>
        <time>2019-10-02T09:55:39Z</time>
      </trkpt>
      <trkpt lat="43.96788" lon="5.26354">
        <ele>476</ele>
        <time>2019-10-02T09:55:48Z</time>
      </trkpt>
      <trkpt lat="43.96797" lon="5.26359">
        <ele>476</ele>
        <time>2019-10-02T09:55:59Z</time>
      </trkpt>
      <trkpt lat="43.96807" lon="5.26366">
        <ele>477</ele>
        <time>2019-10-02T09:56:59Z</time>
      </trkpt>
      <trkpt lat="43.96816" lon="5.26362">
        <ele>477</ele>
        <time>2019-10-02T09:57:09Z</time>
      </trkpt>
      <trkpt lat="43.96836" lon="5.26363">
        <ele>479</ele>
        <time>2019-10-02T09:57:23Z</time>
      </trkpt>
      <trkpt lat="43.96854" lon="5.26371">
        <ele>482</ele>
        <time>2019-10-02T09:57:41Z</time>
      </trkpt>
      <trkpt lat="43.96864" lon="5.26377">
        <ele>483</ele>
        <time>2019-10-02T09:57:52Z</time>
      </trkpt>
      <trkpt lat="43.9687" lon="5.26385">
        <ele>482</ele>
        <time>2019-10-02T09:58:00Z</time>
      </trkpt>
      <trkpt lat="43.96878" lon="5.26393">
        <ele>481</ele>
        <time>2019-10-02T09:58:11Z</time>
      </trkpt>
      <trkpt lat="43.96885" lon="5.26403">
        <ele>481</ele>
        <time>2019-10-02T09:58:18Z</time>
      </trkpt>
      <trkpt lat="43.96891" lon="5.26412">
        <ele>481</ele>
        <time>2019-10-02T09:58:30Z</time>
      </trkpt>
      <trkpt lat="43.969" lon="5.26419">
        <ele>482</ele>
        <time>2019-10-02T09:58:41Z</time>
      </trkpt>
      <trkpt lat="43.96907" lon="5.26427">
        <ele>483</ele>
        <time>2019-10-02T09:58:49Z</time>
      </trkpt>
      <trkpt lat="43.96915" lon="5.26434">
        <ele>484</ele>
        <time>2019-10-02T09:59:01Z</time>
      </trkpt>
      <trkpt lat="43.96924" lon="5.26439">
        <ele>484</ele>
        <time>2019-10-02T09:59:12Z</time>
      </trkpt>
      <trkpt lat="43.96932" lon="5.26448">
        <ele>485</ele>
        <time>2019-10-02T09:59:21Z</time>
      </trkpt>
      <trkpt lat="43.96942" lon="5.26452">
        <ele>487</ele>
        <time>2019-10-02T09:59:30Z</time>
      </trkpt>
      <trkpt lat="43.96951" lon="5.26448">
        <ele>488</ele>
        <time>2019-10-02T09:59:40Z</time>
      </trkpt>
      <trkpt lat="43.96961" lon="5.26446">
        <ele>488</ele>
        <time>2019-10-02T09:59:49Z</time>
      </trkpt>
      <trkpt lat="43.96971" lon="5.26445">
        <ele>489</ele>
        <time>2019-10-02T10:00:00Z</time>
      </trkpt>
      <trkpt lat="43.9698" lon="5.26444">
        <ele>490</ele>
        <time>2019-10-02T10:00:11Z</time>
      </trkpt>
      <trkpt lat="43.9699" lon="5.26444">
        <ele>490</ele>
        <time>2019-10-02T10:00:21Z</time>
      </trkpt>
      <trkpt lat="43.96998" lon="5.26438">
        <ele>492</ele>
        <time>2019-10-02T10:00:29Z</time>
      </trkpt>
      <trkpt lat="43.97007" lon="5.26434">
        <ele>493</ele>
        <time>2019-10-02T10:00:40Z</time>
      </trkpt>
      <trkpt lat="43.97016" lon="5.26434">
        <ele>494</ele>
        <time>2019-10-02T10:00:49Z</time>
      </trkpt>
      <trkpt lat="43.97024" lon="5.26427">
        <ele>494</ele>
        <time>2019-10-02T10:00:59Z</time>
      </trkpt>
      <trkpt lat="43.97033" lon="5.26422">
        <ele>495</ele>
        <time>2019-10-02T10:01:12Z</time>
      </trkpt>
      <trkpt lat="43.97041" lon="5.26414">
        <ele>495</ele>
        <time>2019-10-02T10:01:22Z</time>
      </trkpt>
      <trkpt lat="43.97047" lon="5.26404">
        <ele>496</ele>
        <time>2019-10-02T10:01:50Z</time>
      </trkpt>
      <trkpt lat="43.97051" lon="5.26392">
        <ele>496</ele>
        <time>2019-10-02T10:02:00Z</time>
      </trkpt>
      <trkpt lat="43.97059" lon="5.26385">
        <ele>497</ele>
        <time>2019-10-02T10:02:10Z</time>
      </trkpt>
      <trkpt lat="43.97067" lon="5.26377">
        <ele>498</ele>
        <time>2019-10-02T10:02:21Z</time>
      </trkpt>
      <trkpt lat="43.97074" lon="5.2637">
        <ele>499</ele>
        <time>2019-10-02T10:02:30Z</time>
      </trkpt>
      <trkpt lat="43.97084" lon="5.26368">
        <ele>499</ele>
        <time>2019-10-02T10:02:40Z</time>
      </trkpt>
      <trkpt lat="43.97093" lon="5.26362">
        <ele>500</ele>
        <time>2019-10-02T10:02:49Z</time>
      </trkpt>
      <trkpt lat="43.97102" lon="5.26363">
        <ele>500</ele>
        <time>2019-10-02T10:03:00Z</time>
      </trkpt>
      <trkpt lat="43.9711" lon="5.26369">
        <ele>501</ele>
        <time>2019-10-02T10:03:10Z</time>
      </trkpt>
      <trkpt lat="43.97118" lon="5.26376">
        <ele>502</ele>
        <time>2019-10-02T10:03:18Z</time>
      </trkpt>
      <trkpt lat="43.97126" lon="5.26383">
        <ele>503</ele>
        <time>2019-10-02T10:03:28Z</time>
      </trkpt>
      <trkpt lat="43.97133" lon="5.26391">
        <ele>503</ele>
        <time>2019-10-02T10:03:42Z</time>
      </trkpt>
      <trkpt lat="43.97142" lon="5.26396">
        <ele>505</ele>
        <time>2019-10-02T10:03:51Z</time>
      </trkpt>
      <trkpt lat="43.97149" lon="5.26404">
        <ele>506</ele>
        <time>2019-10-02T10:04:00Z</time>
      </trkpt>
      <trkpt lat="43.97157" lon="5.26409">
        <ele>507</ele>
        <time>2019-10-02T10:04:15Z</time>
      </trkpt>
      <trkpt lat="43.97167" lon="5.26412">
        <ele>507</ele>
        <time>2019-10-02T10:04:26Z</time>
      </trkpt>
      <trkpt lat="43.97176" lon="5.26413">
        <ele>508</ele>
        <time>2019-10-02T10:04:33Z</time>
      </trkpt>
      <trkpt lat="43.97186" lon="5.2641">
        <ele>510</ele>
        <time>2019-10-02T10:04:44Z</time>
      </trkpt>
      <trkpt lat="43.97195" lon="5.26411">
        <ele>512</ele>
        <time>2019-10-02T10:04:56Z</time>
      </trkpt>
      <trkpt lat="43.97204" lon="5.26414">
        <ele>513</ele>
        <time>2019-10-02T10:05:08Z</time>
      </trkpt>
      <trkpt lat="43.97211" lon="5.26423">
        <ele>514</ele>
        <time>2019-10-02T10:05:21Z</time>
      </trkpt>
      <trkpt lat="43.97218" lon="5.26431">
        <ele>515</ele>
        <time>2019-10-02T10:05:30Z</time>
      </trkpt>
      <trkpt lat="43.97224" lon="5.26442">
        <ele>514</ele>
        <time>2019-10-02T10:05:41Z</time>
      </trkpt>
      <trkpt lat="43.97231" lon="5.26452">
        <ele>516</ele>
        <time>2019-10-02T10:05:48Z</time>
      </trkpt>
      <trkpt lat="43.97236" lon="5.26462">
        <ele>516</ele>
        <time>2019-10-02T10:05:56Z</time>
      </trkpt>
      <trkpt lat="43.97249" lon="5.26483">
        <ele>517</ele>
        <time>2019-10-02T10:06:17Z</time>
      </trkpt>
      <trkpt lat="43.97255" lon="5.26492">
        <ele>517</ele>
        <time>2019-10-02T10:06:30Z</time>
      </trkpt>
      <trkpt lat="43.97262" lon="5.26501">
        <ele>517</ele>
        <time>2019-10-02T10:06:42Z</time>
      </trkpt>
      <trkpt lat="43.9727" lon="5.26508">
        <ele>519</ele>
        <time>2019-10-02T10:06:53Z</time>
      </trkpt>
      <trkpt lat="43.97279" lon="5.26513">
        <ele>520</ele>
        <time>2019-10-02T10:07:02Z</time>
      </trkpt>
      <trkpt lat="43.97288" lon="5.26516">
        <ele>521</ele>
        <time>2019-10-02T10:07:16Z</time>
      </trkpt>
      <trkpt lat="43.97297" lon="5.26516">
        <ele>521</ele>
        <time>2019-10-02T10:07:31Z</time>
      </trkpt>
      <trkpt lat="43.97306" lon="5.26513">
        <ele>521</ele>
        <time>2019-10-02T10:07:37Z</time>
      </trkpt>
      <trkpt lat="43.97317" lon="5.26511">
        <ele>522</ele>
        <time>2019-10-02T10:07:45Z</time>
      </trkpt>
      <trkpt lat="43.97327" lon="5.26506">
        <ele>522</ele>
        <time>2019-10-02T10:07:55Z</time>
      </trkpt>
      <trkpt lat="43.97336" lon="5.26502">
        <ele>522</ele>
        <time>2019-10-02T10:08:08Z</time>
      </trkpt>
      <trkpt lat="43.97345" lon="5.26504">
        <ele>523</ele>
        <time>2019-10-02T10:08:22Z</time>
      </trkpt>
      <trkpt lat="43.97354" lon="5.26505">
        <ele>524</ele>
        <time>2019-10-02T10:08:30Z</time>
      </trkpt>
      <trkpt lat="43.97371" lon="5.26518">
        <ele>526</ele>
        <time>2019-10-02T10:08:51Z</time>
      </trkpt>
      <trkpt lat="43.97379" lon="5.26525">
        <ele>527</ele>
        <time>2019-10-02T10:08:57Z</time>
      </trkpt>
      <trkpt lat="43.97386" lon="5.26535">
        <ele>527</ele>
        <time>2019-10-02T10:09:08Z</time>
      </trkpt>
      <trkpt lat="43.97391" lon="5.26545">
        <ele>528</ele>
        <time>2019-10-02T10:09:17Z</time>
      </trkpt>
      <trkpt lat="43.97396" lon="5.26558">
        <ele>530</ele>
        <time>2019-10-02T10:09:26Z</time>
      </trkpt>
      <trkpt lat="43.97401" lon="5.26568">
        <ele>530</ele>
        <time>2019-10-02T10:09:38Z</time>
      </trkpt>
      <trkpt lat="43.97406" lon="5.26579">
        <ele>530</ele>
        <time>2019-10-02T10:09:49Z</time>
      </trkpt>
      <trkpt lat="43.97414" lon="5.26585">
        <ele>529</ele>
        <time>2019-10-02T10:09:59Z</time>
      </trkpt>
      <trkpt lat="43.9742" lon="5.26595">
        <ele>530</ele>
        <time>2019-10-02T10:10:08Z</time>
      </trkpt>
      <trkpt lat="43.97427" lon="5.26604">
        <ele>531</ele>
        <time>2019-10-02T10:10:21Z</time>
      </trkpt>
      <trkpt lat="43.97433" lon="5.26614">
        <ele>532</ele>
        <time>2019-10-02T10:10:30Z</time>
      </trkpt>
      <trkpt lat="43.9744" lon="5.26622">
        <ele>532</ele>
        <time>2019-10-02T10:10:41Z</time>
      </trkpt>
      <trkpt lat="43.97449" lon="5.26628">
        <ele>532</ele>
        <time>2019-10-02T10:10:51Z</time>
      </trkpt>
      <trkpt lat="43.97457" lon="5.26637">
        <ele>533</ele>
        <time>2019-10-02T10:11:01Z</time>
      </trkpt>
      <trkpt lat="43.97462" lon="5.26647">
        <ele>534</ele>
        <time>2019-10-02T10:11:11Z</time>
      </trkpt>
      <trkpt lat="43.97469" lon="5.26658">
        <ele>534</ele>
        <time>2019-10-02T10:11:21Z</time>
      </trkpt>
      <trkpt lat="43.97476" lon="5.26667">
        <ele>535</ele>
        <time>2019-10-02T10:11:29Z</time>
      </trkpt>
      <trkpt lat="43.97481" lon="5.26678">
        <ele>537</ele>
        <time>2019-10-02T10:11:41Z</time>
      </trkpt>
      <trkpt lat="43.97482" lon="5.2669">
        <ele>537</ele>
        <time>2019-10-02T10:11:51Z</time>
      </trkpt>
      <trkpt lat="43.97484" lon="5.26702">
        <ele>539</ele>
        <time>2019-10-02T10:12:06Z</time>
      </trkpt>
      <trkpt lat="43.97485" lon="5.26715">
        <ele>540</ele>
        <time>2019-10-02T10:12:21Z</time>
      </trkpt>
      <trkpt lat="43.97485" lon="5.26729">
        <ele>542</ele>
        <time>2019-10-02T10:12:32Z</time>
      </trkpt>
      <trkpt lat="43.97489" lon="5.26741">
        <ele>545</ele>
        <time>2019-10-02T10:12:43Z</time>
      </trkpt>
      <trkpt lat="43.97491" lon="5.26753">
        <ele>547</ele>
        <time>2019-10-02T10:12:56Z</time>
      </trkpt>
      <trkpt lat="43.97494" lon="5.26766">
        <ele>548</ele>
        <time>2019-10-02T10:13:09Z</time>
      </trkpt>
      <trkpt lat="43.97498" lon="5.26777">
        <ele>549</ele>
        <time>2019-10-02T10:13:23Z</time>
      </trkpt>
      <trkpt lat="43.97501" lon="5.26789">
        <ele>550</ele>
        <time>2019-10-02T10:13:36Z</time>
      </trkpt>
      <trkpt lat="43.97504" lon="5.26802">
        <ele>551</ele>
        <time>2019-10-02T10:13:47Z</time>
      </trkpt>
      <trkpt lat="43.97511" lon="5.2681">
        <ele>552</ele>
        <time>2019-10-02T10:14:03Z</time>
      </trkpt>
      <trkpt lat="43.97519" lon="5.26818">
        <ele>553</ele>
        <time>2019-10-02T10:14:17Z</time>
      </trkpt>
      <trkpt lat="43.97538" lon="5.26829">
        <ele>555</ele>
        <time>2019-10-02T10:14:38Z</time>
      </trkpt>
      <trkpt lat="43.97546" lon="5.26837">
        <ele>556</ele>
        <time>2019-10-02T10:14:49Z</time>
      </trkpt>
      <trkpt lat="43.97556" lon="5.26842">
        <ele>557</ele>
        <time>2019-10-02T10:14:59Z</time>
      </trkpt>
      <trkpt lat="43.97564" lon="5.26847">
        <ele>558</ele>
        <time>2019-10-02T10:15:10Z</time>
      </trkpt>
      <trkpt lat="43.97572" lon="5.26855">
        <ele>558</ele>
        <time>2019-10-02T10:15:20Z</time>
      </trkpt>
      <trkpt lat="43.97581" lon="5.26858">
        <ele>559</ele>
        <time>2019-10-02T10:15:34Z</time>
      </trkpt>
      <trkpt lat="43.9759" lon="5.26862">
        <ele>560</ele>
        <time>2019-10-02T10:15:47Z</time>
      </trkpt>
      <trkpt lat="43.97597" lon="5.2687">
        <ele>562</ele>
        <time>2019-10-02T10:16:00Z</time>
      </trkpt>
      <trkpt lat="43.97606" lon="5.26874">
        <ele>562</ele>
        <time>2019-10-02T10:16:05Z</time>
      </trkpt>
      <trkpt lat="43.97612" lon="5.26884">
        <ele>562</ele>
        <time>2019-10-02T10:16:17Z</time>
      </trkpt>
      <trkpt lat="43.9762" lon="5.26891">
        <ele>563</ele>
        <time>2019-10-02T10:16:31Z</time>
      </trkpt>
      <trkpt lat="43.97627" lon="5.26901">
        <ele>564</ele>
        <time>2019-10-02T10:16:37Z</time>
      </trkpt>
      <trkpt lat="43.97635" lon="5.2691">
        <ele>565</ele>
        <time>2019-10-02T10:16:48Z</time>
      </trkpt>
      <trkpt lat="43.97642" lon="5.26918">
        <ele>565</ele>
        <time>2019-10-02T10:16:57Z</time>
      </trkpt>
      <trkpt lat="43.97649" lon="5.26927">
        <ele>566</ele>
        <time>2019-10-02T10:17:08Z</time>
      </trkpt>
      <trkpt lat="43.97656" lon="5.26935">
        <ele>566</ele>
        <time>2019-10-02T10:17:19Z</time>
      </trkpt>
      <trkpt lat="43.97666" lon="5.26944">
        <ele>567</ele>
        <time>2019-10-02T10:17:29Z</time>
      </trkpt>
      <trkpt lat="43.97673" lon="5.26953">
        <ele>567</ele>
        <time>2019-10-02T10:17:41Z</time>
      </trkpt>
      <trkpt lat="43.97682" lon="5.26959">
        <ele>568</ele>
        <time>2019-10-02T10:17:51Z</time>
      </trkpt>
      <trkpt lat="43.97689" lon="5.26967">
        <ele>568</ele>
        <time>2019-10-02T10:18:02Z</time>
      </trkpt>
      <trkpt lat="43.97697" lon="5.26974">
        <ele>567</ele>
        <time>2019-10-02T10:18:11Z</time>
      </trkpt>
      <trkpt lat="43.97703" lon="5.26984">
        <ele>569</ele>
        <time>2019-10-02T10:18:21Z</time>
      </trkpt>
      <trkpt lat="43.9771" lon="5.26993">
        <ele>570</ele>
        <time>2019-10-02T10:18:30Z</time>
      </trkpt>
      <trkpt lat="43.97718" lon="5.26999">
        <ele>569</ele>
        <time>2019-10-02T10:18:40Z</time>
      </trkpt>
      <trkpt lat="43.97727" lon="5.27004">
        <ele>570</ele>
        <time>2019-10-02T10:18:48Z</time>
      </trkpt>
      <trkpt lat="43.97735" lon="5.27011">
        <ele>572</ele>
        <time>2019-10-02T10:18:55Z</time>
      </trkpt>
      <trkpt lat="43.97742" lon="5.27019">
        <ele>573</ele>
        <time>2019-10-02T10:19:08Z</time>
      </trkpt>
      <trkpt lat="43.97759" lon="5.27032">
        <ele>573</ele>
        <time>2019-10-02T10:19:34Z</time>
      </trkpt>
      <trkpt lat="43.97765" lon="5.27041">
        <ele>574</ele>
        <time>2019-10-02T10:19:44Z</time>
      </trkpt>
      <trkpt lat="43.97771" lon="5.27053">
        <ele>574</ele>
        <time>2019-10-02T10:19:55Z</time>
      </trkpt>
      <trkpt lat="43.97779" lon="5.27062">
        <ele>575</ele>
        <time>2019-10-02T10:20:06Z</time>
      </trkpt>
      <trkpt lat="43.97787" lon="5.27069">
        <ele>576</ele>
        <time>2019-10-02T10:20:19Z</time>
      </trkpt>
      <trkpt lat="43.97796" lon="5.27071">
        <ele>577</ele>
        <time>2019-10-02T10:20:28Z</time>
      </trkpt>
      <trkpt lat="43.97805" lon="5.27074">
        <ele>578</ele>
        <time>2019-10-02T10:20:39Z</time>
      </trkpt>
      <trkpt lat="43.97814" lon="5.27074">
        <ele>578</ele>
        <time>2019-10-02T10:20:47Z</time>
      </trkpt>
      <trkpt lat="43.97823" lon="5.27075">
        <ele>579</ele>
        <time>2019-10-02T10:20:57Z</time>
      </trkpt>
      <trkpt lat="43.97843" lon="5.27074">
        <ele>580</ele>
        <time>2019-10-02T10:21:19Z</time>
      </trkpt>
      <trkpt lat="43.97852" lon="5.27072">
        <ele>581</ele>
        <time>2019-10-02T10:21:27Z</time>
      </trkpt>
      <trkpt lat="43.97862" lon="5.2707">
        <ele>582</ele>
        <time>2019-10-02T10:21:41Z</time>
      </trkpt>
      <trkpt lat="43.97871" lon="5.27068">
        <ele>582</ele>
        <time>2019-10-02T10:21:49Z</time>
      </trkpt>
      <trkpt lat="43.97881" lon="5.27066">
        <ele>583</ele>
        <time>2019-10-02T10:22:02Z</time>
      </trkpt>
      <trkpt lat="43.97891" lon="5.27066">
        <ele>583</ele>
        <time>2019-10-02T10:22:12Z</time>
      </trkpt>
      <trkpt lat="43.979" lon="5.27066">
        <ele>584</ele>
        <time>2019-10-02T10:22:20Z</time>
      </trkpt>
      <trkpt lat="43.97909" lon="5.27063">
        <ele>585</ele>
        <time>2019-10-02T10:22:31Z</time>
      </trkpt>
      <trkpt lat="43.97917" lon="5.27056">
        <ele>584</ele>
        <time>2019-10-02T10:22:41Z</time>
      </trkpt>
      <trkpt lat="43.97924" lon="5.27048">
        <ele>586</ele>
        <time>2019-10-02T10:22:52Z</time>
      </trkpt>
      <trkpt lat="43.97931" lon="5.27039">
        <ele>587</ele>
        <time>2019-10-02T10:23:05Z</time>
      </trkpt>
      <trkpt lat="43.9794" lon="5.27035">
        <ele>587</ele>
        <time>2019-10-02T10:23:13Z</time>
      </trkpt>
      <trkpt lat="43.97949" lon="5.27028">
        <ele>587</ele>
        <time>2019-10-02T10:23:22Z</time>
      </trkpt>
      <trkpt lat="43.97958" lon="5.27023">
        <ele>588</ele>
        <time>2019-10-02T10:23:32Z</time>
      </trkpt>
      <trkpt lat="43.97966" lon="5.27018">
        <ele>589</ele>
        <time>2019-10-02T10:23:46Z</time>
      </trkpt>
      <trkpt lat="43.97975" lon="5.27012">
        <ele>589</ele>
        <time>2019-10-02T10:23:53Z</time>
      </trkpt>
      <trkpt lat="43.97983" lon="5.27005">
        <ele>590</ele>
        <time>2019-10-02T10:24:02Z</time>
      </trkpt>
      <trkpt lat="43.97989" lon="5.26996">
        <ele>591</ele>
        <time>2019-10-02T10:24:15Z</time>
      </trkpt>
      <trkpt lat="43.97998" lon="5.26989">
        <ele>593</ele>
        <time>2019-10-02T10:24:24Z</time>
      </trkpt>
      <trkpt lat="43.98007" lon="5.26986">
        <ele>593</ele>
        <time>2019-10-02T10:24:35Z</time>
      </trkpt>
      <trkpt lat="43.98016" lon="5.26985">
        <ele>594</ele>
        <time>2019-10-02T10:24:50Z</time>
      </trkpt>
      <trkpt lat="43.98025" lon="5.26982">
        <ele>594</ele>
        <time>2019-10-02T10:24:59Z</time>
      </trkpt>
      <trkpt lat="43.98035" lon="5.26978">
        <ele>595</ele>
        <time>2019-10-02T10:25:08Z</time>
      </trkpt>
      <trkpt lat="43.98043" lon="5.26972">
        <ele>594</ele>
        <time>2019-10-02T10:25:16Z</time>
      </trkpt>
      <trkpt lat="43.98053" lon="5.2697">
        <ele>595</ele>
        <time>2019-10-02T10:25:29Z</time>
      </trkpt>
      <trkpt lat="43.98062" lon="5.26969">
        <ele>595</ele>
        <time>2019-10-02T10:25:41Z</time>
      </trkpt>
      <trkpt lat="43.98072" lon="5.26967">
        <ele>597</ele>
        <time>2019-10-02T10:25:54Z</time>
      </trkpt>
      <trkpt lat="43.98081" lon="5.26966">
        <ele>598</ele>
        <time>2019-10-02T10:26:04Z</time>
      </trkpt>
      <trkpt lat="43.9809" lon="5.26966">
        <ele>598</ele>
        <time>2019-10-02T10:26:16Z</time>
      </trkpt>
      <trkpt lat="43.98099" lon="5.26965">
        <ele>599</ele>
        <time>2019-10-02T10:26:26Z</time>
      </trkpt>
      <trkpt lat="43.98109" lon="5.26965">
        <ele>600</ele>
        <time>2019-10-02T10:26:40Z</time>
      </trkpt>
      <trkpt lat="43.98118" lon="5.26966">
        <ele>601</ele>
        <time>2019-10-02T10:26:50Z</time>
      </trkpt>
      <trkpt lat="43.98128" lon="5.26964">
        <ele>602</ele>
        <time>2019-10-02T10:27:04Z</time>
      </trkpt>
      <trkpt lat="43.98137" lon="5.26968">
        <ele>602</ele>
        <time>2019-10-02T10:27:21Z</time>
      </trkpt>
      <trkpt lat="43.98147" lon="5.26965">
        <ele>604</ele>
        <time>2019-10-02T10:27:32Z</time>
      </trkpt>
      <trkpt lat="43.98155" lon="5.26968">
        <ele>604</ele>
        <time>2019-10-02T10:27:49Z</time>
      </trkpt>
      <trkpt lat="43.98165" lon="5.26968">
        <ele>605</ele>
        <time>2019-10-02T10:28:05Z</time>
      </trkpt>
      <trkpt lat="43.98174" lon="5.26969">
        <ele>606</ele>
        <time>2019-10-02T10:28:17Z</time>
      </trkpt>
      <trkpt lat="43.98183" lon="5.2697">
        <ele>608</ele>
        <time>2019-10-02T10:28:34Z</time>
      </trkpt>
      <trkpt lat="43.98193" lon="5.26971">
        <ele>609</ele>
        <time>2019-10-02T10:28:46Z</time>
      </trkpt>
      <trkpt lat="43.98202" lon="5.2697">
        <ele>612</ele>
        <time>2019-10-02T10:29:02Z</time>
      </trkpt>
      <trkpt lat="43.98209" lon="5.26963">
        <ele>614</ele>
        <time>2019-10-02T10:29:20Z</time>
      </trkpt>
      <trkpt lat="43.98217" lon="5.26957">
        <ele>616</ele>
        <time>2019-10-02T10:29:32Z</time>
      </trkpt>
      <trkpt lat="43.98228" lon="5.26955">
        <ele>618</ele>
        <time>2019-10-02T10:29:40Z</time>
      </trkpt>
      <trkpt lat="43.98236" lon="5.26958">
        <ele>620</ele>
        <time>2019-10-02T10:30:43Z</time>
      </trkpt>
      <trkpt lat="43.98243" lon="5.26968">
        <ele>622</ele>
        <time>2019-10-02T10:31:55Z</time>
      </trkpt>
      <trkpt lat="43.98237" lon="5.26978">
        <ele>622</ele>
        <time>2019-10-02T10:32:47Z</time>
      </trkpt>
      <trkpt lat="43.98245" lon="5.26972">
        <ele>623</ele>
        <time>2019-10-02T10:33:27Z</time>
      </trkpt>
      <trkpt lat="43.98251" lon="5.26961">
        <ele>624</ele>
        <time>2019-10-02T10:33:41Z</time>
      </trkpt>
      <trkpt lat="43.98257" lon="5.2695">
        <ele>624</ele>
        <time>2019-10-02T10:33:51Z</time>
      </trkpt>
      <trkpt lat="43.98261" lon="5.26933">
        <ele>625</ele>
        <time>2019-10-02T10:33:55Z</time>
      </trkpt>
      <trkpt lat="43.98269" lon="5.26922">
        <ele>627</ele>
        <time>2019-10-02T10:33:58Z</time>
      </trkpt>
      <trkpt lat="43.98273" lon="5.26915">
        <ele>627</ele>
        <time>2019-10-02T10:34:02Z</time>
      </trkpt>
      <trkpt lat="43.98281" lon="5.26909">
        <ele>629</ele>
        <time>2019-10-02T10:34:17Z</time>
      </trkpt>
      <trkpt lat="43.98291" lon="5.26905">
        <ele>631</ele>
        <time>2019-10-02T10:34:27Z</time>
      </trkpt>
      <trkpt lat="43.983" lon="5.26907">
        <ele>631</ele>
        <time>2019-10-02T10:34:37Z</time>
      </trkpt>
      <trkpt lat="43.98309" lon="5.2691">
        <ele>631</ele>
        <time>2019-10-02T10:34:49Z</time>
      </trkpt>
      <trkpt lat="43.98318" lon="5.26917">
        <ele>632</ele>
        <time>2019-10-02T10:35:02Z</time>
      </trkpt>
      <trkpt lat="43.98328" lon="5.26919">
        <ele>633</ele>
        <time>2019-10-02T10:35:16Z</time>
      </trkpt>
      <trkpt lat="43.98338" lon="5.26924">
        <ele>635</ele>
        <time>2019-10-02T10:35:30Z</time>
      </trkpt>
      <trkpt lat="43.98347" lon="5.26926">
        <ele>637</ele>
        <time>2019-10-02T10:35:40Z</time>
      </trkpt>
      <trkpt lat="43.98356" lon="5.26923">
        <ele>637</ele>
        <time>2019-10-02T10:35:55Z</time>
      </trkpt>
      <trkpt lat="43.98364" lon="5.26916">
        <ele>637</ele>
        <time>2019-10-02T10:36:06Z</time>
      </trkpt>
      <trkpt lat="43.98372" lon="5.2691">
        <ele>638</ele>
        <time>2019-10-02T10:36:23Z</time>
      </trkpt>
      <trkpt lat="43.9838" lon="5.26903">
        <ele>640</ele>
        <time>2019-10-02T10:36:32Z</time>
      </trkpt>
      <trkpt lat="43.98387" lon="5.26895">
        <ele>641</ele>
        <time>2019-10-02T10:36:44Z</time>
      </trkpt>
      <trkpt lat="43.98396" lon="5.26889">
        <ele>643</ele>
        <time>2019-10-02T10:36:56Z</time>
      </trkpt>
      <trkpt lat="43.98401" lon="5.26878">
        <ele>644</ele>
        <time>2019-10-02T10:37:08Z</time>
      </trkpt>
      <trkpt lat="43.98406" lon="5.26867">
        <ele>644</ele>
        <time>2019-10-02T10:37:22Z</time>
      </trkpt>
      <trkpt lat="43.98412" lon="5.26856">
        <ele>645</ele>
        <time>2019-10-02T10:37:32Z</time>
      </trkpt>
      <trkpt lat="43.98418" lon="5.26845">
        <ele>647</ele>
        <time>2019-10-02T10:37:44Z</time>
      </trkpt>
      <trkpt lat="43.98424" lon="5.26836">
        <ele>650</ele>
        <time>2019-10-02T10:38:00Z</time>
      </trkpt>
      <trkpt lat="43.98432" lon="5.2683">
        <ele>651</ele>
        <time>2019-10-02T10:38:09Z</time>
      </trkpt>
      <trkpt lat="43.98446" lon="5.26813">
        <ele>652</ele>
        <time>2019-10-02T10:38:40Z</time>
      </trkpt>
      <trkpt lat="43.98456" lon="5.26791">
        <ele>656</ele>
        <time>2019-10-02T10:39:08Z</time>
      </trkpt>
      <trkpt lat="43.9846" lon="5.2678">
        <ele>657</ele>
        <time>2019-10-02T10:39:19Z</time>
      </trkpt>
      <trkpt lat="43.98468" lon="5.26773">
        <ele>658</ele>
        <time>2019-10-02T10:39:30Z</time>
      </trkpt>
      <trkpt lat="43.98477" lon="5.2677">
        <ele>658</ele>
        <time>2019-10-02T10:39:41Z</time>
      </trkpt>
      <trkpt lat="43.98486" lon="5.26766">
        <ele>659</ele>
        <time>2019-10-02T10:39:51Z</time>
      </trkpt>
      <trkpt lat="43.98495" lon="5.26764">
        <ele>659</ele>
        <time>2019-10-02T10:40:03Z</time>
      </trkpt>
      <trkpt lat="43.98503" lon="5.26756">
        <ele>660</ele>
        <time>2019-10-02T10:40:14Z</time>
      </trkpt>
      <trkpt lat="43.98513" lon="5.26755">
        <ele>661</ele>
        <time>2019-10-02T10:40:23Z</time>
      </trkpt>
      <trkpt lat="43.98522" lon="5.26753">
        <ele>662</ele>
        <time>2019-10-02T10:40:34Z</time>
      </trkpt>
      <trkpt lat="43.98532" lon="5.26749">
        <ele>663</ele>
        <time>2019-10-02T10:40:45Z</time>
      </trkpt>
      <trkpt lat="43.98538" lon="5.26741">
        <ele>664</ele>
        <time>2019-10-02T10:41:02Z</time>
      </trkpt>
      <trkpt lat="43.98545" lon="5.2673">
        <ele>664</ele>
        <time>2019-10-02T10:41:11Z</time>
      </trkpt>
      <trkpt lat="43.98554" lon="5.26726">
        <ele>665</ele>
        <time>2019-10-02T10:41:20Z</time>
      </trkpt>
      <trkpt lat="43.98563" lon="5.26728">
        <ele>665</ele>
        <time>2019-10-02T10:41:32Z</time>
      </trkpt>
      <trkpt lat="43.98573" lon="5.26727">
        <ele>666</ele>
        <time>2019-10-02T10:41:44Z</time>
      </trkpt>
      <trkpt lat="43.98583" lon="5.26726">
        <ele>667</ele>
        <time>2019-10-02T10:41:53Z</time>
      </trkpt>
      <trkpt lat="43.98591" lon="5.2673">
        <ele>668</ele>
        <time>2019-10-02T10:42:01Z</time>
      </trkpt>
      <trkpt lat="43.986" lon="5.26733">
        <ele>670</ele>
        <time>2019-10-02T10:42:16Z</time>
      </trkpt>
      <trkpt lat="43.9861" lon="5.26734">
        <ele>671</ele>
        <time>2019-10-02T10:42:29Z</time>
      </trkpt>
      <trkpt lat="43.98619" lon="5.26734">
        <ele>672</ele>
        <time>2019-10-02T10:42:44Z</time>
      </trkpt>
      <trkpt lat="43.9862" lon="5.26722">
        <ele>671</ele>
        <time>2019-10-02T10:43:10Z</time>
      </trkpt>
      <trkpt lat="43.98611" lon="5.26715">
        <ele>671</ele>
        <time>2019-10-02T10:43:20Z</time>
      </trkpt>
      <trkpt lat="43.98619" lon="5.26708">
        <ele>673</ele>
        <time>2019-10-02T10:44:33Z</time>
      </trkpt>
      <trkpt lat="43.98627" lon="5.267">
        <ele>675</ele>
        <time>2019-10-02T10:44:43Z</time>
      </trkpt>
      <trkpt lat="43.98636" lon="5.26696">
        <ele>677</ele>
        <time>2019-10-02T10:44:51Z</time>
      </trkpt>
      <trkpt lat="43.98646" lon="5.26694">
        <ele>678</ele>
        <time>2019-10-02T10:45:01Z</time>
      </trkpt>
      <trkpt lat="43.98655" lon="5.26696">
        <ele>679</ele>
        <time>2019-10-02T10:45:11Z</time>
      </trkpt>
      <trkpt lat="43.98665" lon="5.26694">
        <ele>680</ele>
        <time>2019-10-02T10:45:21Z</time>
      </trkpt>
      <trkpt lat="43.98675" lon="5.26697">
        <ele>680</ele>
        <time>2019-10-02T10:45:32Z</time>
      </trkpt>
      <trkpt lat="43.98682" lon="5.26689">
        <ele>681</ele>
        <time>2019-10-02T10:45:43Z</time>
      </trkpt>
      <trkpt lat="43.98691" lon="5.26684">
        <ele>681</ele>
        <time>2019-10-02T10:45:51Z</time>
      </trkpt>
      <trkpt lat="43.987" lon="5.26681">
        <ele>682</ele>
        <time>2019-10-02T10:45:59Z</time>
      </trkpt>
      <trkpt lat="43.9871" lon="5.26685">
        <ele>682</ele>
        <time>2019-10-02T10:46:10Z</time>
      </trkpt>
      <trkpt lat="43.98717" lon="5.26693">
        <ele>682</ele>
        <time>2019-10-02T10:46:21Z</time>
      </trkpt>
      <trkpt lat="43.98726" lon="5.26698">
        <ele>683</ele>
        <time>2019-10-02T10:46:30Z</time>
      </trkpt>
      <trkpt lat="43.98735" lon="5.267">
        <ele>684</ele>
        <time>2019-10-02T10:46:42Z</time>
      </trkpt>
      <trkpt lat="43.98744" lon="5.26705">
        <ele>684</ele>
        <time>2019-10-02T10:46:53Z</time>
      </trkpt>
      <trkpt lat="43.98752" lon="5.26712">
        <ele>685</ele>
        <time>2019-10-02T10:47:02Z</time>
      </trkpt>
      <trkpt lat="43.98755" lon="5.26725">
        <ele>686</ele>
        <time>2019-10-02T10:47:18Z</time>
      </trkpt>
      <trkpt lat="43.98762" lon="5.26733">
        <ele>688</ele>
        <time>2019-10-02T10:47:32Z</time>
      </trkpt>
      <trkpt lat="43.98771" lon="5.26738">
        <ele>689</ele>
        <time>2019-10-02T10:47:44Z</time>
      </trkpt>
      <trkpt lat="43.9878" lon="5.26736">
        <ele>690</ele>
        <time>2019-10-02T10:47:56Z</time>
      </trkpt>
      <trkpt lat="43.98789" lon="5.2673">
        <ele>690</ele>
        <time>2019-10-02T10:48:08Z</time>
      </trkpt>
      <trkpt lat="43.98807" lon="5.26723">
        <ele>690</ele>
        <time>2019-10-02T10:48:27Z</time>
      </trkpt>
      <trkpt lat="43.98817" lon="5.26722">
        <ele>691</ele>
        <time>2019-10-02T10:48:37Z</time>
      </trkpt>
      <trkpt lat="43.98826" lon="5.26719">
        <ele>692</ele>
        <time>2019-10-02T10:48:47Z</time>
      </trkpt>
      <trkpt lat="43.98835" lon="5.26718">
        <ele>693</ele>
        <time>2019-10-02T10:48:58Z</time>
      </trkpt>
      <trkpt lat="43.98845" lon="5.26721">
        <ele>694</ele>
        <time>2019-10-02T10:49:08Z</time>
      </trkpt>
      <trkpt lat="43.98864" lon="5.26727">
        <ele>696</ele>
        <time>2019-10-02T10:49:32Z</time>
      </trkpt>
      <trkpt lat="43.98873" lon="5.2673">
        <ele>697</ele>
        <time>2019-10-02T10:49:43Z</time>
      </trkpt>
      <trkpt lat="43.98882" lon="5.26728">
        <ele>697</ele>
        <time>2019-10-02T10:49:56Z</time>
      </trkpt>
      <trkpt lat="43.98891" lon="5.26727">
        <ele>698</ele>
        <time>2019-10-02T10:50:06Z</time>
      </trkpt>
      <trkpt lat="43.98901" lon="5.26726">
        <ele>699</ele>
        <time>2019-10-02T10:50:22Z</time>
      </trkpt>
      <trkpt lat="43.9891" lon="5.26728">
        <ele>700</ele>
        <time>2019-10-02T10:50:33Z</time>
      </trkpt>
      <trkpt lat="43.9892" lon="5.26726">
        <ele>700</ele>
        <time>2019-10-02T10:50:46Z</time>
      </trkpt>
      <trkpt lat="43.98929" lon="5.26726">
        <ele>702</ele>
        <time>2019-10-02T10:51:02Z</time>
      </trkpt>
      <trkpt lat="43.98938" lon="5.26723">
        <ele>704</ele>
        <time>2019-10-02T10:51:14Z</time>
      </trkpt>
      <trkpt lat="43.98948" lon="5.26723">
        <ele>705</ele>
        <time>2019-10-02T10:51:29Z</time>
      </trkpt>
      <trkpt lat="43.98956" lon="5.26719">
        <ele>707</ele>
        <time>2019-10-02T10:51:39Z</time>
      </trkpt>
      <trkpt lat="43.98976" lon="5.26714">
        <ele>710</ele>
        <time>2019-10-02T10:52:06Z</time>
      </trkpt>
      <trkpt lat="43.98984" lon="5.26709">
        <ele>711</ele>
        <time>2019-10-02T10:52:18Z</time>
      </trkpt>
      <trkpt lat="43.98992" lon="5.26703">
        <ele>712</ele>
        <time>2019-10-02T10:52:42Z</time>
      </trkpt>
      <trkpt lat="43.99" lon="5.26695">
        <ele>713</ele>
        <time>2019-10-02T10:52:52Z</time>
      </trkpt>
      <trkpt lat="43.99007" lon="5.26688">
        <ele>714</ele>
        <time>2019-10-02T10:53:08Z</time>
      </trkpt>
      <trkpt lat="43.99017" lon="5.26684">
        <ele>715</ele>
        <time>2019-10-02T10:53:32Z</time>
      </trkpt>
      <trkpt lat="43.99026" lon="5.2668">
        <ele>716</ele>
        <time>2019-10-02T10:53:42Z</time>
      </trkpt>
      <trkpt lat="43.99035" lon="5.26682">
        <ele>717</ele>
        <time>2019-10-02T10:53:52Z</time>
      </trkpt>
      <trkpt lat="43.99045" lon="5.26681">
        <ele>718</ele>
        <time>2019-10-02T10:54:05Z</time>
      </trkpt>
      <trkpt lat="43.99053" lon="5.26677">
        <ele>720</ele>
        <time>2019-10-02T10:54:19Z</time>
      </trkpt>
      <trkpt lat="43.99062" lon="5.26675">
        <ele>721</ele>
        <time>2019-10-02T10:54:45Z</time>
      </trkpt>
      <trkpt lat="43.99072" lon="5.26677">
        <ele>722</ele>
        <time>2019-10-02T10:56:13Z</time>
      </trkpt>
      <trkpt lat="43.99081" lon="5.26684">
        <ele>723</ele>
        <time>2019-10-02T10:56:20Z</time>
      </trkpt>
      <trkpt lat="43.99088" lon="5.26694">
        <ele>723</ele>
        <time>2019-10-02T10:56:31Z</time>
      </trkpt>
      <trkpt lat="43.99095" lon="5.26705">
        <ele>724</ele>
        <time>2019-10-02T10:56:46Z</time>
      </trkpt>
      <trkpt lat="43.99104" lon="5.26713">
        <ele>726</ele>
        <time>2019-10-02T10:57:06Z</time>
      </trkpt>
      <trkpt lat="43.99113" lon="5.26715">
        <ele>727</ele>
        <time>2019-10-02T10:57:22Z</time>
      </trkpt>
      <trkpt lat="43.99122" lon="5.26718">
        <ele>728</ele>
        <time>2019-10-02T10:57:34Z</time>
      </trkpt>
      <trkpt lat="43.99119" lon="5.26732">
        <ele>729</ele>
        <time>2019-10-02T10:58:35Z</time>
      </trkpt>
      <trkpt lat="43.99129" lon="5.26732">
        <ele>730</ele>
        <time>2019-10-02T10:58:51Z</time>
      </trkpt>
      <trkpt lat="43.99138" lon="5.26727">
        <ele>730</ele>
        <time>2019-10-02T10:58:59Z</time>
      </trkpt>
      <trkpt lat="43.99147" lon="5.26727">
        <ele>731</ele>
        <time>2019-10-02T10:59:06Z</time>
      </trkpt>
      <trkpt lat="43.99157" lon="5.26727">
        <ele>732</ele>
        <time>2019-10-02T10:59:20Z</time>
      </trkpt>
      <trkpt lat="43.99167" lon="5.26725">
        <ele>733</ele>
        <time>2019-10-02T10:59:29Z</time>
      </trkpt>
      <trkpt lat="43.99176" lon="5.26728">
        <ele>734</ele>
        <time>2019-10-02T10:59:39Z</time>
      </trkpt>
      <trkpt lat="43.99186" lon="5.26729">
        <ele>734</ele>
        <time>2019-10-02T10:59:46Z</time>
      </trkpt>
      <trkpt lat="43.99195" lon="5.26729">
        <ele>735</ele>
        <time>2019-10-02T10:59:54Z</time>
      </trkpt>
      <trkpt lat="43.99204" lon="5.26733">
        <ele>736</ele>
        <time>2019-10-02T11:00:02Z</time>
      </trkpt>
      <trkpt lat="43.99212" lon="5.26738">
        <ele>736</ele>
        <time>2019-10-02T11:00:19Z</time>
      </trkpt>
      <trkpt lat="43.99221" lon="5.26741">
        <ele>736</ele>
        <time>2019-10-02T11:00:29Z</time>
      </trkpt>
      <trkpt lat="43.99229" lon="5.2675">
        <ele>736</ele>
        <time>2019-10-02T11:00:36Z</time>
      </trkpt>
      <trkpt lat="43.99237" lon="5.26755">
        <ele>738</ele>
        <time>2019-10-02T11:00:46Z</time>
      </trkpt>
      <trkpt lat="43.99245" lon="5.26761">
        <ele>739</ele>
        <time>2019-10-02T11:00:59Z</time>
      </trkpt>
      <trkpt lat="43.99261" lon="5.26776">
        <ele>741</ele>
        <time>2019-10-02T11:01:19Z</time>
      </trkpt>
      <trkpt lat="43.99269" lon="5.26784">
        <ele>742</ele>
        <time>2019-10-02T11:01:28Z</time>
      </trkpt>
      <trkpt lat="43.99276" lon="5.26793">
        <ele>742</ele>
        <time>2019-10-02T11:01:39Z</time>
      </trkpt>
      <trkpt lat="43.9928" lon="5.26806">
        <ele>743</ele>
        <time>2019-10-02T11:01:50Z</time>
      </trkpt>
      <trkpt lat="43.99287" lon="5.26815">
        <ele>744</ele>
        <time>2019-10-02T11:02:02Z</time>
      </trkpt>
      <trkpt lat="43.99294" lon="5.26823">
        <ele>745</ele>
        <time>2019-10-02T11:02:14Z</time>
      </trkpt>
      <trkpt lat="43.99305" lon="5.26843">
        <ele>745</ele>
        <time>2019-10-02T11:02:40Z</time>
      </trkpt>
      <trkpt lat="43.99312" lon="5.26851">
        <ele>746</ele>
        <time>2019-10-02T11:02:50Z</time>
      </trkpt>
      <trkpt lat="43.99319" lon="5.26858">
        <ele>746</ele>
        <time>2019-10-02T11:03:04Z</time>
      </trkpt>
      <trkpt lat="43.99328" lon="5.26857">
        <ele>747</ele>
        <time>2019-10-02T11:03:23Z</time>
      </trkpt>
      <trkpt lat="43.99337" lon="5.26851">
        <ele>749</ele>
        <time>2019-10-02T11:03:42Z</time>
      </trkpt>
      <trkpt lat="43.99345" lon="5.26845">
        <ele>751</ele>
        <time>2019-10-02T11:03:57Z</time>
      </trkpt>
      <trkpt lat="43.99354" lon="5.2684">
        <ele>754</ele>
        <time>2019-10-02T11:04:10Z</time>
      </trkpt>
      <trkpt lat="43.99363" lon="5.26839">
        <ele>755</ele>
        <time>2019-10-02T11:04:22Z</time>
      </trkpt>
      <trkpt lat="43.99372" lon="5.26834">
        <ele>757</ele>
        <time>2019-10-02T11:04:36Z</time>
      </trkpt>
      <trkpt lat="43.99375" lon="5.26846">
        <ele>758</ele>
        <time>2019-10-02T11:04:48Z</time>
      </trkpt>
      <trkpt lat="43.99373" lon="5.2686">
        <ele>757</ele>
        <time>2019-10-02T11:04:59Z</time>
      </trkpt>
      <trkpt lat="43.99372" lon="5.26872">
        <ele>757</ele>
        <time>2019-10-02T11:05:14Z</time>
      </trkpt>
      <trkpt lat="43.99373" lon="5.26885">
        <ele>757</ele>
        <time>2019-10-02T11:05:25Z</time>
      </trkpt>
      <trkpt lat="43.99378" lon="5.26896">
        <ele>758</ele>
        <time>2019-10-02T11:05:34Z</time>
      </trkpt>
      <trkpt lat="43.99384" lon="5.26907">
        <ele>759</ele>
        <time>2019-10-02T11:05:47Z</time>
      </trkpt>
      <trkpt lat="43.99391" lon="5.26932">
        <ele>760</ele>
        <time>2019-10-02T11:06:05Z</time>
      </trkpt>
      <trkpt lat="43.99391" lon="5.26945">
        <ele>761</ele>
        <time>2019-10-02T11:06:15Z</time>
      </trkpt>
      <trkpt lat="43.99395" lon="5.26956">
        <ele>762</ele>
        <time>2019-10-02T11:06:25Z</time>
      </trkpt>
      <trkpt lat="43.99398" lon="5.26968">
        <ele>763</ele>
        <time>2019-10-02T11:06:35Z</time>
      </trkpt>
      <trkpt lat="43.99402" lon="5.2698">
        <ele>764</ele>
        <time>2019-10-02T11:06:46Z</time>
      </trkpt>
      <trkpt lat="43.99406" lon="5.26991">
        <ele>765</ele>
        <time>2019-10-02T11:06:56Z</time>
      </trkpt>
      <trkpt lat="43.99408" lon="5.27004">
        <ele>766</ele>
        <time>2019-10-02T11:07:12Z</time>
      </trkpt>
      <trkpt lat="43.99413" lon="5.27016">
        <ele>767</ele>
        <time>2019-10-02T11:07:26Z</time>
      </trkpt>
      <trkpt lat="43.99415" lon="5.27028">
        <ele>767</ele>
        <time>2019-10-02T11:07:38Z</time>
      </trkpt>
      <trkpt lat="43.99419" lon="5.27039">
        <ele>769</ele>
        <time>2019-10-02T11:07:53Z</time>
      </trkpt>
      <trkpt lat="43.99423" lon="5.27052">
        <ele>770</ele>
        <time>2019-10-02T11:08:20Z</time>
      </trkpt>
      <trkpt lat="43.99427" lon="5.27064">
        <ele>772</ele>
        <time>2019-10-02T11:08:31Z</time>
      </trkpt>
      <trkpt lat="43.99432" lon="5.27074">
        <ele>773</ele>
        <time>2019-10-02T11:08:45Z</time>
      </trkpt>
      <trkpt lat="43.99439" lon="5.27084">
        <ele>775</ele>
        <time>2019-10-02T11:08:59Z</time>
      </trkpt>
      <trkpt lat="43.99443" lon="5.27096">
        <ele>776</ele>
        <time>2019-10-02T11:09:11Z</time>
      </trkpt>
      <trkpt lat="43.99449" lon="5.27106">
        <ele>778</ele>
        <time>2019-10-02T11:09:24Z</time>
      </trkpt>
      <trkpt lat="43.99459" lon="5.27128">
        <ele>780</ele>
        <time>2019-10-02T11:09:52Z</time>
      </trkpt>
      <trkpt lat="43.99463" lon="5.2714">
        <ele>780</ele>
        <time>2019-10-02T11:10:01Z</time>
      </trkpt>
      <trkpt lat="43.99464" lon="5.27153">
        <ele>781</ele>
        <time>2019-10-02T11:10:13Z</time>
      </trkpt>
      <trkpt lat="43.99466" lon="5.27165">
        <ele>782</ele>
        <time>2019-10-02T11:10:25Z</time>
      </trkpt>
      <trkpt lat="43.99471" lon="5.27176">
        <ele>783</ele>
        <time>2019-10-02T11:10:36Z</time>
      </trkpt>
      <trkpt lat="43.99474" lon="5.27189">
        <ele>783</ele>
        <time>2019-10-02T11:10:48Z</time>
      </trkpt>
      <trkpt lat="43.99475" lon="5.27201">
        <ele>784</ele>
        <time>2019-10-02T11:11:15Z</time>
      </trkpt>
      <trkpt lat="43.99477" lon="5.27214">
        <ele>785</ele>
        <time>2019-10-02T11:11:24Z</time>
      </trkpt>
      <trkpt lat="43.99487" lon="5.27213">
        <ele>785</ele>
        <time>2019-10-02T11:11:39Z</time>
      </trkpt>
      <trkpt lat="43.99496" lon="5.27217">
        <ele>785</ele>
        <time>2019-10-02T11:11:50Z</time>
      </trkpt>
      <trkpt lat="43.99505" lon="5.27216">
        <ele>785</ele>
        <time>2019-10-02T11:12:11Z</time>
      </trkpt>
      <trkpt lat="43.99515" lon="5.27221">
        <ele>784</ele>
        <time>2019-10-02T11:12:23Z</time>
      </trkpt>
      <trkpt lat="43.99513" lon="5.27233">
        <ele>784</ele>
        <time>2019-10-02T11:12:39Z</time>
      </trkpt>
      <trkpt lat="43.99518" lon="5.27231">
        <ele>784</ele>
        <time>2019-10-02T11:44:52Z</time>
      </trkpt>
      <trkpt lat="43.99526" lon="5.27238">
        <ele>783</ele>
        <time>2019-10-02T11:47:05Z</time>
      </trkpt>
      <trkpt lat="43.99534" lon="5.27241">
        <ele>718</ele>
        <time>2019-10-02T11:56:06Z</time>
      </trkpt>
      <trkpt lat="43.99528" lon="5.27232">
        <ele>733</ele>
        <time>2019-10-02T11:57:05Z</time>
      </trkpt>
      <trkpt lat="43.99521" lon="5.2724">
        <ele>739</ele>
        <time>2019-10-02T11:57:21Z</time>
      </trkpt>
      <trkpt lat="43.99521" lon="5.27254">
        <ele>784</ele>
        <time>2019-10-02T11:58:55Z</time>
      </trkpt>
      <trkpt lat="43.99517" lon="5.27266">
        <ele>784</ele>
        <time>2019-10-02T11:59:08Z</time>
      </trkpt>
      <trkpt lat="43.99513" lon="5.27277">
        <ele>784</ele>
        <time>2019-10-02T11:59:18Z</time>
      </trkpt>
      <trkpt lat="43.99502" lon="5.27299">
        <ele>785</ele>
        <time>2019-10-02T11:59:35Z</time>
      </trkpt>
      <trkpt lat="43.99496" lon="5.27309">
        <ele>785</ele>
        <time>2019-10-02T11:59:43Z</time>
      </trkpt>
      <trkpt lat="43.99495" lon="5.27322">
        <ele>785</ele>
        <time>2019-10-02T11:59:52Z</time>
      </trkpt>
      <trkpt lat="43.99493" lon="5.27335">
        <ele>784</ele>
        <time>2019-10-02T12:00:02Z</time>
      </trkpt>
      <trkpt lat="43.99491" lon="5.27348">
        <ele>783</ele>
        <time>2019-10-02T12:00:11Z</time>
      </trkpt>
      <trkpt lat="43.99488" lon="5.27361">
        <ele>783</ele>
        <time>2019-10-02T12:00:21Z</time>
      </trkpt>
      <trkpt lat="43.99487" lon="5.27374">
        <ele>782</ele>
        <time>2019-10-02T12:00:30Z</time>
      </trkpt>
      <trkpt lat="43.99485" lon="5.27387">
        <ele>781</ele>
        <time>2019-10-02T12:00:43Z</time>
      </trkpt>
      <trkpt lat="43.99481" lon="5.274">
        <ele>781</ele>
        <time>2019-10-02T12:00:52Z</time>
      </trkpt>
      <trkpt lat="43.9948" lon="5.27412">
        <ele>781</ele>
        <time>2019-10-02T12:01:05Z</time>
      </trkpt>
      <trkpt lat="43.99479" lon="5.27426">
        <ele>781</ele>
        <time>2019-10-02T12:01:15Z</time>
      </trkpt>
      <trkpt lat="43.99477" lon="5.27439">
        <ele>780</ele>
        <time>2019-10-02T12:01:24Z</time>
      </trkpt>
      <trkpt lat="43.99474" lon="5.2745">
        <ele>780</ele>
        <time>2019-10-02T12:01:36Z</time>
      </trkpt>
      <trkpt lat="43.9947" lon="5.27462">
        <ele>781</ele>
        <time>2019-10-02T12:01:45Z</time>
      </trkpt>
      <trkpt lat="43.99468" lon="5.27476">
        <ele>781</ele>
        <time>2019-10-02T12:01:56Z</time>
      </trkpt>
      <trkpt lat="43.99465" lon="5.27488">
        <ele>782</ele>
        <time>2019-10-02T12:02:07Z</time>
      </trkpt>
      <trkpt lat="43.99467" lon="5.27501">
        <ele>781</ele>
        <time>2019-10-02T12:02:14Z</time>
      </trkpt>
      <trkpt lat="43.99468" lon="5.27514">
        <ele>781</ele>
        <time>2019-10-02T12:02:24Z</time>
      </trkpt>
      <trkpt lat="43.99473" lon="5.27538">
        <ele>780</ele>
        <time>2019-10-02T12:02:41Z</time>
      </trkpt>
      <trkpt lat="43.99482" lon="5.27562">
        <ele>779</ele>
        <time>2019-10-02T12:02:59Z</time>
      </trkpt>
      <trkpt lat="43.99492" lon="5.27584">
        <ele>778</ele>
        <time>2019-10-02T12:03:16Z</time>
      </trkpt>
      <trkpt lat="43.99498" lon="5.27593">
        <ele>777</ele>
        <time>2019-10-02T12:03:26Z</time>
      </trkpt>
      <trkpt lat="43.99503" lon="5.27605">
        <ele>777</ele>
        <time>2019-10-02T12:03:36Z</time>
      </trkpt>
      <trkpt lat="43.99514" lon="5.27626">
        <ele>778</ele>
        <time>2019-10-02T12:03:56Z</time>
      </trkpt>
      <trkpt lat="43.99519" lon="5.27637">
        <ele>779</ele>
        <time>2019-10-02T12:04:08Z</time>
      </trkpt>
      <trkpt lat="43.99523" lon="5.2765">
        <ele>780</ele>
        <time>2019-10-02T12:04:19Z</time>
      </trkpt>
      <trkpt lat="43.9953" lon="5.2766">
        <ele>780</ele>
        <time>2019-10-02T12:04:29Z</time>
      </trkpt>
      <trkpt lat="43.99535" lon="5.2767">
        <ele>780</ele>
        <time>2019-10-02T12:04:40Z</time>
      </trkpt>
      <trkpt lat="43.99539" lon="5.27682">
        <ele>782</ele>
        <time>2019-10-02T12:04:52Z</time>
      </trkpt>
      <trkpt lat="43.99543" lon="5.27694">
        <ele>784</ele>
        <time>2019-10-02T12:05:01Z</time>
      </trkpt>
      <trkpt lat="43.99548" lon="5.27705">
        <ele>785</ele>
        <time>2019-10-02T12:05:13Z</time>
      </trkpt>
      <trkpt lat="43.99553" lon="5.27715">
        <ele>786</ele>
        <time>2019-10-02T12:05:24Z</time>
      </trkpt>
      <trkpt lat="43.99559" lon="5.27725">
        <ele>788</ele>
        <time>2019-10-02T12:05:34Z</time>
      </trkpt>
      <trkpt lat="43.9957" lon="5.27747">
        <ele>789</ele>
        <time>2019-10-02T12:05:57Z</time>
      </trkpt>
      <trkpt lat="43.99575" lon="5.27758">
        <ele>790</ele>
        <time>2019-10-02T12:06:08Z</time>
      </trkpt>
      <trkpt lat="43.99579" lon="5.27769">
        <ele>791</ele>
        <time>2019-10-02T12:06:18Z</time>
      </trkpt>
      <trkpt lat="43.99585" lon="5.2778">
        <ele>793</ele>
        <time>2019-10-02T12:06:29Z</time>
      </trkpt>
      <trkpt lat="43.9959" lon="5.2779">
        <ele>793</ele>
        <time>2019-10-02T12:06:42Z</time>
      </trkpt>
      <trkpt lat="43.99596" lon="5.27799">
        <ele>794</ele>
        <time>2019-10-02T12:06:52Z</time>
      </trkpt>
      <trkpt lat="43.99601" lon="5.27811">
        <ele>794</ele>
        <time>2019-10-02T12:07:05Z</time>
      </trkpt>
      <trkpt lat="43.99608" lon="5.2782">
        <ele>794</ele>
        <time>2019-10-02T12:07:13Z</time>
      </trkpt>
      <trkpt lat="43.99615" lon="5.27844">
        <ele>795</ele>
        <time>2019-10-02T12:07:33Z</time>
      </trkpt>
      <trkpt lat="43.99618" lon="5.27858">
        <ele>795</ele>
        <time>2019-10-02T12:07:44Z</time>
      </trkpt>
      <trkpt lat="43.99621" lon="5.27871">
        <ele>795</ele>
        <time>2019-10-02T12:07:51Z</time>
      </trkpt>
      <trkpt lat="43.99619" lon="5.27883">
        <ele>795</ele>
        <time>2019-10-02T12:07:59Z</time>
      </trkpt>
      <trkpt lat="43.99617" lon="5.27896">
        <ele>795</ele>
        <time>2019-10-02T12:08:10Z</time>
      </trkpt>
      <trkpt lat="43.99618" lon="5.27909">
        <ele>796</ele>
        <time>2019-10-02T12:08:20Z</time>
      </trkpt>
      <trkpt lat="43.99617" lon="5.27922">
        <ele>797</ele>
        <time>2019-10-02T12:08:28Z</time>
      </trkpt>
      <trkpt lat="43.9962" lon="5.27948">
        <ele>796</ele>
        <time>2019-10-02T12:08:46Z</time>
      </trkpt>
      <trkpt lat="43.99621" lon="5.27962">
        <ele>796</ele>
        <time>2019-10-02T12:08:56Z</time>
      </trkpt>
      <trkpt lat="43.99621" lon="5.27975">
        <ele>796</ele>
        <time>2019-10-02T12:09:05Z</time>
      </trkpt>
      <trkpt lat="43.99619" lon="5.27989">
        <ele>796</ele>
        <time>2019-10-02T12:09:16Z</time>
      </trkpt>
      <trkpt lat="43.99618" lon="5.28001">
        <ele>795</ele>
        <time>2019-10-02T12:09:26Z</time>
      </trkpt>
      <trkpt lat="43.99619" lon="5.28015">
        <ele>794</ele>
        <time>2019-10-02T12:09:34Z</time>
      </trkpt>
      <trkpt lat="43.9962" lon="5.28027">
        <ele>794</ele>
        <time>2019-10-02T12:09:43Z</time>
      </trkpt>
      <trkpt lat="43.99623" lon="5.2804">
        <ele>793</ele>
        <time>2019-10-02T12:09:51Z</time>
      </trkpt>
      <trkpt lat="43.99623" lon="5.28053">
        <ele>793</ele>
        <time>2019-10-02T12:09:58Z</time>
      </trkpt>
      <trkpt lat="43.99624" lon="5.2808">
        <ele>792</ele>
        <time>2019-10-02T12:10:22Z</time>
      </trkpt>
      <trkpt lat="43.99622" lon="5.28092">
        <ele>792</ele>
        <time>2019-10-02T12:10:31Z</time>
      </trkpt>
      <trkpt lat="43.99623" lon="5.28106">
        <ele>791</ele>
        <time>2019-10-02T12:10:40Z</time>
      </trkpt>
      <trkpt lat="43.99623" lon="5.28119">
        <ele>790</ele>
        <time>2019-10-02T12:10:51Z</time>
      </trkpt>
      <trkpt lat="43.99624" lon="5.28132">
        <ele>790</ele>
        <time>2019-10-02T12:10:58Z</time>
      </trkpt>
      <trkpt lat="43.99624" lon="5.28146">
        <ele>789</ele>
        <time>2019-10-02T12:11:11Z</time>
      </trkpt>
      <trkpt lat="43.99624" lon="5.28159">
        <ele>789</ele>
        <time>2019-10-02T12:11:20Z</time>
      </trkpt>
      <trkpt lat="43.99624" lon="5.28173">
        <ele>788</ele>
        <time>2019-10-02T12:11:29Z</time>
      </trkpt>
      <trkpt lat="43.99625" lon="5.28185">
        <ele>787</ele>
        <time>2019-10-02T12:11:38Z</time>
      </trkpt>
      <trkpt lat="43.99624" lon="5.28198">
        <ele>787</ele>
        <time>2019-10-02T12:11:47Z</time>
      </trkpt>
      <trkpt lat="43.99625" lon="5.28212">
        <ele>786</ele>
        <time>2019-10-02T12:11:57Z</time>
      </trkpt>
      <trkpt lat="43.99625" lon="5.28238">
        <ele>785</ele>
        <time>2019-10-02T12:12:17Z</time>
      </trkpt>
      <trkpt lat="43.99626" lon="5.28251">
        <ele>784</ele>
        <time>2019-10-02T12:12:27Z</time>
      </trkpt>
      <trkpt lat="43.99625" lon="5.28264">
        <ele>783</ele>
        <time>2019-10-02T12:12:36Z</time>
      </trkpt>
      <trkpt lat="43.99627" lon="5.28277">
        <ele>782</ele>
        <time>2019-10-02T12:12:47Z</time>
      </trkpt>
      <trkpt lat="43.99626" lon="5.28291">
        <ele>781</ele>
        <time>2019-10-02T12:12:59Z</time>
      </trkpt>
      <trkpt lat="43.99627" lon="5.28304">
        <ele>780</ele>
        <time>2019-10-02T12:13:07Z</time>
      </trkpt>
      <trkpt lat="43.99629" lon="5.28317">
        <ele>779</ele>
        <time>2019-10-02T12:13:16Z</time>
      </trkpt>
      <trkpt lat="43.9963" lon="5.28329">
        <ele>779</ele>
        <time>2019-10-02T12:13:25Z</time>
      </trkpt>
      <trkpt lat="43.9963" lon="5.28355">
        <ele>777</ele>
        <time>2019-10-02T12:13:47Z</time>
      </trkpt>
      <trkpt lat="43.99629" lon="5.28367">
        <ele>776</ele>
        <time>2019-10-02T12:13:57Z</time>
      </trkpt>
      <trkpt lat="43.9963" lon="5.28381">
        <ele>774</ele>
        <time>2019-10-02T12:14:09Z</time>
      </trkpt>
      <trkpt lat="43.9963" lon="5.28394">
        <ele>773</ele>
        <time>2019-10-02T12:14:17Z</time>
      </trkpt>
      <trkpt lat="43.99628" lon="5.28407">
        <ele>773</ele>
        <time>2019-10-02T12:14:26Z</time>
      </trkpt>
      <trkpt lat="43.99629" lon="5.2842">
        <ele>772</ele>
        <time>2019-10-02T12:14:36Z</time>
      </trkpt>
      <trkpt lat="43.99641" lon="5.2844">
        <ele>770</ele>
        <time>2019-10-02T12:14:52Z</time>
      </trkpt>
      <trkpt lat="43.99648" lon="5.2845">
        <ele>769</ele>
        <time>2019-10-02T12:15:02Z</time>
      </trkpt>
      <trkpt lat="43.99654" lon="5.2846">
        <ele>767</ele>
        <time>2019-10-02T12:15:13Z</time>
      </trkpt>
      <trkpt lat="43.99658" lon="5.28471">
        <ele>766</ele>
        <time>2019-10-02T12:15:28Z</time>
      </trkpt>
      <trkpt lat="43.99665" lon="5.2848">
        <ele>766</ele>
        <time>2019-10-02T12:15:37Z</time>
      </trkpt>
      <trkpt lat="43.99671" lon="5.28489">
        <ele>765</ele>
        <time>2019-10-02T12:16:00Z</time>
      </trkpt>
      <trkpt lat="43.99678" lon="5.28499">
        <ele>763</ele>
        <time>2019-10-02T12:16:08Z</time>
      </trkpt>
      <trkpt lat="43.99683" lon="5.2851">
        <ele>762</ele>
        <time>2019-10-02T12:16:17Z</time>
      </trkpt>
      <trkpt lat="43.9969" lon="5.28522">
        <ele>761</ele>
        <time>2019-10-02T12:16:27Z</time>
      </trkpt>
      <trkpt lat="43.99695" lon="5.28533">
        <ele>760</ele>
        <time>2019-10-02T12:16:37Z</time>
      </trkpt>
      <trkpt lat="43.99707" lon="5.28552">
        <ele>758</ele>
        <time>2019-10-02T12:16:53Z</time>
      </trkpt>
      <trkpt lat="43.99713" lon="5.28565">
        <ele>757</ele>
        <time>2019-10-02T12:17:03Z</time>
      </trkpt>
      <trkpt lat="43.9972" lon="5.28576">
        <ele>756</ele>
        <time>2019-10-02T12:17:13Z</time>
      </trkpt>
      <trkpt lat="43.99726" lon="5.28587">
        <ele>755</ele>
        <time>2019-10-02T12:17:22Z</time>
      </trkpt>
      <trkpt lat="43.99732" lon="5.28596">
        <ele>755</ele>
        <time>2019-10-02T12:17:30Z</time>
      </trkpt>
      <trkpt lat="43.99737" lon="5.28608">
        <ele>755</ele>
        <time>2019-10-02T12:17:40Z</time>
      </trkpt>
      <trkpt lat="43.99742" lon="5.28618">
        <ele>755</ele>
        <time>2019-10-02T12:17:48Z</time>
      </trkpt>
      <trkpt lat="43.99746" lon="5.28629">
        <ele>755</ele>
        <time>2019-10-02T12:17:58Z</time>
      </trkpt>
      <trkpt lat="43.99747" lon="5.28644">
        <ele>755</ele>
        <time>2019-10-02T12:18:38Z</time>
      </trkpt>
      <trkpt lat="43.99746" lon="5.28656">
        <ele>755</ele>
        <time>2019-10-02T12:18:47Z</time>
      </trkpt>
      <trkpt lat="43.99748" lon="5.2867">
        <ele>755</ele>
        <time>2019-10-02T12:18:57Z</time>
      </trkpt>
      <trkpt lat="43.99751" lon="5.28681">
        <ele>756</ele>
        <time>2019-10-02T12:21:25Z</time>
      </trkpt>
      <trkpt lat="43.99746" lon="5.2867">
        <ele>755</ele>
        <time>2019-10-02T12:23:39Z</time>
      </trkpt>
      <trkpt lat="43.99737" lon="5.28668">
        <ele>754</ele>
        <time>2019-10-02T12:23:55Z</time>
      </trkpt>
      <trkpt lat="43.99728" lon="5.28668">
        <ele>753</ele>
        <time>2019-10-02T12:24:04Z</time>
      </trkpt>
      <trkpt lat="43.99719" lon="5.28673">
        <ele>753</ele>
        <time>2019-10-02T12:24:16Z</time>
      </trkpt>
      <trkpt lat="43.9971" lon="5.28673">
        <ele>752</ele>
        <time>2019-10-02T12:24:27Z</time>
      </trkpt>
      <trkpt lat="43.99701" lon="5.28671">
        <ele>751</ele>
        <time>2019-10-02T12:24:46Z</time>
      </trkpt>
      <trkpt lat="43.99683" lon="5.28679">
        <ele>748</ele>
        <time>2019-10-02T12:25:10Z</time>
      </trkpt>
      <trkpt lat="43.99675" lon="5.28685">
        <ele>747</ele>
        <time>2019-10-02T12:25:21Z</time>
      </trkpt>
      <trkpt lat="43.99665" lon="5.28688">
        <ele>745</ele>
        <time>2019-10-02T12:25:34Z</time>
      </trkpt>
      <trkpt lat="43.99656" lon="5.28695">
        <ele>743</ele>
        <time>2019-10-02T12:25:48Z</time>
      </trkpt>
      <trkpt lat="43.99647" lon="5.28699">
        <ele>742</ele>
        <time>2019-10-02T12:26:01Z</time>
      </trkpt>
      <trkpt lat="43.99638" lon="5.28705">
        <ele>739</ele>
        <time>2019-10-02T12:26:11Z</time>
      </trkpt>
      <trkpt lat="43.99629" lon="5.28711">
        <ele>737</ele>
        <time>2019-10-02T12:26:23Z</time>
      </trkpt>
      <trkpt lat="43.99621" lon="5.2872">
        <ele>735</ele>
        <time>2019-10-02T12:26:39Z</time>
      </trkpt>
      <trkpt lat="43.99615" lon="5.2873">
        <ele>733</ele>
        <time>2019-10-02T12:26:48Z</time>
      </trkpt>
      <trkpt lat="43.99606" lon="5.28737">
        <ele>731</ele>
        <time>2019-10-02T12:27:00Z</time>
      </trkpt>
      <trkpt lat="43.99601" lon="5.28748">
        <ele>730</ele>
        <time>2019-10-02T12:27:12Z</time>
      </trkpt>
      <trkpt lat="43.99594" lon="5.28757">
        <ele>728</ele>
        <time>2019-10-02T12:27:26Z</time>
      </trkpt>
      <trkpt lat="43.99586" lon="5.28765">
        <ele>727</ele>
        <time>2019-10-02T12:27:39Z</time>
      </trkpt>
      <trkpt lat="43.99581" lon="5.28777">
        <ele>725</ele>
        <time>2019-10-02T12:27:53Z</time>
      </trkpt>
      <trkpt lat="43.99577" lon="5.2879">
        <ele>724</ele>
        <time>2019-10-02T12:28:04Z</time>
      </trkpt>
      <trkpt lat="43.99569" lon="5.28797">
        <ele>722</ele>
        <time>2019-10-02T12:28:14Z</time>
      </trkpt>
      <trkpt lat="43.99561" lon="5.28802">
        <ele>721</ele>
        <time>2019-10-02T12:28:27Z</time>
      </trkpt>
      <trkpt lat="43.99552" lon="5.28807">
        <ele>720</ele>
        <time>2019-10-02T12:28:41Z</time>
      </trkpt>
      <trkpt lat="43.99542" lon="5.28808">
        <ele>719</ele>
        <time>2019-10-02T12:28:50Z</time>
      </trkpt>
      <trkpt lat="43.99534" lon="5.28812">
        <ele>718</ele>
        <time>2019-10-02T12:28:59Z</time>
      </trkpt>
      <trkpt lat="43.99524" lon="5.2881">
        <ele>717</ele>
        <time>2019-10-02T12:29:08Z</time>
      </trkpt>
      <trkpt lat="43.99514" lon="5.28809">
        <ele>716</ele>
        <time>2019-10-02T12:29:18Z</time>
      </trkpt>
      <trkpt lat="43.99504" lon="5.28813">
        <ele>715</ele>
        <time>2019-10-02T12:29:28Z</time>
      </trkpt>
      <trkpt lat="43.99495" lon="5.28813">
        <ele>714</ele>
        <time>2019-10-02T12:29:35Z</time>
      </trkpt>
      <trkpt lat="43.99485" lon="5.28814">
        <ele>712</ele>
        <time>2019-10-02T12:29:45Z</time>
      </trkpt>
      <trkpt lat="43.99468" lon="5.28824">
        <ele>710</ele>
        <time>2019-10-02T12:30:04Z</time>
      </trkpt>
      <trkpt lat="43.99458" lon="5.28822">
        <ele>709</ele>
        <time>2019-10-02T12:30:12Z</time>
      </trkpt>
      <trkpt lat="43.99448" lon="5.28818">
        <ele>709</ele>
        <time>2019-10-02T12:30:23Z</time>
      </trkpt>
      <trkpt lat="43.99439" lon="5.2882">
        <ele>708</ele>
        <time>2019-10-02T12:30:33Z</time>
      </trkpt>
      <trkpt lat="43.99429" lon="5.28818">
        <ele>708</ele>
        <time>2019-10-02T12:30:44Z</time>
      </trkpt>
      <trkpt lat="43.9942" lon="5.28817">
        <ele>707</ele>
        <time>2019-10-02T12:30:53Z</time>
      </trkpt>
      <trkpt lat="43.99412" lon="5.28822">
        <ele>705</ele>
        <time>2019-10-02T12:31:03Z</time>
      </trkpt>
      <trkpt lat="43.99415" lon="5.28835">
        <ele>705</ele>
        <time>2019-10-02T12:31:16Z</time>
      </trkpt>
      <trkpt lat="43.99421" lon="5.28845">
        <ele>707</ele>
        <time>2019-10-02T12:31:33Z</time>
      </trkpt>
      <trkpt lat="43.99422" lon="5.28858">
        <ele>710</ele>
        <time>2019-10-02T12:31:53Z</time>
      </trkpt>
      <trkpt lat="43.99422" lon="5.28871">
        <ele>712</ele>
        <time>2019-10-02T12:32:18Z</time>
      </trkpt>
      <trkpt lat="43.99418" lon="5.28882">
        <ele>714</ele>
        <time>2019-10-02T12:32:45Z</time>
      </trkpt>
      <trkpt lat="43.99408" lon="5.28883">
        <ele>712</ele>
        <time>2019-10-02T12:32:57Z</time>
      </trkpt>
      <trkpt lat="43.99402" lon="5.28874">
        <ele>709</ele>
        <time>2019-10-02T12:33:33Z</time>
      </trkpt>
      <trkpt lat="43.99397" lon="5.28864">
        <ele>705</ele>
        <time>2019-10-02T12:34:19Z</time>
      </trkpt>
      <trkpt lat="43.99389" lon="5.28858">
        <ele>702</ele>
        <time>2019-10-02T12:35:16Z</time>
      </trkpt>
      <trkpt lat="43.99381" lon="5.28852">
        <ele>700</ele>
        <time>2019-10-02T12:35:46Z</time>
      </trkpt>
      <trkpt lat="43.99374" lon="5.28843">
        <ele>698</ele>
        <time>2019-10-02T12:36:26Z</time>
      </trkpt>
      <trkpt lat="43.99365" lon="5.28843">
        <ele>696</ele>
        <time>2019-10-02T12:36:43Z</time>
      </trkpt>
      <trkpt lat="43.99356" lon="5.28846">
        <ele>694</ele>
        <time>2019-10-02T12:36:53Z</time>
      </trkpt>
      <trkpt lat="43.99337" lon="5.28851">
        <ele>689</ele>
        <time>2019-10-02T12:37:13Z</time>
      </trkpt>
      <trkpt lat="43.99329" lon="5.28856">
        <ele>687</ele>
        <time>2019-10-02T12:37:27Z</time>
      </trkpt>
      <trkpt lat="43.99321" lon="5.28862">
        <ele>684</ele>
        <time>2019-10-02T12:37:35Z</time>
      </trkpt>
      <trkpt lat="43.99312" lon="5.28867">
        <ele>682</ele>
        <time>2019-10-02T12:37:46Z</time>
      </trkpt>
      <trkpt lat="43.99302" lon="5.28865">
        <ele>680</ele>
        <time>2019-10-02T12:37:56Z</time>
      </trkpt>
      <trkpt lat="43.99293" lon="5.28866">
        <ele>678</ele>
        <time>2019-10-02T12:38:06Z</time>
      </trkpt>
      <trkpt lat="43.99284" lon="5.28869">
        <ele>676</ele>
        <time>2019-10-02T12:38:22Z</time>
      </trkpt>
      <trkpt lat="43.99276" lon="5.28876">
        <ele>675</ele>
        <time>2019-10-02T12:38:35Z</time>
      </trkpt>
      <trkpt lat="43.99267" lon="5.28877">
        <ele>674</ele>
        <time>2019-10-02T12:38:48Z</time>
      </trkpt>
      <trkpt lat="43.99258" lon="5.28885">
        <ele>672</ele>
        <time>2019-10-02T12:38:57Z</time>
      </trkpt>
      <trkpt lat="43.99252" lon="5.28894">
        <ele>670</ele>
        <time>2019-10-02T12:39:07Z</time>
      </trkpt>
      <trkpt lat="43.99244" lon="5.28899">
        <ele>669</ele>
        <time>2019-10-02T12:39:20Z</time>
      </trkpt>
      <trkpt lat="43.99235" lon="5.289">
        <ele>667</ele>
        <time>2019-10-02T12:39:31Z</time>
      </trkpt>
      <trkpt lat="43.99226" lon="5.28903">
        <ele>665</ele>
        <time>2019-10-02T12:39:44Z</time>
      </trkpt>
      <trkpt lat="43.99217" lon="5.2891">
        <ele>663</ele>
        <time>2019-10-02T12:39:52Z</time>
      </trkpt>
      <trkpt lat="43.9921" lon="5.28918">
        <ele>661</ele>
        <time>2019-10-02T12:40:02Z</time>
      </trkpt>
      <trkpt lat="43.99204" lon="5.28928">
        <ele>660</ele>
        <time>2019-10-02T12:40:13Z</time>
      </trkpt>
      <trkpt lat="43.99196" lon="5.28933">
        <ele>659</ele>
        <time>2019-10-02T12:40:22Z</time>
      </trkpt>
      <trkpt lat="43.99187" lon="5.2894">
        <ele>657</ele>
        <time>2019-10-02T12:40:30Z</time>
      </trkpt>
      <trkpt lat="43.99178" lon="5.28943">
        <ele>655</ele>
        <time>2019-10-02T12:40:42Z</time>
      </trkpt>
      <trkpt lat="43.99173" lon="5.28953">
        <ele>653</ele>
        <time>2019-10-02T12:40:56Z</time>
      </trkpt>
      <trkpt lat="43.99165" lon="5.28961">
        <ele>651</ele>
        <time>2019-10-02T12:41:12Z</time>
      </trkpt>
      <trkpt lat="43.99157" lon="5.28968">
        <ele>649</ele>
        <time>2019-10-02T12:41:22Z</time>
      </trkpt>
      <trkpt lat="43.9915" lon="5.28978">
        <ele>648</ele>
        <time>2019-10-02T12:41:34Z</time>
      </trkpt>
      <trkpt lat="43.99143" lon="5.28987">
        <ele>648</ele>
        <time>2019-10-02T12:41:43Z</time>
      </trkpt>
      <trkpt lat="43.99134" lon="5.2899">
        <ele>647</ele>
        <time>2019-10-02T12:41:55Z</time>
      </trkpt>
      <trkpt lat="43.99125" lon="5.2899">
        <ele>646</ele>
        <time>2019-10-02T12:42:06Z</time>
      </trkpt>
      <trkpt lat="43.99116" lon="5.28992">
        <ele>646</ele>
        <time>2019-10-02T12:42:16Z</time>
      </trkpt>
      <trkpt lat="43.99106" lon="5.2899">
        <ele>645</ele>
        <time>2019-10-02T12:43:06Z</time>
      </trkpt>
      <trkpt lat="43.99097" lon="5.28988">
        <ele>645</ele>
        <time>2019-10-02T12:43:39Z</time>
      </trkpt>
      <trkpt lat="43.99094" lon="5.29">
        <ele>643</ele>
        <time>2019-10-02T12:43:53Z</time>
      </trkpt>
      <trkpt lat="43.99086" lon="5.29006">
        <ele>642</ele>
        <time>2019-10-02T12:44:09Z</time>
      </trkpt>
      <trkpt lat="43.99079" lon="5.29014">
        <ele>640</ele>
        <time>2019-10-02T12:45:45Z</time>
      </trkpt>
      <trkpt lat="43.99077" lon="5.29027">
        <ele>638</ele>
        <time>2019-10-02T12:45:54Z</time>
      </trkpt>
      <trkpt lat="43.99072" lon="5.29041">
        <ele>637</ele>
        <time>2019-10-02T12:46:04Z</time>
      </trkpt>
      <trkpt lat="43.99066" lon="5.29051">
        <ele>635</ele>
        <time>2019-10-02T12:46:11Z</time>
      </trkpt>
      <trkpt lat="43.99062" lon="5.29063">
        <ele>633</ele>
        <time>2019-10-02T12:46:18Z</time>
      </trkpt>
      <trkpt lat="43.99056" lon="5.29073">
        <ele>631</ele>
        <time>2019-10-02T12:46:28Z</time>
      </trkpt>
      <trkpt lat="43.9905" lon="5.29084">
        <ele>630</ele>
        <time>2019-10-02T12:46:37Z</time>
      </trkpt>
      <trkpt lat="43.99036" lon="5.29101">
        <ele>629</ele>
        <time>2019-10-02T12:46:55Z</time>
      </trkpt>
      <trkpt lat="43.99027" lon="5.29107">
        <ele>628</ele>
        <time>2019-10-02T12:47:07Z</time>
      </trkpt>
      <trkpt lat="43.99018" lon="5.2911">
        <ele>626</ele>
        <time>2019-10-02T12:47:17Z</time>
      </trkpt>
      <trkpt lat="43.99009" lon="5.29114">
        <ele>626</ele>
        <time>2019-10-02T12:47:25Z</time>
      </trkpt>
      <trkpt lat="43.98999" lon="5.29118">
        <ele>625</ele>
        <time>2019-10-02T12:47:34Z</time>
      </trkpt>
      <trkpt lat="43.98991" lon="5.29125">
        <ele>625</ele>
        <time>2019-10-02T12:47:44Z</time>
      </trkpt>
      <trkpt lat="43.98984" lon="5.29134">
        <ele>624</ele>
        <time>2019-10-02T12:47:54Z</time>
      </trkpt>
      <trkpt lat="43.98976" lon="5.29139">
        <ele>623</ele>
        <time>2019-10-02T12:48:03Z</time>
      </trkpt>
      <trkpt lat="43.98967" lon="5.29135">
        <ele>622</ele>
        <time>2019-10-02T12:48:10Z</time>
      </trkpt>
      <trkpt lat="43.98956" lon="5.29132">
        <ele>621</ele>
        <time>2019-10-02T12:48:17Z</time>
      </trkpt>
      <trkpt lat="43.98947" lon="5.29136">
        <ele>620</ele>
        <time>2019-10-02T12:48:26Z</time>
      </trkpt>
      <trkpt lat="43.9894" lon="5.29144">
        <ele>620</ele>
        <time>2019-10-02T12:48:34Z</time>
      </trkpt>
      <trkpt lat="43.98935" lon="5.29155">
        <ele>620</ele>
        <time>2019-10-02T12:48:43Z</time>
      </trkpt>
      <trkpt lat="43.98931" lon="5.29168">
        <ele>621</ele>
        <time>2019-10-02T12:48:52Z</time>
      </trkpt>
      <trkpt lat="43.98924" lon="5.29158">
        <ele>620</ele>
        <time>2019-10-02T12:49:25Z</time>
      </trkpt>
      <trkpt lat="43.98917" lon="5.29148">
        <ele>618</ele>
        <time>2019-10-02T12:49:34Z</time>
      </trkpt>
      <trkpt lat="43.98913" lon="5.29136">
        <ele>617</ele>
        <time>2019-10-02T12:49:43Z</time>
      </trkpt>
      <trkpt lat="43.98906" lon="5.29126">
        <ele>618</ele>
        <time>2019-10-02T12:49:50Z</time>
      </trkpt>
      <trkpt lat="43.98901" lon="5.29115">
        <ele>618</ele>
        <time>2019-10-02T12:49:59Z</time>
      </trkpt>
      <trkpt lat="43.98895" lon="5.29106">
        <ele>617</ele>
        <time>2019-10-02T12:50:09Z</time>
      </trkpt>
      <trkpt lat="43.98886" lon="5.29099">
        <ele>617</ele>
        <time>2019-10-02T12:50:18Z</time>
      </trkpt>
      <trkpt lat="43.98876" lon="5.29093">
        <ele>618</ele>
        <time>2019-10-02T12:50:26Z</time>
      </trkpt>
      <trkpt lat="43.98868" lon="5.29086">
        <ele>617</ele>
        <time>2019-10-02T12:50:35Z</time>
      </trkpt>
      <trkpt lat="43.98861" lon="5.29077">
        <ele>617</ele>
        <time>2019-10-02T12:50:44Z</time>
      </trkpt>
      <trkpt lat="43.98854" lon="5.29068">
        <ele>617</ele>
        <time>2019-10-02T12:50:53Z</time>
      </trkpt>
      <trkpt lat="43.98849" lon="5.29057">
        <ele>617</ele>
        <time>2019-10-02T12:51:00Z</time>
      </trkpt>
      <trkpt lat="43.98836" lon="5.29038">
        <ele>616</ele>
        <time>2019-10-02T12:51:18Z</time>
      </trkpt>
      <trkpt lat="43.98828" lon="5.2903">
        <ele>615</ele>
        <time>2019-10-02T12:51:26Z</time>
      </trkpt>
      <trkpt lat="43.98823" lon="5.2902">
        <ele>615</ele>
        <time>2019-10-02T12:51:36Z</time>
      </trkpt>
      <trkpt lat="43.98817" lon="5.2901">
        <ele>615</ele>
        <time>2019-10-02T12:51:44Z</time>
      </trkpt>
      <trkpt lat="43.98812" lon="5.29">
        <ele>615</ele>
        <time>2019-10-02T12:51:55Z</time>
      </trkpt>
      <trkpt lat="43.98803" lon="5.28993">
        <ele>615</ele>
        <time>2019-10-02T12:52:04Z</time>
      </trkpt>
      <trkpt lat="43.98794" lon="5.28992">
        <ele>615</ele>
        <time>2019-10-02T12:52:16Z</time>
      </trkpt>
      <trkpt lat="43.98786" lon="5.28998">
        <ele>613</ele>
        <time>2019-10-02T12:52:27Z</time>
      </trkpt>
      <trkpt lat="43.98778" lon="5.29008">
        <ele>612</ele>
        <time>2019-10-02T12:52:38Z</time>
      </trkpt>
      <trkpt lat="43.98775" lon="5.29021">
        <ele>612</ele>
        <time>2019-10-02T12:52:48Z</time>
      </trkpt>
      <trkpt lat="43.9877" lon="5.29032">
        <ele>612</ele>
        <time>2019-10-02T12:53:00Z</time>
      </trkpt>
      <trkpt lat="43.98764" lon="5.29043">
        <ele>612</ele>
        <time>2019-10-02T12:53:15Z</time>
      </trkpt>
      <trkpt lat="43.98759" lon="5.29055">
        <ele>611</ele>
        <time>2019-10-02T12:53:27Z</time>
      </trkpt>
      <trkpt lat="43.98755" lon="5.29067">
        <ele>610</ele>
        <time>2019-10-02T12:53:35Z</time>
      </trkpt>
      <trkpt lat="43.9875" lon="5.29078">
        <ele>609</ele>
        <time>2019-10-02T12:53:45Z</time>
      </trkpt>
      <trkpt lat="43.98744" lon="5.29088">
        <ele>610</ele>
        <time>2019-10-02T12:53:54Z</time>
      </trkpt>
      <trkpt lat="43.98734" lon="5.2909">
        <ele>609</ele>
        <time>2019-10-02T12:54:05Z</time>
      </trkpt>
      <trkpt lat="43.98724" lon="5.29091">
        <ele>608</ele>
        <time>2019-10-02T12:54:14Z</time>
      </trkpt>
      <trkpt lat="43.98715" lon="5.29093">
        <ele>607</ele>
        <time>2019-10-02T12:54:23Z</time>
      </trkpt>
      <trkpt lat="43.98706" lon="5.29099">
        <ele>607</ele>
        <time>2019-10-02T12:54:31Z</time>
      </trkpt>
      <trkpt lat="43.987" lon="5.29108">
        <ele>606</ele>
        <time>2019-10-02T12:54:39Z</time>
      </trkpt>
      <trkpt lat="43.98692" lon="5.29116">
        <ele>605</ele>
        <time>2019-10-02T12:54:48Z</time>
      </trkpt>
      <trkpt lat="43.98684" lon="5.29124">
        <ele>606</ele>
        <time>2019-10-02T12:54:58Z</time>
      </trkpt>
      <trkpt lat="43.98678" lon="5.29133">
        <ele>606</ele>
        <time>2019-10-02T12:55:07Z</time>
      </trkpt>
      <trkpt lat="43.98669" lon="5.29138">
        <ele>605</ele>
        <time>2019-10-02T12:55:17Z</time>
      </trkpt>
      <trkpt lat="43.98659" lon="5.2914">
        <ele>604</ele>
        <time>2019-10-02T12:55:25Z</time>
      </trkpt>
      <trkpt lat="43.9865" lon="5.29141">
        <ele>603</ele>
        <time>2019-10-02T12:55:31Z</time>
      </trkpt>
      <trkpt lat="43.9864" lon="5.2914">
        <ele>602</ele>
        <time>2019-10-02T12:55:39Z</time>
      </trkpt>
      <trkpt lat="43.98631" lon="5.29142">
        <ele>602</ele>
        <time>2019-10-02T12:55:49Z</time>
      </trkpt>
      <trkpt lat="43.98622" lon="5.29148">
        <ele>603</ele>
        <time>2019-10-02T12:55:59Z</time>
      </trkpt>
      <trkpt lat="43.98613" lon="5.2915">
        <ele>603</ele>
        <time>2019-10-02T12:56:07Z</time>
      </trkpt>
      <trkpt lat="43.98604" lon="5.29156">
        <ele>603</ele>
        <time>2019-10-02T12:56:17Z</time>
      </trkpt>
      <trkpt lat="43.98586" lon="5.29162">
        <ele>602</ele>
        <time>2019-10-02T12:56:37Z</time>
      </trkpt>
      <trkpt lat="43.98578" lon="5.2917">
        <ele>602</ele>
        <time>2019-10-02T12:56:46Z</time>
      </trkpt>
      <trkpt lat="43.98562" lon="5.29183">
        <ele>602</ele>
        <time>2019-10-02T12:57:03Z</time>
      </trkpt>
      <trkpt lat="43.98552" lon="5.29187">
        <ele>601</ele>
        <time>2019-10-02T12:57:13Z</time>
      </trkpt>
      <trkpt lat="43.98542" lon="5.29186">
        <ele>600</ele>
        <time>2019-10-02T12:57:20Z</time>
      </trkpt>
      <trkpt lat="43.98533" lon="5.29186">
        <ele>600</ele>
        <time>2019-10-02T12:57:28Z</time>
      </trkpt>
      <trkpt lat="43.98524" lon="5.29188">
        <ele>599</ele>
        <time>2019-10-02T12:57:35Z</time>
      </trkpt>
      <trkpt lat="43.98515" lon="5.2919">
        <ele>599</ele>
        <time>2019-10-02T12:57:43Z</time>
      </trkpt>
      <trkpt lat="43.98497" lon="5.29203">
        <ele>598</ele>
        <time>2019-10-02T12:57:59Z</time>
      </trkpt>
      <trkpt lat="43.98488" lon="5.29208">
        <ele>598</ele>
        <time>2019-10-02T12:58:08Z</time>
      </trkpt>
      <trkpt lat="43.98479" lon="5.29211">
        <ele>597</ele>
        <time>2019-10-02T12:58:18Z</time>
      </trkpt>
      <trkpt lat="43.9847" lon="5.29215">
        <ele>597</ele>
        <time>2019-10-02T12:58:26Z</time>
      </trkpt>
      <trkpt lat="43.9846" lon="5.29221">
        <ele>596</ele>
        <time>2019-10-02T12:58:35Z</time>
      </trkpt>
      <trkpt lat="43.98452" lon="5.29226">
        <ele>596</ele>
        <time>2019-10-02T12:58:44Z</time>
      </trkpt>
      <trkpt lat="43.98444" lon="5.29233">
        <ele>595</ele>
        <time>2019-10-02T12:58:53Z</time>
      </trkpt>
      <trkpt lat="43.98435" lon="5.29239">
        <ele>596</ele>
        <time>2019-10-02T12:59:04Z</time>
      </trkpt>
      <trkpt lat="43.98428" lon="5.29248">
        <ele>596</ele>
        <time>2019-10-02T12:59:13Z</time>
      </trkpt>
      <trkpt lat="43.98421" lon="5.29257">
        <ele>595</ele>
        <time>2019-10-02T12:59:20Z</time>
      </trkpt>
      <trkpt lat="43.98414" lon="5.29266">
        <ele>594</ele>
        <time>2019-10-02T12:59:28Z</time>
      </trkpt>
      <trkpt lat="43.98405" lon="5.29273">
        <ele>595</ele>
        <time>2019-10-02T12:59:39Z</time>
      </trkpt>
      <trkpt lat="43.98396" lon="5.2928">
        <ele>594</ele>
        <time>2019-10-02T12:59:49Z</time>
      </trkpt>
      <trkpt lat="43.98387" lon="5.29283">
        <ele>595</ele>
        <time>2019-10-02T12:59:59Z</time>
      </trkpt>
      <trkpt lat="43.98378" lon="5.29285">
        <ele>594</ele>
        <time>2019-10-02T13:00:08Z</time>
      </trkpt>
      <trkpt lat="43.98367" lon="5.29283">
        <ele>594</ele>
        <time>2019-10-02T13:00:15Z</time>
      </trkpt>
      <trkpt lat="43.98358" lon="5.29285">
        <ele>593</ele>
        <time>2019-10-02T13:00:23Z</time>
      </trkpt>
      <trkpt lat="43.98349" lon="5.29285">
        <ele>593</ele>
        <time>2019-10-02T13:00:29Z</time>
      </trkpt>
      <trkpt lat="43.98329" lon="5.29287">
        <ele>593</ele>
        <time>2019-10-02T13:00:45Z</time>
      </trkpt>
      <trkpt lat="43.98319" lon="5.29285">
        <ele>592</ele>
        <time>2019-10-02T13:00:55Z</time>
      </trkpt>
      <trkpt lat="43.9831" lon="5.29287">
        <ele>592</ele>
        <time>2019-10-02T13:01:04Z</time>
      </trkpt>
      <trkpt lat="43.983" lon="5.29287">
        <ele>592</ele>
        <time>2019-10-02T13:01:13Z</time>
      </trkpt>
      <trkpt lat="43.98292" lon="5.2929">
        <ele>592</ele>
        <time>2019-10-02T13:01:20Z</time>
      </trkpt>
      <trkpt lat="43.98282" lon="5.29291">
        <ele>592</ele>
        <time>2019-10-02T13:01:29Z</time>
      </trkpt>
      <trkpt lat="43.98272" lon="5.29296">
        <ele>592</ele>
        <time>2019-10-02T13:01:40Z</time>
      </trkpt>
      <trkpt lat="43.98263" lon="5.29301">
        <ele>591</ele>
        <time>2019-10-02T13:01:48Z</time>
      </trkpt>
      <trkpt lat="43.98254" lon="5.29303">
        <ele>590</ele>
        <time>2019-10-02T13:01:55Z</time>
      </trkpt>
      <trkpt lat="43.98244" lon="5.29307">
        <ele>589</ele>
        <time>2019-10-02T13:02:05Z</time>
      </trkpt>
      <trkpt lat="43.98235" lon="5.2931">
        <ele>590</ele>
        <time>2019-10-02T13:02:12Z</time>
      </trkpt>
      <trkpt lat="43.98227" lon="5.29316">
        <ele>590</ele>
        <time>2019-10-02T13:02:23Z</time>
      </trkpt>
      <trkpt lat="43.9822" lon="5.29323">
        <ele>589</ele>
        <time>2019-10-02T13:02:32Z</time>
      </trkpt>
      <trkpt lat="43.98203" lon="5.29332">
        <ele>588</ele>
        <time>2019-10-02T13:02:46Z</time>
      </trkpt>
      <trkpt lat="43.98184" lon="5.29341">
        <ele>587</ele>
        <time>2019-10-02T13:03:06Z</time>
      </trkpt>
      <trkpt lat="43.98175" lon="5.29344">
        <ele>587</ele>
        <time>2019-10-02T13:03:15Z</time>
      </trkpt>
      <trkpt lat="43.98165" lon="5.29342">
        <ele>587</ele>
        <time>2019-10-02T13:03:22Z</time>
      </trkpt>
      <trkpt lat="43.98156" lon="5.29343">
        <ele>586</ele>
        <time>2019-10-02T13:03:31Z</time>
      </trkpt>
      <trkpt lat="43.98148" lon="5.2935">
        <ele>586</ele>
        <time>2019-10-02T13:03:41Z</time>
      </trkpt>
      <trkpt lat="43.98139" lon="5.2935">
        <ele>585</ele>
        <time>2019-10-02T13:03:49Z</time>
      </trkpt>
      <trkpt lat="43.9813" lon="5.29354">
        <ele>585</ele>
        <time>2019-10-02T13:03:58Z</time>
      </trkpt>
      <trkpt lat="43.98121" lon="5.2936">
        <ele>585</ele>
        <time>2019-10-02T13:04:07Z</time>
      </trkpt>
      <trkpt lat="43.98112" lon="5.29364">
        <ele>584</ele>
        <time>2019-10-02T13:04:17Z</time>
      </trkpt>
      <trkpt lat="43.98103" lon="5.29372">
        <ele>584</ele>
        <time>2019-10-02T13:04:25Z</time>
      </trkpt>
      <trkpt lat="43.98094" lon="5.29377">
        <ele>584</ele>
        <time>2019-10-02T13:04:34Z</time>
      </trkpt>
      <trkpt lat="43.98085" lon="5.29383">
        <ele>583</ele>
        <time>2019-10-02T13:04:43Z</time>
      </trkpt>
      <trkpt lat="43.98076" lon="5.29389">
        <ele>582</ele>
        <time>2019-10-02T13:04:53Z</time>
      </trkpt>
      <trkpt lat="43.9807" lon="5.29399">
        <ele>581</ele>
        <time>2019-10-02T13:05:02Z</time>
      </trkpt>
      <trkpt lat="43.98061" lon="5.29405">
        <ele>580</ele>
        <time>2019-10-02T13:05:12Z</time>
      </trkpt>
      <trkpt lat="43.98052" lon="5.29407">
        <ele>578</ele>
        <time>2019-10-02T13:05:21Z</time>
      </trkpt>
      <trkpt lat="43.98042" lon="5.29409">
        <ele>578</ele>
        <time>2019-10-02T13:05:28Z</time>
      </trkpt>
      <trkpt lat="43.98032" lon="5.29409">
        <ele>577</ele>
        <time>2019-10-02T13:05:36Z</time>
      </trkpt>
      <trkpt lat="43.98013" lon="5.29413">
        <ele>575</ele>
        <time>2019-10-02T13:05:54Z</time>
      </trkpt>
      <trkpt lat="43.98007" lon="5.29423">
        <ele>575</ele>
        <time>2019-10-02T13:06:03Z</time>
      </trkpt>
      <trkpt lat="43.97999" lon="5.29429">
        <ele>575</ele>
        <time>2019-10-02T13:06:11Z</time>
      </trkpt>
      <trkpt lat="43.97989" lon="5.29431">
        <ele>575</ele>
        <time>2019-10-02T13:06:22Z</time>
      </trkpt>
      <trkpt lat="43.9798" lon="5.29435">
        <ele>575</ele>
        <time>2019-10-02T13:06:32Z</time>
      </trkpt>
      <trkpt lat="43.97971" lon="5.29433">
        <ele>574</ele>
        <time>2019-10-02T13:06:38Z</time>
      </trkpt>
      <trkpt lat="43.97962" lon="5.29434">
        <ele>574</ele>
        <time>2019-10-02T13:06:45Z</time>
      </trkpt>
      <trkpt lat="43.97953" lon="5.29429">
        <ele>573</ele>
        <time>2019-10-02T13:06:52Z</time>
      </trkpt>
      <trkpt lat="43.97943" lon="5.29429">
        <ele>573</ele>
        <time>2019-10-02T13:07:01Z</time>
      </trkpt>
      <trkpt lat="43.97934" lon="5.29432">
        <ele>572</ele>
        <time>2019-10-02T13:07:08Z</time>
      </trkpt>
      <trkpt lat="43.97924" lon="5.29436">
        <ele>571</ele>
        <time>2019-10-02T13:07:18Z</time>
      </trkpt>
      <trkpt lat="43.97915" lon="5.2944">
        <ele>571</ele>
        <time>2019-10-02T13:07:26Z</time>
      </trkpt>
      <trkpt lat="43.97905" lon="5.29442">
        <ele>572</ele>
        <time>2019-10-02T13:07:36Z</time>
      </trkpt>
      <trkpt lat="43.97896" lon="5.29438">
        <ele>572</ele>
        <time>2019-10-02T13:07:43Z</time>
      </trkpt>
      <trkpt lat="43.97887" lon="5.29434">
        <ele>572</ele>
        <time>2019-10-02T13:07:51Z</time>
      </trkpt>
      <trkpt lat="43.9788" lon="5.29426">
        <ele>569</ele>
        <time>2019-10-02T13:07:58Z</time>
      </trkpt>
      <trkpt lat="43.97874" lon="5.29415">
        <ele>566</ele>
        <time>2019-10-02T13:08:05Z</time>
      </trkpt>
      <trkpt lat="43.97866" lon="5.29408">
        <ele>565</ele>
        <time>2019-10-02T13:08:15Z</time>
      </trkpt>
      <trkpt lat="43.97859" lon="5.29401">
        <ele>564</ele>
        <time>2019-10-02T13:08:23Z</time>
      </trkpt>
      <trkpt lat="43.9785" lon="5.29396">
        <ele>564</ele>
        <time>2019-10-02T13:08:32Z</time>
      </trkpt>
      <trkpt lat="43.97843" lon="5.29388">
        <ele>563</ele>
        <time>2019-10-02T13:08:43Z</time>
      </trkpt>
      <trkpt lat="43.97835" lon="5.29381">
        <ele>563</ele>
        <time>2019-10-02T13:08:54Z</time>
      </trkpt>
      <trkpt lat="43.97825" lon="5.29378">
        <ele>562</ele>
        <time>2019-10-02T13:09:03Z</time>
      </trkpt>
      <trkpt lat="43.97816" lon="5.29375">
        <ele>562</ele>
        <time>2019-10-02T13:09:10Z</time>
      </trkpt>
      <trkpt lat="43.97807" lon="5.29376">
        <ele>562</ele>
        <time>2019-10-02T13:09:18Z</time>
      </trkpt>
      <trkpt lat="43.97798" lon="5.29373">
        <ele>562</ele>
        <time>2019-10-02T13:09:27Z</time>
      </trkpt>
      <trkpt lat="43.97789" lon="5.2937">
        <ele>561</ele>
        <time>2019-10-02T13:09:37Z</time>
      </trkpt>
      <trkpt lat="43.9778" lon="5.29367">
        <ele>560</ele>
        <time>2019-10-02T13:09:46Z</time>
      </trkpt>
      <trkpt lat="43.9777" lon="5.29363">
        <ele>560</ele>
        <time>2019-10-02T13:09:55Z</time>
      </trkpt>
      <trkpt lat="43.9776" lon="5.29358">
        <ele>559</ele>
        <time>2019-10-02T13:10:07Z</time>
      </trkpt>
      <trkpt lat="43.97751" lon="5.29354">
        <ele>559</ele>
        <time>2019-10-02T13:10:15Z</time>
      </trkpt>
      <trkpt lat="43.97733" lon="5.29345">
        <ele>560</ele>
        <time>2019-10-02T13:10:31Z</time>
      </trkpt>
      <trkpt lat="43.97725" lon="5.29338">
        <ele>560</ele>
        <time>2019-10-02T13:10:38Z</time>
      </trkpt>
      <trkpt lat="43.97714" lon="5.29335">
        <ele>559</ele>
        <time>2019-10-02T13:10:48Z</time>
      </trkpt>
      <trkpt lat="43.97705" lon="5.29329">
        <ele>559</ele>
        <time>2019-10-02T13:10:59Z</time>
      </trkpt>
      <trkpt lat="43.97697" lon="5.29324">
        <ele>559</ele>
        <time>2019-10-02T13:11:06Z</time>
      </trkpt>
      <trkpt lat="43.9769" lon="5.29314">
        <ele>559</ele>
        <time>2019-10-02T13:11:16Z</time>
      </trkpt>
      <trkpt lat="43.97681" lon="5.2931">
        <ele>558</ele>
        <time>2019-10-02T13:11:24Z</time>
      </trkpt>
      <trkpt lat="43.97672" lon="5.29305">
        <ele>557</ele>
        <time>2019-10-02T13:11:32Z</time>
      </trkpt>
      <trkpt lat="43.97665" lon="5.29295">
        <ele>557</ele>
        <time>2019-10-02T13:11:44Z</time>
      </trkpt>
      <trkpt lat="43.97657" lon="5.2929">
        <ele>558</ele>
        <time>2019-10-02T13:11:54Z</time>
      </trkpt>
      <trkpt lat="43.97648" lon="5.29295">
        <ele>557</ele>
        <time>2019-10-02T13:12:04Z</time>
      </trkpt>
      <trkpt lat="43.97639" lon="5.293">
        <ele>557</ele>
        <time>2019-10-02T13:12:16Z</time>
      </trkpt>
      <trkpt lat="43.97631" lon="5.29306">
        <ele>556</ele>
        <time>2019-10-02T13:12:29Z</time>
      </trkpt>
      <trkpt lat="43.97621" lon="5.29308">
        <ele>556</ele>
        <time>2019-10-02T13:12:38Z</time>
      </trkpt>
      <trkpt lat="43.97612" lon="5.2931">
        <ele>555</ele>
        <time>2019-10-02T13:12:48Z</time>
      </trkpt>
      <trkpt lat="43.97603" lon="5.29309">
        <ele>554</ele>
        <time>2019-10-02T13:12:57Z</time>
      </trkpt>
      <trkpt lat="43.97593" lon="5.29309">
        <ele>553</ele>
        <time>2019-10-02T13:13:10Z</time>
      </trkpt>
      <trkpt lat="43.97584" lon="5.29311">
        <ele>552</ele>
        <time>2019-10-02T13:13:18Z</time>
      </trkpt>
      <trkpt lat="43.97575" lon="5.29313">
        <ele>552</ele>
        <time>2019-10-02T13:13:25Z</time>
      </trkpt>
      <trkpt lat="43.97565" lon="5.29313">
        <ele>551</ele>
        <time>2019-10-02T13:13:34Z</time>
      </trkpt>
      <trkpt lat="43.97557" lon="5.29318">
        <ele>551</ele>
        <time>2019-10-02T13:13:43Z</time>
      </trkpt>
      <trkpt lat="43.97542" lon="5.29335">
        <ele>550</ele>
        <time>2019-10-02T13:14:02Z</time>
      </trkpt>
      <trkpt lat="43.97537" lon="5.29346">
        <ele>551</ele>
        <time>2019-10-02T13:14:11Z</time>
      </trkpt>
      <trkpt lat="43.97535" lon="5.29358">
        <ele>551</ele>
        <time>2019-10-02T13:14:19Z</time>
      </trkpt>
      <trkpt lat="43.97536" lon="5.29372">
        <ele>551</ele>
        <time>2019-10-02T13:14:30Z</time>
      </trkpt>
      <trkpt lat="43.97541" lon="5.29383">
        <ele>551</ele>
        <time>2019-10-02T13:14:42Z</time>
      </trkpt>
      <trkpt lat="43.9755" lon="5.2939">
        <ele>549</ele>
        <time>2019-10-02T13:14:49Z</time>
      </trkpt>
      <trkpt lat="43.97558" lon="5.29396">
        <ele>546</ele>
        <time>2019-10-02T13:14:58Z</time>
      </trkpt>
      <trkpt lat="43.97566" lon="5.294">
        <ele>546</ele>
        <time>2019-10-02T13:15:05Z</time>
      </trkpt>
      <trkpt lat="43.97576" lon="5.29404">
        <ele>544</ele>
        <time>2019-10-02T13:15:13Z</time>
      </trkpt>
      <trkpt lat="43.97584" lon="5.2941">
        <ele>543</ele>
        <time>2019-10-02T13:15:20Z</time>
      </trkpt>
      <trkpt lat="43.97589" lon="5.29421">
        <ele>543</ele>
        <time>2019-10-02T13:15:27Z</time>
      </trkpt>
      <trkpt lat="43.97586" lon="5.29433">
        <ele>542</ele>
        <time>2019-10-02T13:15:35Z</time>
      </trkpt>
      <trkpt lat="43.97581" lon="5.29444">
        <ele>542</ele>
        <time>2019-10-02T13:15:44Z</time>
      </trkpt>
      <trkpt lat="43.97576" lon="5.29454">
        <ele>543</ele>
        <time>2019-10-02T13:15:52Z</time>
      </trkpt>
      <trkpt lat="43.97571" lon="5.29467">
        <ele>543</ele>
        <time>2019-10-02T13:16:00Z</time>
      </trkpt>
      <trkpt lat="43.97565" lon="5.29478">
        <ele>543</ele>
        <time>2019-10-02T13:16:09Z</time>
      </trkpt>
      <trkpt lat="43.97556" lon="5.29486">
        <ele>542</ele>
        <time>2019-10-02T13:16:19Z</time>
      </trkpt>
      <trkpt lat="43.97549" lon="5.29494">
        <ele>542</ele>
        <time>2019-10-02T13:16:26Z</time>
      </trkpt>
      <trkpt lat="43.97541" lon="5.295">
        <ele>542</ele>
        <time>2019-10-02T13:16:36Z</time>
      </trkpt>
      <trkpt lat="43.97522" lon="5.29507">
        <ele>541</ele>
        <time>2019-10-02T13:16:53Z</time>
      </trkpt>
      <trkpt lat="43.97514" lon="5.29512">
        <ele>541</ele>
        <time>2019-10-02T13:17:01Z</time>
      </trkpt>
      <trkpt lat="43.97496" lon="5.29521">
        <ele>540</ele>
        <time>2019-10-02T13:17:19Z</time>
      </trkpt>
      <trkpt lat="43.97478" lon="5.29525">
        <ele>538</ele>
        <time>2019-10-02T13:17:34Z</time>
      </trkpt>
      <trkpt lat="43.97469" lon="5.29531">
        <ele>537</ele>
        <time>2019-10-02T13:17:42Z</time>
      </trkpt>
      <trkpt lat="43.9746" lon="5.29535">
        <ele>537</ele>
        <time>2019-10-02T13:17:52Z</time>
      </trkpt>
      <trkpt lat="43.9745" lon="5.29538">
        <ele>537</ele>
        <time>2019-10-02T13:18:01Z</time>
      </trkpt>
      <trkpt lat="43.9744" lon="5.29534">
        <ele>537</ele>
        <time>2019-10-02T13:18:12Z</time>
      </trkpt>
      <trkpt lat="43.97431" lon="5.29536">
        <ele>537</ele>
        <time>2019-10-02T13:18:21Z</time>
      </trkpt>
      <trkpt lat="43.97423" lon="5.29541">
        <ele>538</ele>
        <time>2019-10-02T13:18:29Z</time>
      </trkpt>
      <trkpt lat="43.97415" lon="5.29549">
        <ele>537</ele>
        <time>2019-10-02T13:18:38Z</time>
      </trkpt>
      <trkpt lat="43.97407" lon="5.29554">
        <ele>537</ele>
        <time>2019-10-02T13:18:45Z</time>
      </trkpt>
      <trkpt lat="43.97398" lon="5.29559">
        <ele>537</ele>
        <time>2019-10-02T13:18:56Z</time>
      </trkpt>
      <trkpt lat="43.97388" lon="5.29563">
        <ele>537</ele>
        <time>2019-10-02T13:19:05Z</time>
      </trkpt>
      <trkpt lat="43.97379" lon="5.29568">
        <ele>537</ele>
        <time>2019-10-02T13:19:15Z</time>
      </trkpt>
      <trkpt lat="43.9737" lon="5.29571">
        <ele>537</ele>
        <time>2019-10-02T13:19:22Z</time>
      </trkpt>
      <trkpt lat="43.97363" lon="5.29579">
        <ele>537</ele>
        <time>2019-10-02T13:19:28Z</time>
      </trkpt>
      <trkpt lat="43.97358" lon="5.29589">
        <ele>537</ele>
        <time>2019-10-02T13:19:35Z</time>
      </trkpt>
      <trkpt lat="43.97352" lon="5.29599">
        <ele>536</ele>
        <time>2019-10-02T13:19:44Z</time>
      </trkpt>
      <trkpt lat="43.97348" lon="5.29613">
        <ele>535</ele>
        <time>2019-10-02T13:19:54Z</time>
      </trkpt>
      <trkpt lat="43.97346" lon="5.29626">
        <ele>534</ele>
        <time>2019-10-02T13:20:03Z</time>
      </trkpt>
      <trkpt lat="43.97339" lon="5.29637">
        <ele>533</ele>
        <time>2019-10-02T13:20:13Z</time>
      </trkpt>
      <trkpt lat="43.97332" lon="5.29645">
        <ele>532</ele>
        <time>2019-10-02T13:20:21Z</time>
      </trkpt>
      <trkpt lat="43.97324" lon="5.29651">
        <ele>532</ele>
        <time>2019-10-02T13:20:28Z</time>
      </trkpt>
      <trkpt lat="43.97319" lon="5.29662">
        <ele>531</ele>
        <time>2019-10-02T13:20:43Z</time>
      </trkpt>
      <trkpt lat="43.9731" lon="5.2967">
        <ele>530</ele>
        <time>2019-10-02T13:21:02Z</time>
      </trkpt>
      <trkpt lat="43.97303" lon="5.29678">
        <ele>530</ele>
        <time>2019-10-02T13:21:14Z</time>
      </trkpt>
      <trkpt lat="43.97294" lon="5.29684">
        <ele>531</ele>
        <time>2019-10-02T13:21:25Z</time>
      </trkpt>
      <trkpt lat="43.97286" lon="5.29688">
        <ele>531</ele>
        <time>2019-10-02T13:21:34Z</time>
      </trkpt>
      <trkpt lat="43.97277" lon="5.2969">
        <ele>531</ele>
        <time>2019-10-02T13:21:47Z</time>
      </trkpt>
      <trkpt lat="43.97268" lon="5.29696">
        <ele>531</ele>
        <time>2019-10-02T13:21:56Z</time>
      </trkpt>
      <trkpt lat="43.97259" lon="5.29701">
        <ele>531</ele>
        <time>2019-10-02T13:22:04Z</time>
      </trkpt>
      <trkpt lat="43.9725" lon="5.29702">
        <ele>530</ele>
        <time>2019-10-02T13:22:14Z</time>
      </trkpt>
      <trkpt lat="43.97242" lon="5.29708">
        <ele>530</ele>
        <time>2019-10-02T13:22:22Z</time>
      </trkpt>
      <trkpt lat="43.97233" lon="5.2971">
        <ele>530</ele>
        <time>2019-10-02T13:22:29Z</time>
      </trkpt>
      <trkpt lat="43.97214" lon="5.29704">
        <ele>527</ele>
        <time>2019-10-02T13:22:44Z</time>
      </trkpt>
      <trkpt lat="43.97205" lon="5.29702">
        <ele>526</ele>
        <time>2019-10-02T13:22:52Z</time>
      </trkpt>
      <trkpt lat="43.97196" lon="5.29698">
        <ele>525</ele>
        <time>2019-10-02T13:23:03Z</time>
      </trkpt>
      <trkpt lat="43.97179" lon="5.29687">
        <ele>525</ele>
        <time>2019-10-02T13:23:21Z</time>
      </trkpt>
      <trkpt lat="43.97169" lon="5.29682">
        <ele>525</ele>
        <time>2019-10-02T13:23:32Z</time>
      </trkpt>
      <trkpt lat="43.97162" lon="5.29674">
        <ele>526</ele>
        <time>2019-10-02T13:23:40Z</time>
      </trkpt>
      <trkpt lat="43.97155" lon="5.29664">
        <ele>526</ele>
        <time>2019-10-02T13:23:49Z</time>
      </trkpt>
      <trkpt lat="43.97152" lon="5.2965">
        <ele>525</ele>
        <time>2019-10-02T13:24:05Z</time>
      </trkpt>
      <trkpt lat="43.97148" lon="5.29639">
        <ele>524</ele>
        <time>2019-10-02T13:24:12Z</time>
      </trkpt>
      <trkpt lat="43.97142" lon="5.29629">
        <ele>523</ele>
        <time>2019-10-02T13:24:19Z</time>
      </trkpt>
      <trkpt lat="43.97136" lon="5.29618">
        <ele>523</ele>
        <time>2019-10-02T13:24:28Z</time>
      </trkpt>
      <trkpt lat="43.97133" lon="5.29606">
        <ele>522</ele>
        <time>2019-10-02T13:24:37Z</time>
      </trkpt>
      <trkpt lat="43.97128" lon="5.29595">
        <ele>521</ele>
        <time>2019-10-02T13:24:44Z</time>
      </trkpt>
      <trkpt lat="43.97124" lon="5.29584">
        <ele>520</ele>
        <time>2019-10-02T13:24:53Z</time>
      </trkpt>
      <trkpt lat="43.97118" lon="5.29574">
        <ele>520</ele>
        <time>2019-10-02T13:25:00Z</time>
      </trkpt>
      <trkpt lat="43.97107" lon="5.29553">
        <ele>517</ele>
        <time>2019-10-02T13:25:18Z</time>
      </trkpt>
      <trkpt lat="43.971" lon="5.29544">
        <ele>517</ele>
        <time>2019-10-02T13:25:27Z</time>
      </trkpt>
      <trkpt lat="43.97092" lon="5.29537">
        <ele>516</ele>
        <time>2019-10-02T13:25:36Z</time>
      </trkpt>
      <trkpt lat="43.97074" lon="5.29526">
        <ele>514</ele>
        <time>2019-10-02T13:25:51Z</time>
      </trkpt>
      <trkpt lat="43.97067" lon="5.29519">
        <ele>514</ele>
        <time>2019-10-02T13:26:00Z</time>
      </trkpt>
      <trkpt lat="43.97058" lon="5.29512">
        <ele>514</ele>
        <time>2019-10-02T13:26:11Z</time>
      </trkpt>
      <trkpt lat="43.97049" lon="5.2951">
        <ele>514</ele>
        <time>2019-10-02T13:26:22Z</time>
      </trkpt>
      <trkpt lat="43.97039" lon="5.29514">
        <ele>514</ele>
        <time>2019-10-02T13:26:30Z</time>
      </trkpt>
      <trkpt lat="43.97029" lon="5.29516">
        <ele>514</ele>
        <time>2019-10-02T13:26:39Z</time>
      </trkpt>
      <trkpt lat="43.9702" lon="5.29511">
        <ele>514</ele>
        <time>2019-10-02T13:26:48Z</time>
      </trkpt>
      <trkpt lat="43.97011" lon="5.29506">
        <ele>513</ele>
        <time>2019-10-02T13:26:59Z</time>
      </trkpt>
      <trkpt lat="43.97002" lon="5.29501">
        <ele>512</ele>
        <time>2019-10-02T13:27:09Z</time>
      </trkpt>
      <trkpt lat="43.96993" lon="5.29496">
        <ele>512</ele>
        <time>2019-10-02T13:27:18Z</time>
      </trkpt>
      <trkpt lat="43.96986" lon="5.29488">
        <ele>511</ele>
        <time>2019-10-02T13:27:26Z</time>
      </trkpt>
      <trkpt lat="43.96969" lon="5.29478">
        <ele>508</ele>
        <time>2019-10-02T13:27:46Z</time>
      </trkpt>
      <trkpt lat="43.9696" lon="5.29473">
        <ele>507</ele>
        <time>2019-10-02T13:27:52Z</time>
      </trkpt>
      <trkpt lat="43.96951" lon="5.29469">
        <ele>507</ele>
        <time>2019-10-02T13:28:03Z</time>
      </trkpt>
      <trkpt lat="43.96941" lon="5.29468">
        <ele>506</ele>
        <time>2019-10-02T13:28:11Z</time>
      </trkpt>
      <trkpt lat="43.96932" lon="5.29469">
        <ele>505</ele>
        <time>2019-10-02T13:28:20Z</time>
      </trkpt>
      <trkpt lat="43.96922" lon="5.2947">
        <ele>504</ele>
        <time>2019-10-02T13:28:33Z</time>
      </trkpt>
      <trkpt lat="43.96913" lon="5.29472">
        <ele>504</ele>
        <time>2019-10-02T13:28:40Z</time>
      </trkpt>
      <trkpt lat="43.96903" lon="5.29476">
        <ele>504</ele>
        <time>2019-10-02T13:28:48Z</time>
      </trkpt>
      <trkpt lat="43.96893" lon="5.29479">
        <ele>504</ele>
        <time>2019-10-02T13:28:58Z</time>
      </trkpt>
      <trkpt lat="43.96885" lon="5.29485">
        <ele>506</ele>
        <time>2019-10-02T13:29:06Z</time>
      </trkpt>
      <trkpt lat="43.96875" lon="5.29489">
        <ele>506</ele>
        <time>2019-10-02T13:29:15Z</time>
      </trkpt>
      <trkpt lat="43.96865" lon="5.29488">
        <ele>505</ele>
        <time>2019-10-02T13:29:23Z</time>
      </trkpt>
      <trkpt lat="43.96856" lon="5.2949">
        <ele>505</ele>
        <time>2019-10-02T13:29:32Z</time>
      </trkpt>
      <trkpt lat="43.96846" lon="5.29488">
        <ele>504</ele>
        <time>2019-10-02T13:29:39Z</time>
      </trkpt>
      <trkpt lat="43.96838" lon="5.29481">
        <ele>500</ele>
        <time>2019-10-02T13:29:47Z</time>
      </trkpt>
      <trkpt lat="43.96829" lon="5.29478">
        <ele>499</ele>
        <time>2019-10-02T13:29:55Z</time>
      </trkpt>
      <trkpt lat="43.9682" lon="5.29474">
        <ele>497</ele>
        <time>2019-10-02T13:30:03Z</time>
      </trkpt>
      <trkpt lat="43.9681" lon="5.29472">
        <ele>496</ele>
        <time>2019-10-02T13:30:11Z</time>
      </trkpt>
      <trkpt lat="43.96801" lon="5.29469">
        <ele>496</ele>
        <time>2019-10-02T13:30:22Z</time>
      </trkpt>
      <trkpt lat="43.96792" lon="5.29465">
        <ele>495</ele>
        <time>2019-10-02T13:30:32Z</time>
      </trkpt>
      <trkpt lat="43.96783" lon="5.29461">
        <ele>494</ele>
        <time>2019-10-02T13:30:41Z</time>
      </trkpt>
      <trkpt lat="43.96774" lon="5.29458">
        <ele>492</ele>
        <time>2019-10-02T13:30:50Z</time>
      </trkpt>
      <trkpt lat="43.96764" lon="5.29457">
        <ele>490</ele>
        <time>2019-10-02T13:31:00Z</time>
      </trkpt>
      <trkpt lat="43.96755" lon="5.29457">
        <ele>489</ele>
        <time>2019-10-02T13:31:12Z</time>
      </trkpt>
      <trkpt lat="43.96748" lon="5.29466">
        <ele>490</ele>
        <time>2019-10-02T13:31:21Z</time>
      </trkpt>
      <trkpt lat="43.9674" lon="5.29472">
        <ele>489</ele>
        <time>2019-10-02T13:31:29Z</time>
      </trkpt>
      <trkpt lat="43.96732" lon="5.29479">
        <ele>489</ele>
        <time>2019-10-02T13:31:39Z</time>
      </trkpt>
      <trkpt lat="43.96723" lon="5.29482">
        <ele>487</ele>
        <time>2019-10-02T13:31:51Z</time>
      </trkpt>
      <trkpt lat="43.96713" lon="5.29485">
        <ele>487</ele>
        <time>2019-10-02T13:32:01Z</time>
      </trkpt>
      <trkpt lat="43.96704" lon="5.29487">
        <ele>485</ele>
        <time>2019-10-02T13:32:09Z</time>
      </trkpt>
      <trkpt lat="43.96685" lon="5.29491">
        <ele>482</ele>
        <time>2019-10-02T13:32:27Z</time>
      </trkpt>
      <trkpt lat="43.96675" lon="5.29493">
        <ele>480</ele>
        <time>2019-10-02T13:32:34Z</time>
      </trkpt>
      <trkpt lat="43.96666" lon="5.29495">
        <ele>478</ele>
        <time>2019-10-02T13:32:43Z</time>
      </trkpt>
      <trkpt lat="43.96657" lon="5.29498">
        <ele>477</ele>
        <time>2019-10-02T13:32:53Z</time>
      </trkpt>
      <trkpt lat="43.96647" lon="5.29502">
        <ele>477</ele>
        <time>2019-10-02T13:33:04Z</time>
      </trkpt>
      <trkpt lat="43.96637" lon="5.29503">
        <ele>475</ele>
        <time>2019-10-02T13:33:13Z</time>
      </trkpt>
      <trkpt lat="43.96629" lon="5.2951">
        <ele>474</ele>
        <time>2019-10-02T13:33:23Z</time>
      </trkpt>
      <trkpt lat="43.96619" lon="5.2951">
        <ele>472</ele>
        <time>2019-10-02T13:33:38Z</time>
      </trkpt>
      <trkpt lat="43.9661" lon="5.29514">
        <ele>471</ele>
        <time>2019-10-02T13:33:51Z</time>
      </trkpt>
      <trkpt lat="43.966" lon="5.29517">
        <ele>471</ele>
        <time>2019-10-02T13:34:00Z</time>
      </trkpt>
      <trkpt lat="43.96591" lon="5.29515">
        <ele>469</ele>
        <time>2019-10-02T13:34:10Z</time>
      </trkpt>
      <trkpt lat="43.96581" lon="5.29518">
        <ele>468</ele>
        <time>2019-10-02T13:34:25Z</time>
      </trkpt>
      <trkpt lat="43.96571" lon="5.29519">
        <ele>467</ele>
        <time>2019-10-02T13:34:35Z</time>
      </trkpt>
      <trkpt lat="43.96562" lon="5.2952">
        <ele>465</ele>
        <time>2019-10-02T13:34:47Z</time>
      </trkpt>
      <trkpt lat="43.96553" lon="5.29518">
        <ele>464</ele>
        <time>2019-10-02T13:34:55Z</time>
      </trkpt>
      <trkpt lat="43.96543" lon="5.29514">
        <ele>463</ele>
        <time>2019-10-02T13:35:10Z</time>
      </trkpt>
      <trkpt lat="43.96536" lon="5.29505">
        <ele>461</ele>
        <time>2019-10-02T13:35:19Z</time>
      </trkpt>
      <trkpt lat="43.96527" lon="5.29498">
        <ele>459</ele>
        <time>2019-10-02T13:35:32Z</time>
      </trkpt>
      <trkpt lat="43.96519" lon="5.29492">
        <ele>459</ele>
        <time>2019-10-02T13:35:40Z</time>
      </trkpt>
      <trkpt lat="43.9651" lon="5.29489">
        <ele>458</ele>
        <time>2019-10-02T13:35:50Z</time>
      </trkpt>
      <trkpt lat="43.96501" lon="5.29484">
        <ele>457</ele>
        <time>2019-10-02T13:36:03Z</time>
      </trkpt>
      <trkpt lat="43.96492" lon="5.29481">
        <ele>457</ele>
        <time>2019-10-02T13:36:17Z</time>
      </trkpt>
      <trkpt lat="43.96482" lon="5.29479">
        <ele>456</ele>
        <time>2019-10-02T13:36:26Z</time>
      </trkpt>
      <trkpt lat="43.96472" lon="5.29479">
        <ele>456</ele>
        <time>2019-10-02T13:36:34Z</time>
      </trkpt>
      <trkpt lat="43.96464" lon="5.29474">
        <ele>455</ele>
        <time>2019-10-02T13:36:42Z</time>
      </trkpt>
      <trkpt lat="43.96458" lon="5.29464">
        <ele>455</ele>
        <time>2019-10-02T13:36:53Z</time>
      </trkpt>
      <trkpt lat="43.9645" lon="5.29457">
        <ele>454</ele>
        <time>2019-10-02T13:37:17Z</time>
      </trkpt>
      <trkpt lat="43.96442" lon="5.29464">
        <ele>455</ele>
        <time>2019-10-02T13:37:37Z</time>
      </trkpt>
      <trkpt lat="43.96432" lon="5.29462">
        <ele>456</ele>
        <time>2019-10-02T13:37:48Z</time>
      </trkpt>
      <trkpt lat="43.96424" lon="5.29457">
        <ele>455</ele>
        <time>2019-10-02T13:37:58Z</time>
      </trkpt>
      <trkpt lat="43.96416" lon="5.29448">
        <ele>453</ele>
        <time>2019-10-02T13:38:13Z</time>
      </trkpt>
      <trkpt lat="43.9641" lon="5.29439">
        <ele>451</ele>
        <time>2019-10-02T13:38:31Z</time>
      </trkpt>
      <trkpt lat="43.96408" lon="5.29425">
        <ele>449</ele>
        <time>2019-10-02T13:38:43Z</time>
      </trkpt>
      <trkpt lat="43.96401" lon="5.29417">
        <ele>446</ele>
        <time>2019-10-02T13:38:59Z</time>
      </trkpt>
      <trkpt lat="43.96403" lon="5.29404">
        <ele>447</ele>
        <time>2019-10-02T13:40:42Z</time>
      </trkpt>
      <trkpt lat="43.96394" lon="5.29404">
        <ele>445</ele>
        <time>2019-10-02T13:41:34Z</time>
      </trkpt>
      <trkpt lat="43.96384" lon="5.29402">
        <ele>443</ele>
        <time>2019-10-02T13:41:48Z</time>
      </trkpt>
      <trkpt lat="43.96375" lon="5.29404">
        <ele>442</ele>
        <time>2019-10-02T13:41:56Z</time>
      </trkpt>
      <trkpt lat="43.96366" lon="5.29402">
        <ele>442</ele>
        <time>2019-10-02T13:42:13Z</time>
      </trkpt>
      <trkpt lat="43.96357" lon="5.29403">
        <ele>441</ele>
        <time>2019-10-02T13:42:27Z</time>
      </trkpt>
      <trkpt lat="43.96347" lon="5.29407">
        <ele>441</ele>
        <time>2019-10-02T13:42:34Z</time>
      </trkpt>
      <trkpt lat="43.96338" lon="5.29405">
        <ele>440</ele>
        <time>2019-10-02T13:42:43Z</time>
      </trkpt>
      <trkpt lat="43.96329" lon="5.29401">
        <ele>439</ele>
        <time>2019-10-02T13:42:52Z</time>
      </trkpt>
      <trkpt lat="43.9632" lon="5.29399">
        <ele>437</ele>
        <time>2019-10-02T13:43:06Z</time>
      </trkpt>
      <trkpt lat="43.96311" lon="5.29397">
        <ele>435</ele>
        <time>2019-10-02T13:43:24Z</time>
      </trkpt>
      <trkpt lat="43.96302" lon="5.29401">
        <ele>434</ele>
        <time>2019-10-02T13:43:29Z</time>
      </trkpt>
      <trkpt lat="43.96293" lon="5.29403">
        <ele>434</ele>
        <time>2019-10-02T13:43:47Z</time>
      </trkpt>
      <trkpt lat="43.96284" lon="5.29405">
        <ele>433</ele>
        <time>2019-10-02T13:43:57Z</time>
      </trkpt>
      <trkpt lat="43.96275" lon="5.29408">
        <ele>433</ele>
        <time>2019-10-02T13:44:06Z</time>
      </trkpt>
      <trkpt lat="43.96265" lon="5.29406">
        <ele>432</ele>
        <time>2019-10-02T13:44:15Z</time>
      </trkpt>
      <trkpt lat="43.96257" lon="5.29409">
        <ele>431</ele>
        <time>2019-10-02T13:44:25Z</time>
      </trkpt>
      <trkpt lat="43.96246" lon="5.29408">
        <ele>431</ele>
        <time>2019-10-02T13:44:34Z</time>
      </trkpt>
      <trkpt lat="43.96237" lon="5.29406">
        <ele>431</ele>
        <time>2019-10-02T13:44:44Z</time>
      </trkpt>
      <trkpt lat="43.96227" lon="5.29405">
        <ele>431</ele>
        <time>2019-10-02T13:44:59Z</time>
      </trkpt>
      <trkpt lat="43.96217" lon="5.29404">
        <ele>431</ele>
        <time>2019-10-02T13:45:07Z</time>
      </trkpt>
      <trkpt lat="43.96208" lon="5.294">
        <ele>431</ele>
        <time>2019-10-02T13:45:19Z</time>
      </trkpt>
      <trkpt lat="43.962" lon="5.29396">
        <ele>430</ele>
        <time>2019-10-02T13:45:35Z</time>
      </trkpt>
      <trkpt lat="43.96193" lon="5.29388">
        <ele>429</ele>
        <time>2019-10-02T13:45:40Z</time>
      </trkpt>
      <trkpt lat="43.96186" lon="5.29379">
        <ele>430</ele>
        <time>2019-10-02T13:45:48Z</time>
      </trkpt>
      <trkpt lat="43.96181" lon="5.29368">
        <ele>434</ele>
        <time>2019-10-02T13:45:57Z</time>
      </trkpt>
      <trkpt lat="43.96172" lon="5.29368">
        <ele>433</ele>
        <time>2019-10-02T13:46:13Z</time>
      </trkpt>
      <trkpt lat="43.96162" lon="5.29374">
        <ele>431</ele>
        <time>2019-10-02T13:46:26Z</time>
      </trkpt>
      <trkpt lat="43.96153" lon="5.29379">
        <ele>429</ele>
        <time>2019-10-02T13:46:32Z</time>
      </trkpt>
      <trkpt lat="43.96143" lon="5.29381">
        <ele>428</ele>
        <time>2019-10-02T13:46:40Z</time>
      </trkpt>
      <trkpt lat="43.96134" lon="5.29383">
        <ele>427</ele>
        <time>2019-10-02T13:46:49Z</time>
      </trkpt>
      <trkpt lat="43.96125" lon="5.29388">
        <ele>426</ele>
        <time>2019-10-02T13:47:02Z</time>
      </trkpt>
      <trkpt lat="43.96115" lon="5.29389">
        <ele>426</ele>
        <time>2019-10-02T13:47:21Z</time>
      </trkpt>
      <trkpt lat="43.96105" lon="5.29389">
        <ele>426</ele>
        <time>2019-10-02T13:47:29Z</time>
      </trkpt>
      <trkpt lat="43.96097" lon="5.29385">
        <ele>426</ele>
        <time>2019-10-02T13:47:40Z</time>
      </trkpt>
      <trkpt lat="43.96087" lon="5.29385">
        <ele>425</ele>
        <time>2019-10-02T13:47:46Z</time>
      </trkpt>
      <trkpt lat="43.96077" lon="5.29387">
        <ele>424</ele>
        <time>2019-10-02T13:47:59Z</time>
      </trkpt>
      <trkpt lat="43.96069" lon="5.29392">
        <ele>424</ele>
        <time>2019-10-02T13:48:20Z</time>
      </trkpt>
      <trkpt lat="43.9606" lon="5.29394">
        <ele>424</ele>
        <time>2019-10-02T13:48:31Z</time>
      </trkpt>
      <trkpt lat="43.9605" lon="5.29397">
        <ele>423</ele>
        <time>2019-10-02T13:48:41Z</time>
      </trkpt>
      <trkpt lat="43.9604" lon="5.294">
        <ele>423</ele>
        <time>2019-10-02T13:48:53Z</time>
      </trkpt>
      <trkpt lat="43.96031" lon="5.29398">
        <ele>422</ele>
        <time>2019-10-02T13:49:04Z</time>
      </trkpt>
      <trkpt lat="43.96022" lon="5.29394">
        <ele>421</ele>
        <time>2019-10-02T13:49:14Z</time>
      </trkpt>
      <trkpt lat="43.96012" lon="5.29392">
        <ele>421</ele>
        <time>2019-10-02T13:49:20Z</time>
      </trkpt>
      <trkpt lat="43.96004" lon="5.29396">
        <ele>422</ele>
        <time>2019-10-02T13:49:26Z</time>
      </trkpt>
      <trkpt lat="43.95995" lon="5.29393">
        <ele>421</ele>
        <time>2019-10-02T13:49:36Z</time>
      </trkpt>
      <trkpt lat="43.95985" lon="5.29394">
        <ele>420</ele>
        <time>2019-10-02T13:49:44Z</time>
      </trkpt>
      <trkpt lat="43.95976" lon="5.29396">
        <ele>420</ele>
        <time>2019-10-02T13:49:55Z</time>
      </trkpt>
      <trkpt lat="43.95967" lon="5.29394">
        <ele>420</ele>
        <time>2019-10-02T13:50:05Z</time>
      </trkpt>
      <trkpt lat="43.95957" lon="5.29393">
        <ele>420</ele>
        <time>2019-10-02T13:50:18Z</time>
      </trkpt>
      <trkpt lat="43.95948" lon="5.29391">
        <ele>420</ele>
        <time>2019-10-02T13:50:28Z</time>
      </trkpt>
      <trkpt lat="43.95941" lon="5.29398">
        <ele>421</ele>
        <time>2019-10-02T13:50:39Z</time>
      </trkpt>
      <trkpt lat="43.95932" lon="5.29403">
        <ele>421</ele>
        <time>2019-10-02T13:51:03Z</time>
      </trkpt>
      <trkpt lat="43.95923" lon="5.29406">
        <ele>421</ele>
        <time>2019-10-02T13:51:14Z</time>
      </trkpt>
      <trkpt lat="43.95923" lon="5.29419">
        <ele>420</ele>
        <time>2019-10-02T13:51:32Z</time>
      </trkpt>
      <trkpt lat="43.95924" lon="5.2942">
        <ele>421</ele>
        <time>2019-10-02T13:51:38Z</time>
      </trkpt>
      <trkpt lat="43.95915" lon="5.29416">
        <ele>418</ele>
        <time>2019-10-02T13:51:47Z</time>
      </trkpt>
      <trkpt lat="43.95906" lon="5.29416">
        <ele>419</ele>
        <time>2019-10-02T13:52:03Z</time>
      </trkpt>
      <trkpt lat="43.95897" lon="5.29418">
        <ele>419</ele>
        <time>2019-10-02T13:52:13Z</time>
      </trkpt>
      <trkpt lat="43.95887" lon="5.29418">
        <ele>419</ele>
        <time>2019-10-02T13:52:19Z</time>
      </trkpt>
      <trkpt lat="43.95878" lon="5.29424">
        <ele>421</ele>
        <time>2019-10-02T13:52:28Z</time>
      </trkpt>
      <trkpt lat="43.95874" lon="5.29435">
        <ele>422</ele>
        <time>2019-10-02T13:52:35Z</time>
      </trkpt>
      <trkpt lat="43.95868" lon="5.29446">
        <ele>421</ele>
        <time>2019-10-02T13:52:52Z</time>
      </trkpt>
      <trkpt lat="43.95863" lon="5.29457">
        <ele>422</ele>
        <time>2019-10-02T13:52:58Z</time>
      </trkpt>
      <trkpt lat="43.95855" lon="5.29465">
        <ele>420</ele>
        <time>2019-10-02T13:53:13Z</time>
      </trkpt>
      <trkpt lat="43.95846" lon="5.29467">
        <ele>418</ele>
        <time>2019-10-02T13:53:47Z</time>
      </trkpt>
      <trkpt lat="43.9584" lon="5.29457">
        <ele>416</ele>
        <time>2019-10-02T13:54:00Z</time>
      </trkpt>
      <trkpt lat="43.95831" lon="5.29454">
        <ele>415</ele>
        <time>2019-10-02T13:54:38Z</time>
      </trkpt>
      <trkpt lat="43.9584" lon="5.29457">
        <ele>416</ele>
        <time>2019-10-02T13:55:01Z</time>
      </trkpt>
      <trkpt lat="43.95848" lon="5.29461">
        <ele>418</ele>
        <time>2019-10-02T13:55:23Z</time>
      </trkpt>
      <trkpt lat="43.95852" lon="5.29473">
        <ele>403</ele>
        <time>2019-10-02T13:55:54Z</time>
      </trkpt>
      <trkpt lat="43.95843" lon="5.29472">
        <ele>417</ele>
        <time>2019-10-02T13:56:40Z</time>
      </trkpt>
      <trkpt lat="43.95834" lon="5.2947">
        <ele>414</ele>
        <time>2019-10-02T13:56:55Z</time>
      </trkpt>
      <trkpt lat="43.95824" lon="5.29472">
        <ele>413</ele>
        <time>2019-10-02T13:57:05Z</time>
      </trkpt>
      <trkpt lat="43.95829" lon="5.29472">
        <ele>413</ele>
        <time>2019-10-02T13:57:18Z</time>
      </trkpt>
      <trkpt lat="43.95829" lon="5.29472">
        <ele>413</ele>
        <time>2019-10-02T13:57:22Z</time>
      </trkpt>
      <trkpt lat="43.95831" lon="5.29475">
        <ele>411</ele>
        <time>2019-10-02T13:57:26Z</time>
      </trkpt>
      <trkpt lat="43.95829" lon="5.29474">
        <ele>411</ele>
        <time>2019-10-02T13:57:30Z</time>
      </trkpt>
      <trkpt lat="43.95829" lon="5.29475">
        <ele>412</ele>
        <time>2019-10-02T13:57:34Z</time>
      </trkpt>
      <trkpt lat="43.9583" lon="5.29475">
        <ele>414</ele>
        <time>2019-10-02T13:57:40Z</time>
      </trkpt>
      <trkpt lat="43.95831" lon="5.29475">
        <ele>415</ele>
        <time>2019-10-02T13:57:54Z</time>
      </trkpt>
      <trkpt lat="43.9583" lon="5.29475">
        <ele>415</ele>
        <time>2019-10-02T13:57:58Z</time>
      </trkpt>
      <trkpt lat="43.95821" lon="5.29469">
        <ele>413</ele>
        <time>2019-10-02T13:58:17Z</time>
      </trkpt>
      <trkpt lat="43.95812" lon="5.29467">
        <ele>412</ele>
        <time>2019-10-02T13:58:25Z</time>
      </trkpt>
      <trkpt lat="43.95801" lon="5.29464">
        <ele>411</ele>
        <time>2019-10-02T13:58:35Z</time>
      </trkpt>
      <trkpt lat="43.95792" lon="5.2946">
        <ele>412</ele>
        <time>2019-10-02T13:58:45Z</time>
      </trkpt>
      <trkpt lat="43.95783" lon="5.29459">
        <ele>412</ele>
        <time>2019-10-02T13:59:01Z</time>
      </trkpt>
      <trkpt lat="43.95774" lon="5.29455">
        <ele>411</ele>
        <time>2019-10-02T13:59:10Z</time>
      </trkpt>
      <trkpt lat="43.95766" lon="5.29449">
        <ele>409</ele>
        <time>2019-10-02T13:59:20Z</time>
      </trkpt>
      <trkpt lat="43.95756" lon="5.29443">
        <ele>407</ele>
        <time>2019-10-02T13:59:28Z</time>
      </trkpt>
      <trkpt lat="43.95748" lon="5.29437">
        <ele>406</ele>
        <time>2019-10-02T13:59:38Z</time>
      </trkpt>
      <trkpt lat="43.95739" lon="5.2943">
        <ele>407</ele>
        <time>2019-10-02T13:59:48Z</time>
      </trkpt>
      <trkpt lat="43.9573" lon="5.29431">
        <ele>406</ele>
        <time>2019-10-02T14:00:13Z</time>
      </trkpt>
      <trkpt lat="43.95721" lon="5.29434">
        <ele>406</ele>
        <time>2019-10-02T14:00:23Z</time>
      </trkpt>
      <trkpt lat="43.95711" lon="5.29436">
        <ele>404</ele>
        <time>2019-10-02T14:00:32Z</time>
      </trkpt>
      <trkpt lat="43.95702" lon="5.29439">
        <ele>403</ele>
        <time>2019-10-02T14:00:41Z</time>
      </trkpt>
      <trkpt lat="43.95693" lon="5.29439">
        <ele>401</ele>
        <time>2019-10-02T14:00:51Z</time>
      </trkpt>
      <trkpt lat="43.95684" lon="5.29433">
        <ele>401</ele>
        <time>2019-10-02T14:01:00Z</time>
      </trkpt>
      <trkpt lat="43.95676" lon="5.29427">
        <ele>401</ele>
        <time>2019-10-02T14:01:13Z</time>
      </trkpt>
      <trkpt lat="43.95672" lon="5.29424">
        <ele>401</ele>
        <time>2019-10-02T14:01:16Z</time>
      </trkpt>
      <trkpt lat="43.95664" lon="5.29427">
        <ele>400</ele>
        <time>2019-10-02T14:01:27Z</time>
      </trkpt>
      <trkpt lat="43.95654" lon="5.29426">
        <ele>399</ele>
        <time>2019-10-02T14:01:35Z</time>
      </trkpt>
      <trkpt lat="43.95645" lon="5.29419">
        <ele>397</ele>
        <time>2019-10-02T14:01:43Z</time>
      </trkpt>
      <trkpt lat="43.95636" lon="5.29416">
        <ele>396</ele>
        <time>2019-10-02T14:01:51Z</time>
      </trkpt>
      <trkpt lat="43.95626" lon="5.29417">
        <ele>395</ele>
        <time>2019-10-02T14:02:05Z</time>
      </trkpt>
      <trkpt lat="43.95616" lon="5.29415">
        <ele>394</ele>
        <time>2019-10-02T14:02:15Z</time>
      </trkpt>
      <trkpt lat="43.95606" lon="5.29412">
        <ele>394</ele>
        <time>2019-10-02T14:02:28Z</time>
      </trkpt>
      <trkpt lat="43.95597" lon="5.29412">
        <ele>395</ele>
        <time>2019-10-02T14:02:41Z</time>
      </trkpt>
      <trkpt lat="43.95585" lon="5.29411">
        <ele>394</ele>
        <time>2019-10-02T14:02:50Z</time>
      </trkpt>
      <trkpt lat="43.95583" lon="5.2941">
        <ele>395</ele>
        <time>2019-10-02T14:02:52Z</time>
      </trkpt>
      <trkpt lat="43.95574" lon="5.29409">
        <ele>394</ele>
        <time>2019-10-02T14:03:05Z</time>
      </trkpt>
      <trkpt lat="43.95556" lon="5.29402">
        <ele>393</ele>
        <time>2019-10-02T14:03:31Z</time>
      </trkpt>
      <trkpt lat="43.95538" lon="5.29394">
        <ele>392</ele>
        <time>2019-10-02T14:03:55Z</time>
      </trkpt>
      <trkpt lat="43.95527" lon="5.29389">
        <ele>391</ele>
        <time>2019-10-02T14:04:02Z</time>
      </trkpt>
      <trkpt lat="43.95518" lon="5.29386">
        <ele>391</ele>
        <time>2019-10-02T14:04:24Z</time>
      </trkpt>
      <trkpt lat="43.9551" lon="5.2938">
        <ele>390</ele>
        <time>2019-10-02T14:04:39Z</time>
      </trkpt>
      <trkpt lat="43.95502" lon="5.29373">
        <ele>388</ele>
        <time>2019-10-02T14:04:48Z</time>
      </trkpt>
      <trkpt lat="43.95494" lon="5.29366">
        <ele>387</ele>
        <time>2019-10-02T14:05:09Z</time>
      </trkpt>
      <trkpt lat="43.95486" lon="5.29358">
        <ele>386</ele>
        <time>2019-10-02T14:05:16Z</time>
      </trkpt>
      <trkpt lat="43.95482" lon="5.29347">
        <ele>385</ele>
        <time>2019-10-02T14:05:28Z</time>
      </trkpt>
      <trkpt lat="43.95479" lon="5.29335">
        <ele>384</ele>
        <time>2019-10-02T14:05:48Z</time>
      </trkpt>
      <trkpt lat="43.95479" lon="5.29322">
        <ele>387</ele>
        <time>2019-10-02T14:06:19Z</time>
      </trkpt>
      <trkpt lat="43.9547" lon="5.29327">
        <ele>385</ele>
        <time>2019-10-02T14:07:06Z</time>
      </trkpt>
      <trkpt lat="43.95461" lon="5.2933">
        <ele>385</ele>
        <time>2019-10-02T14:07:49Z</time>
      </trkpt>
      <trkpt lat="43.95455" lon="5.29341">
        <ele>383</ele>
        <time>2019-10-02T14:08:19Z</time>
      </trkpt>
      <trkpt lat="43.95445" lon="5.29342">
        <ele>383</ele>
        <time>2019-10-02T14:09:11Z</time>
      </trkpt>
      <trkpt lat="43.95436" lon="5.29342">
        <ele>383</ele>
        <time>2019-10-02T14:09:25Z</time>
      </trkpt>
      <trkpt lat="43.95427" lon="5.29341">
        <ele>382</ele>
        <time>2019-10-02T14:09:39Z</time>
      </trkpt>
      <trkpt lat="43.95418" lon="5.29336">
        <ele>381</ele>
        <time>2019-10-02T14:09:52Z</time>
      </trkpt>
      <trkpt lat="43.95409" lon="5.29334">
        <ele>380</ele>
        <time>2019-10-02T14:10:03Z</time>
      </trkpt>
      <trkpt lat="43.954" lon="5.29333">
        <ele>380</ele>
        <time>2019-10-02T14:10:23Z</time>
      </trkpt>
      <trkpt lat="43.95388" lon="5.2933">
        <ele>378</ele>
        <time>2019-10-02T14:10:41Z</time>
      </trkpt>
      <trkpt lat="43.9538" lon="5.29336">
        <ele>377</ele>
        <time>2019-10-02T14:11:02Z</time>
      </trkpt>
      <trkpt lat="43.95371" lon="5.29339">
        <ele>376</ele>
        <time>2019-10-02T14:11:13Z</time>
      </trkpt>
      <trkpt lat="43.95364" lon="5.29348">
        <ele>376</ele>
        <time>2019-10-02T14:11:26Z</time>
      </trkpt>
      <trkpt lat="43.95358" lon="5.29339">
        <ele>374</ele>
        <time>2019-10-02T14:11:45Z</time>
      </trkpt>
      <trkpt lat="43.95349" lon="5.29335">
        <ele>373</ele>
        <time>2019-10-02T14:12:00Z</time>
      </trkpt>
      <trkpt lat="43.95339" lon="5.29337">
        <ele>372</ele>
        <time>2019-10-02T14:12:20Z</time>
      </trkpt>
      <trkpt lat="43.9533" lon="5.29336">
        <ele>371</ele>
        <time>2019-10-02T14:12:54Z</time>
      </trkpt>
      <trkpt lat="43.95322" lon="5.29341">
        <ele>372</ele>
        <time>2019-10-02T14:13:08Z</time>
      </trkpt>
      <trkpt lat="43.95313" lon="5.29346">
        <ele>372</ele>
        <time>2019-10-02T14:13:32Z</time>
      </trkpt>
      <trkpt lat="43.95304" lon="5.29344">
        <ele>372</ele>
        <time>2019-10-02T14:13:50Z</time>
      </trkpt>
      <trkpt lat="43.95295" lon="5.29344">
        <ele>370</ele>
        <time>2019-10-02T14:14:05Z</time>
      </trkpt>
      <trkpt lat="43.95285" lon="5.29345">
        <ele>369</ele>
        <time>2019-10-02T14:14:13Z</time>
      </trkpt>
      <trkpt lat="43.95275" lon="5.29343">
        <ele>367</ele>
        <time>2019-10-02T14:14:21Z</time>
      </trkpt>
      <trkpt lat="43.95266" lon="5.29342">
        <ele>366</ele>
        <time>2019-10-02T14:14:35Z</time>
      </trkpt>
      <trkpt lat="43.95258" lon="5.29335">
        <ele>364</ele>
        <time>2019-10-02T14:14:49Z</time>
      </trkpt>
      <trkpt lat="43.95248" lon="5.29337">
        <ele>363</ele>
        <time>2019-10-02T14:15:06Z</time>
      </trkpt>
      <trkpt lat="43.95239" lon="5.29339">
        <ele>362</ele>
        <time>2019-10-02T14:15:15Z</time>
      </trkpt>
      <trkpt lat="43.95229" lon="5.29342">
        <ele>360</ele>
        <time>2019-10-02T14:15:25Z</time>
      </trkpt>
      <trkpt lat="43.95221" lon="5.29348">
        <ele>359</ele>
        <time>2019-10-02T14:15:39Z</time>
      </trkpt>
      <trkpt lat="43.95212" lon="5.29349">
        <ele>358</ele>
        <time>2019-10-02T14:15:56Z</time>
      </trkpt>
      <trkpt lat="43.95203" lon="5.29349">
        <ele>357</ele>
        <time>2019-10-02T14:16:21Z</time>
      </trkpt>
      <trkpt lat="43.95194" lon="5.29353">
        <ele>356</ele>
        <time>2019-10-02T14:16:45Z</time>
      </trkpt>
      <trkpt lat="43.95185" lon="5.29353">
        <ele>355</ele>
        <time>2019-10-02T14:17:24Z</time>
      </trkpt>
      <trkpt lat="43.95176" lon="5.29356">
        <ele>353</ele>
        <time>2019-10-02T14:17:55Z</time>
      </trkpt>
      <trkpt lat="43.95167" lon="5.29354">
        <ele>352</ele>
        <time>2019-10-02T14:18:37Z</time>
      </trkpt>
      <trkpt lat="43.95158" lon="5.2936">
        <ele>350</ele>
        <time>2019-10-02T14:18:47Z</time>
      </trkpt>
      <trkpt lat="43.95148" lon="5.29359">
        <ele>348</ele>
        <time>2019-10-02T14:18:59Z</time>
      </trkpt>
      <trkpt lat="43.9514" lon="5.29353">
        <ele>348</ele>
        <time>2019-10-02T14:19:11Z</time>
      </trkpt>
      <trkpt lat="43.95131" lon="5.29351">
        <ele>348</ele>
        <time>2019-10-02T14:19:31Z</time>
      </trkpt>
      <trkpt lat="43.95121" lon="5.29352">
        <ele>346</ele>
        <time>2019-10-02T14:19:44Z</time>
      </trkpt>
      <trkpt lat="43.95112" lon="5.29353">
        <ele>345</ele>
        <time>2019-10-02T14:19:55Z</time>
      </trkpt>
      <trkpt lat="43.95104" lon="5.29359">
        <ele>343</ele>
        <time>2019-10-02T14:20:10Z</time>
      </trkpt>
      <trkpt lat="43.95096" lon="5.29363">
        <ele>342</ele>
        <time>2019-10-02T14:20:22Z</time>
      </trkpt>
      <trkpt lat="43.95087" lon="5.29359">
        <ele>341</ele>
        <time>2019-10-02T14:20:30Z</time>
      </trkpt>
      <trkpt lat="43.95079" lon="5.29354">
        <ele>342</ele>
        <time>2019-10-02T14:20:40Z</time>
      </trkpt>
      <trkpt lat="43.95069" lon="5.29358">
        <ele>341</ele>
        <time>2019-10-02T14:20:49Z</time>
      </trkpt>
      <trkpt lat="43.9506" lon="5.29359">
        <ele>339</ele>
        <time>2019-10-02T14:21:03Z</time>
      </trkpt>
      <trkpt lat="43.95052" lon="5.29362">
        <ele>338</ele>
        <time>2019-10-02T14:21:27Z</time>
      </trkpt>
      <trkpt lat="43.95042" lon="5.29361">
        <ele>337</ele>
        <time>2019-10-02T14:21:37Z</time>
      </trkpt>
      <trkpt lat="43.95032" lon="5.29361">
        <ele>336</ele>
        <time>2019-10-02T14:21:43Z</time>
      </trkpt>
      <trkpt lat="43.95023" lon="5.29363">
        <ele>335</ele>
        <time>2019-10-02T14:21:49Z</time>
      </trkpt>
      <trkpt lat="43.95022" lon="5.29364">
        <ele>336</ele>
        <time>2019-10-02T14:21:51Z</time>
      </trkpt>
      <trkpt lat="43.95014" lon="5.29358">
        <ele>335</ele>
        <time>2019-10-02T14:22:04Z</time>
      </trkpt>
      <trkpt lat="43.95005" lon="5.29355">
        <ele>335</ele>
        <time>2019-10-02T14:22:16Z</time>
      </trkpt>
      <trkpt lat="43.94996" lon="5.29354">
        <ele>334</ele>
        <time>2019-10-02T14:22:23Z</time>
      </trkpt>
      <trkpt lat="43.94988" lon="5.29342">
        <ele>334</ele>
        <time>2019-10-02T14:22:44Z</time>
      </trkpt>
      <trkpt lat="43.94979" lon="5.29339">
        <ele>333</ele>
        <time>2019-10-02T14:23:07Z</time>
      </trkpt>
      <trkpt lat="43.9497" lon="5.29341">
        <ele>331</ele>
        <time>2019-10-02T14:23:30Z</time>
      </trkpt>
      <trkpt lat="43.94962" lon="5.29349">
        <ele>329</ele>
        <time>2019-10-02T14:23:47Z</time>
      </trkpt>
      <trkpt lat="43.94953" lon="5.2935">
        <ele>328</ele>
        <time>2019-10-02T14:24:02Z</time>
      </trkpt>
      <trkpt lat="43.94944" lon="5.29354">
        <ele>327</ele>
        <time>2019-10-02T14:24:23Z</time>
      </trkpt>
      <trkpt lat="43.94935" lon="5.29361">
        <ele>325</ele>
        <time>2019-10-02T14:24:47Z</time>
      </trkpt>
      <trkpt lat="43.94926" lon="5.29358">
        <ele>324</ele>
        <time>2019-10-02T14:25:03Z</time>
      </trkpt>
      <trkpt lat="43.94917" lon="5.29353">
        <ele>324</ele>
        <time>2019-10-02T14:25:21Z</time>
      </trkpt>
      <trkpt lat="43.94909" lon="5.29348">
        <ele>323</ele>
        <time>2019-10-02T14:25:34Z</time>
      </trkpt>
      <trkpt lat="43.94901" lon="5.2934">
        <ele>322</ele>
        <time>2019-10-02T14:25:42Z</time>
      </trkpt>
      <trkpt lat="43.94892" lon="5.29345">
        <ele>320</ele>
        <time>2019-10-02T14:26:25Z</time>
      </trkpt>
      <trkpt lat="43.94883" lon="5.29338">
        <ele>319</ele>
        <time>2019-10-02T14:26:44Z</time>
      </trkpt>
      <trkpt lat="43.94875" lon="5.29345">
        <ele>318</ele>
        <time>2019-10-02T14:27:02Z</time>
      </trkpt>
      <trkpt lat="43.94868" lon="5.29352">
        <ele>317</ele>
        <time>2019-10-02T14:27:11Z</time>
      </trkpt>
      <trkpt lat="43.94861" lon="5.2936">
        <ele>315</ele>
        <time>2019-10-02T14:27:22Z</time>
      </trkpt>
      <trkpt lat="43.94852" lon="5.29364">
        <ele>315</ele>
        <time>2019-10-02T14:27:45Z</time>
      </trkpt>
      <trkpt lat="43.94842" lon="5.29364">
        <ele>314</ele>
        <time>2019-10-02T14:28:14Z</time>
      </trkpt>
      <trkpt lat="43.94832" lon="5.29362">
        <ele>313</ele>
        <time>2019-10-02T14:28:26Z</time>
      </trkpt>
      <trkpt lat="43.94823" lon="5.2936">
        <ele>312</ele>
        <time>2019-10-02T14:28:41Z</time>
      </trkpt>
      <trkpt lat="43.94816" lon="5.29352">
        <ele>311</ele>
        <time>2019-10-02T14:29:21Z</time>
      </trkpt>
      <trkpt lat="43.94807" lon="5.29347">
        <ele>310</ele>
        <time>2019-10-02T14:29:37Z</time>
      </trkpt>
      <trkpt lat="43.948" lon="5.29338">
        <ele>308</ele>
        <time>2019-10-02T14:29:59Z</time>
      </trkpt>
      <trkpt lat="43.94791" lon="5.29337">
        <ele>307</ele>
        <time>2019-10-02T14:30:08Z</time>
      </trkpt>
      <trkpt lat="43.94781" lon="5.29334">
        <ele>306</ele>
        <time>2019-10-02T14:30:41Z</time>
      </trkpt>
      <trkpt lat="43.94772" lon="5.29332">
        <ele>305</ele>
        <time>2019-10-02T14:30:51Z</time>
      </trkpt>
      <trkpt lat="43.94762" lon="5.29331">
        <ele>304</ele>
        <time>2019-10-02T14:31:05Z</time>
      </trkpt>
      <trkpt lat="43.94754" lon="5.29322">
        <ele>303</ele>
        <time>2019-10-02T14:31:15Z</time>
      </trkpt>
      <trkpt lat="43.9475" lon="5.29321">
        <ele>302</ele>
        <time>2019-10-02T14:31:18Z</time>
      </trkpt>
      <trkpt lat="43.94741" lon="5.2932">
        <ele>301</ele>
        <time>2019-10-02T14:31:26Z</time>
      </trkpt>
      <trkpt lat="43.94733" lon="5.29312">
        <ele>299</ele>
        <time>2019-10-02T14:31:40Z</time>
      </trkpt>
      <trkpt lat="43.94726" lon="5.29303">
        <ele>298</ele>
        <time>2019-10-02T14:31:53Z</time>
      </trkpt>
      <trkpt lat="43.94717" lon="5.29298">
        <ele>298</ele>
        <time>2019-10-02T14:32:13Z</time>
      </trkpt>
      <trkpt lat="43.94709" lon="5.29294">
        <ele>298</ele>
        <time>2019-10-02T14:32:30Z</time>
      </trkpt>
      <trkpt lat="43.947" lon="5.29291">
        <ele>297</ele>
        <time>2019-10-02T14:32:39Z</time>
      </trkpt>
      <trkpt lat="43.94681" lon="5.29289">
        <ele>295</ele>
        <time>2019-10-02T14:32:57Z</time>
      </trkpt>
      <trkpt lat="43.94672" lon="5.29289">
        <ele>294</ele>
        <time>2019-10-02T14:33:36Z</time>
      </trkpt>
      <trkpt lat="43.94664" lon="5.29295">
        <ele>294</ele>
        <time>2019-10-02T14:33:59Z</time>
      </trkpt>
      <trkpt lat="43.94668" lon="5.29307">
        <ele>295</ele>
        <time>2019-10-02T14:34:13Z</time>
      </trkpt>
      <trkpt lat="43.94669" lon="5.2932">
        <ele>296</ele>
        <time>2019-10-02T14:34:23Z</time>
      </trkpt>
      <trkpt lat="43.94668" lon="5.29333">
        <ele>295</ele>
        <time>2019-10-02T14:34:34Z</time>
      </trkpt>
      <trkpt lat="43.94667" lon="5.29346">
        <ele>296</ele>
        <time>2019-10-02T14:34:43Z</time>
      </trkpt>
      <trkpt lat="43.9467" lon="5.29358">
        <ele>298</ele>
        <time>2019-10-02T14:34:55Z</time>
      </trkpt>
      <trkpt lat="43.94666" lon="5.29369">
        <ele>298</ele>
        <time>2019-10-02T14:35:05Z</time>
      </trkpt>
      <trkpt lat="43.9466" lon="5.29379">
        <ele>297</ele>
        <time>2019-10-02T14:35:33Z</time>
      </trkpt>
      <trkpt lat="43.94651" lon="5.29377">
        <ele>295</ele>
        <time>2019-10-02T14:36:07Z</time>
      </trkpt>
      <trkpt lat="43.94645" lon="5.29388">
        <ele>294</ele>
        <time>2019-10-02T14:36:14Z</time>
      </trkpt>
      <trkpt lat="43.9464" lon="5.29398">
        <ele>293</ele>
        <time>2019-10-02T14:36:22Z</time>
      </trkpt>
      <trkpt lat="43.94637" lon="5.2941">
        <ele>293</ele>
        <time>2019-10-02T14:36:31Z</time>
      </trkpt>
      <trkpt lat="43.94635" lon="5.29424">
        <ele>292</ele>
        <time>2019-10-02T14:36:41Z</time>
      </trkpt>
      <trkpt lat="43.94634" lon="5.29439">
        <ele>292</ele>
        <time>2019-10-02T14:36:50Z</time>
      </trkpt>
      <trkpt lat="43.94633" lon="5.29452">
        <ele>291</ele>
        <time>2019-10-02T14:37:00Z</time>
      </trkpt>
      <trkpt lat="43.9463" lon="5.29463">
        <ele>290</ele>
        <time>2019-10-02T14:37:09Z</time>
      </trkpt>
      <trkpt lat="43.94627" lon="5.29476">
        <ele>289</ele>
        <time>2019-10-02T14:37:26Z</time>
      </trkpt>
      <trkpt lat="43.94621" lon="5.29486">
        <ele>288</ele>
        <time>2019-10-02T14:37:37Z</time>
      </trkpt>
      <trkpt lat="43.94615" lon="5.29496">
        <ele>287</ele>
        <time>2019-10-02T14:37:47Z</time>
      </trkpt>
      <trkpt lat="43.94607" lon="5.29503">
        <ele>285</ele>
        <time>2019-10-02T14:37:57Z</time>
      </trkpt>
      <trkpt lat="43.94598" lon="5.29502">
        <ele>284</ele>
        <time>2019-10-02T14:38:05Z</time>
      </trkpt>
      <trkpt lat="43.94589" lon="5.29498">
        <ele>283</ele>
        <time>2019-10-02T14:38:14Z</time>
      </trkpt>
      <trkpt lat="43.94579" lon="5.295">
        <ele>282</ele>
        <time>2019-10-02T14:39:11Z</time>
      </trkpt>
      <trkpt lat="43.94567" lon="5.29481">
        <ele>281</ele>
        <time>2019-10-02T14:39:28Z</time>
      </trkpt>
      <trkpt lat="43.94558" lon="5.29486">
        <ele>281</ele>
        <time>2019-10-02T14:39:40Z</time>
      </trkpt>
      <trkpt lat="43.94553" lon="5.29485">
        <ele>280</ele>
        <time>2019-10-02T14:39:51Z</time>
      </trkpt>
      <trkpt lat="43.94552" lon="5.29484">
        <ele>280</ele>
        <time>2019-10-02T14:39:55Z</time>
      </trkpt>
      <trkpt lat="43.94552" lon="5.29484">
        <ele>280</ele>
        <time>2019-10-02T14:39:56Z</time>
      </trkpt>
    </trkseg>
  </trk>
</gpx>